[[{"header":{"parameterUnit":"m.s-1","parameterCategory":1,"la1":31.0,"la2":29.5877,"lo1":-88.7671,"lo2":-86.6584,"dy":0.0162,"dx":0.0185,"nx":115,"ny":88,"refTime":"2024-04-24T12:00:00:Z","depth":0,"parameterNumber":2,"parameterNumberName":"U-component_of_WINDS"},"data":[0.0,0.0,0.0,0.0,0.0,0.0,0.0,0.0,0.0,0.0,0.0,0.0,0.0,0.0,0.0,0.0,0.0,0.0,0.0,0.0,0.0,0.0,0.0,0.0,0.0,0.0,0.0,0.0,0.0,0.0,0.0,0.0,0.0,0.0,0.0,0.0,0.0,0.0,0.0,0.0,0.0,0.0,0.0,0.0,0.0,0.0,0.0,0.0,0.0,0.0,0.0,0.0,0.0,0.0,0.0,0.0,0.0,0.0,0.0,0.0,0.0,0.0,0.0,0.0,0.0,0.0,0.0,0.0,0.0,0.0,0.0,0.0,0.0,0.0,0.0,0.0,0.0,0.0,0.0,0.0,0.0,0.0,0.0,0.0,0.0,0.0,0.0,0.0,0.0,0.0,0.0,0.0,0.0,0.0,0.0,0.0,0.0,0.0,0.0,0.0,0.0,0.0,0.0,0.0,0.0,0.0,0.0,0.0,0.0,0.0,0.0,0.0,0.0,0.0,0.0,0.0,0.0,0.0,0.0,0.0,0.0,0.0,0.0,0.0,0.0,0.0,0.0,0.0,0.0,0.0,0.0,0.0,0.0,0.0,0.0,0.0,0.0,0.0,0.0,0.0,0.0,0.0,0.0,0.0,0.0,0.0,0.0,0.0,0.0,0.0,0.0,0.0,0.0,0.0,0.0,0.0,0.0,0.0,0.0,0.0,0.0,0.0,0.0,0.0,0.0,0.0,0.0,0.0,0.0,0.0,0.0,0.0,0.0,0.0,0.0,0.0,0.0,0.0,0.0,0.0,0.0,0.0,0.0,0.0,0.0,0.0,0.0,0.0,0.0,0.0,0.0,0.0,0.0,0.0,0.0,0.0,0.0,0.0,0.0,0.0,0.0,0.0,0.0,0.0,0.0,0.0,0.0,0.0,0.0,0.0,0.0,0.0,0.0,0.0,0.0,0.0,0.0,0.0,0.0,0.0,0.0,0.0,0.0,0.0,0.0,0.0,0.0,0.0,0.0,0.0,0.0,0.0,0.0,0.0,0.0,0.0,0.0,0.0,0.0,0.0,0.0,0.0,0.0,0.0,0.0,0.0,0.0,0.0,0.0,0.0,0.0,0.0,0.0,0.0,0.0,0.0,0.0,0.0,0.0,0.0,0.0,0.0,0.0,0.0,0.0,0.0,0.0,0.0,0.0,0.0,0.0,0.0,0.0,0.0,0.0,0.0,0.0,0.0,0.0,0.0,0.0,0.0,0.0,0.0,0.0,0.0,0.0,0.0,0.0,0.0,0.0,0.0,0.0,0.0,0.0,0.0,0.0,0.0,0.0,0.0,0.0,0.0,0.0,0.0,0.0,0.0,0.0,0.0,0.0,0.0,0.0,0.0,0.0,0.0,0.0,0.0,0.0,0.0,0.0,0.0,0.0,0.0,0.0,0.0,0.0,0.0,0.0,0.0,0.0,0.0,0.0,0.0,0.0,0.0,0.0,0.0,0.0,0.0,0.0,0.0,0.0,0.0,0.0,0.0,0.0,0.0,0.0,0.0,0.0,0.0,0.0,0.0,0.0,0.0,0.0,0.0,0.0,0.0,0.0,0.0,0.0,0.0,0.0,0.0,0.0,0.0,0.0,0.0,0.0,0.0,0.0,0.0,0.0,0.0,0.0,0.0,0.0,0.0,0.0,0.0,0.0,0.0,0.0,0.0,0.0,0.0,0.0,0.0,0.0,0.0,0.0,0.0,0.0,0.0,0.0,0.0,0.0,0.0,0.0,0.0,0.0,0.0,0.0,0.0,0.0,0.0,0.0,0.0,0.0,0.0,0.0,0.0,0.0,0.0,0.0,0.0,0.0,0.0,0.0,0.0,0.0,0.0,0.0,0.0,0.0,0.0,0.0,0.0,0.0,0.0,0.0,0.0,0.0,0.0,0.0,0.0,0.0,0.0,0.0,0.0,0.0,0.0,0.0,0.0,0.0,0.0,0.0,0.0,0.0,0.0,0.0,0.0,0.0,0.0,0.0,0.0,0.0,0.0,0.0,0.0,0.0,0.0,0.0,0.0,0.0,0.0,0.0,0.0,0.0,0.0,0.0,0.0,0.0,0.0,0.0,0.0,0.0,0.0,0.0,0.0,0.0,0.0,0.0,0.0,0.0,0.0,0.0,0.0,0.0,0.0,0.0,0.0,0.0,0.0,0.0,0.0,0.0,0.0,0.0,0.0,0.0,0.0,0.0,0.0,0.0,0.0,0.0,0.0,0.0,0.0,0.0,0.0,0.0,0.0,0.0,0.0,0.0,0.0,0.0,0.0,0.0,0.0,0.0,0.0,0.0,0.0,0.0,0.0,0.0,0.0,0.0,0.0,0.0,0.0,0.0,0.0,0.0,0.0,0.0,0.0,0.0,0.0,0.0,0.0,0.0,0.0,0.0,0.0,0.0,0.0,0.0,0.0,0.0,0.0,0.0,0.0,0.0,0.0,0.0,0.0,0.0,0.0,0.0,0.0,0.0,0.0,0.0,0.0,0.0,0.0,0.0,0.0,0.0,0.0,0.0,0.0,0.0,0.0,0.0,0.0,0.0,0.0,0.0,0.0,0.0,0.0,0.0,0.0,0.0,0.0,0.0,0.0,0.0,0.0,0.0,0.0,0.0,0.0,0.0,0.0,0.0,0.0,0.0,0.0,0.0,0.0,0.0,0.0,0.0,0.0,0.0,0.0,0.0,0.0,0.0,0.0,0.0,0.0,0.0,0.0,0.0,0.0,0.0,0.0,0.0,0.0,0.0,0.0,0.0,0.0,0.0,0.0,0.0,0.0,0.0,0.0,0.0,0.0,0.0,0.0,0.0,0.0,0.0,0.0,0.0,0.0,0.0,0.0,0.0,0.0,0.0,0.0,0.0,0.0,0.0,0.0,0.0,0.0,0.0,0.0,0.0,0.0,0.0,0.0,0.0,0.0,0.0,0.0,0.0,0.0,0.0,0.0,0.0,0.0,0.0,0.0,0.0,0.0,0.0,0.0,0.0,0.0,0.0,0.0,0.0,0.0,0.0,0.0,0.0,0.0,0.0,0.0,0.0,0.0,0.0,0.0,0.0,0.0,0.0,0.0,0.0,0.0,0.0,0.0,0.0,0.0,0.0,0.0,0.0,0.0,0.0,0.0,0.0,0.0,0.0,0.0,0.0,0.0,0.0,0.0,0.0,0.0,0.0,0.0,0.0,0.0,0.0,0.0,0.0,0.0,0.0,0.0,0.0,0.0,0.0,0.0,0.0,0.0,0.0,0.0,0.0,0.0,0.0,0.0,0.0,0.0,0.0,0.0,0.0,0.0,0.0,0.0,0.0,0.0,0.0,0.0,0.0,0.0,0.0,0.0,0.0,0.0,0.0,0.0,0.0,0.0,0.0,0.0,0.0,0.0,0.0,0.0,0.0,0.0,0.0,0.0,0.0,0.0,0.0,0.0,0.0,0.0,0.0,0.0,0.0,0.0,0.0,0.0,0.0,0.0,0.0,0.0,0.0,0.0,0.0,0.0,0.0,0.0,0.0,0.0,0.0,0.0,0.0,0.0,0.0,0.0,0.0,0.0,0.0,0.0,0.0,0.0,0.0,0.0,0.0,0.0,0.0,0.0,0.0,0.0,0.0,0.0,0.0,0.0,0.0,0.0,0.0,0.0,0.0,0.0,0.0,0.0,0.0,0.0,0.0,0.0,0.0,0.0,0.0,0.0,0.0,0.0,0.0,0.0,0.0,0.0,0.0,0.0,0.0,0.0,0.0,0.0,0.0,0.0,0.0,0.0,0.0,0.0,0.0,0.0,0.0,0.0,0.0,0.0,0.0,0.0,0.0,0.0,0.0,0.0,0.0,0.0,0.0,0.0,0.0,0.0,0.0,0.0,0.0,0.0,0.0,0.0,0.0,0.0,0.0,0.0,0.0,0.0,0.0,0.0,0.0,0.0,0.0,0.0,0.0,0.0,0.0,0.0,0.0,0.0,0.0,0.0,0.0,0.0,0.0,0.0,0.0,0.0,0.0,0.0,0.0,0.0,0.0,0.0,0.0,0.0,0.0,0.0,0.0,0.0,0.0,0.0,0.0,0.0,0.0,0.0,0.0,0.0,0.0,0.0,0.0,0.0,0.0,0.0,0.0,0.0,0.0,0.0,0.0,0.0,0.0,0.0,0.0,0.0,0.0,0.0,0.0,0.0,0.0,0.0,0.0,0.0,0.0,0.0,0.0,0.0,0.0,0.0,0.0,0.0,0.0,0.0,0.0,0.0,0.0,0.0,-3.3309,0.0,0.0,0.0,0.0,0.0,0.0,0.0,0.0,0.0,0.0,0.0,0.0,0.0,0.0,0.0,0.0,0.0,0.0,0.0,0.0,0.0,0.0,0.0,0.0,0.0,0.0,0.0,0.0,0.0,0.0,0.0,0.0,0.0,0.0,0.0,0.0,0.0,0.0,0.0,0.0,0.0,0.0,0.0,0.0,0.0,0.0,0.0,0.0,0.0,0.0,0.0,0.0,0.0,0.0,0.0,0.0,0.0,0.0,0.0,0.0,0.0,0.0,0.0,0.0,0.0,0.0,0.0,0.0,0.0,0.0,0.0,0.0,0.0,0.0,0.0,0.0,0.0,0.0,0.0,0.0,0.0,0.0,0.0,0.0,0.0,0.0,0.0,0.0,0.0,0.0,0.0,0.0,0.0,0.0,0.0,0.0,0.0,0.0,0.0,0.0,0.0,0.0,0.0,0.0,0.0,0.0,0.0,0.0,0.0,0.0,-3.3846,-3.3846,-3.3498,-3.3309,-3.3309,0.0,0.0,0.0,0.0,0.0,0.0,0.0,0.0,0.0,0.0,0.0,0.0,0.0,0.0,0.0,0.0,0.0,0.0,0.0,0.0,0.0,0.0,0.0,0.0,0.0,0.0,0.0,0.0,0.0,0.0,0.0,0.0,0.0,0.0,0.0,0.0,0.0,0.0,0.0,0.0,0.0,0.0,0.0,0.0,0.0,0.0,0.0,0.0,0.0,0.0,0.0,0.0,0.0,0.0,0.0,0.0,0.0,0.0,0.0,0.0,0.0,0.0,0.0,0.0,0.0,0.0,0.0,0.0,0.0,0.0,0.0,0.0,0.0,0.0,0.0,0.0,0.0,0.0,0.0,0.0,0.0,0.0,0.0,0.0,0.0,0.0,0.0,0.0,0.0,0.0,0.0,0.0,0.0,0.0,0.0,0.0,0.0,0.0,0.0,0.0,0.0,0.0,0.0,0.0,0.0,0.0,0.0,0.0,0.0,0.0,0.0,0.0,-3.3814,-3.3409,-3.3256,0.0,0.0,0.0,0.0,0.0,0.0,0.0,0.0,0.0,0.0,0.0,0.0,0.0,0.0,0.0,0.0,0.0,0.0,0.0,0.0,0.0,0.0,0.0,0.0,0.0,0.0,0.0,0.0,0.0,0.0,0.0,0.0,0.0,0.0,0.0,0.0,0.0,0.0,0.0,0.0,0.0,0.0,0.0,0.0,0.0,0.0,0.0,0.0,0.0,0.0,0.0,0.0,0.0,0.0,0.0,0.0,0.0,0.0,0.0,0.0,0.0,0.0,0.0,0.0,0.0,0.0,0.0,0.0,0.0,0.0,0.0,0.0,0.0,0.0,0.0,0.0,0.0,0.0,0.0,0.0,0.0,0.0,0.0,0.0,0.0,0.0,0.0,0.0,0.0,0.0,0.0,0.0,0.0,0.0,0.0,0.0,0.0,0.0,0.0,0.0,0.0,0.0,0.0,0.0,0.0,0.0,0.0,0.0,0.0,0.0,-3.4984,-3.432,-3.4225,0.0,-3.3186,0.0,0.0,0.0,0.0,0.0,0.0,0.0,0.0,0.0,0.0,0.0,0.0,0.0,0.0,0.0,0.0,0.0,0.0,0.0,0.0,0.0,0.0,0.0,0.0,0.0,0.0,0.0,0.0,0.0,0.0,0.0,0.0,0.0,0.0,0.0,0.0,0.0,0.0,0.0,0.0,0.0,0.0,0.0,0.0,0.0,0.0,0.0,0.0,0.0,0.0,0.0,0.0,0.0,0.0,0.0,0.0,0.0,0.0,0.0,0.0,0.0,0.0,0.0,0.0,0.0,0.0,0.0,0.0,0.0,0.0,0.0,0.0,0.0,0.0,0.0,0.0,0.0,0.0,0.0,0.0,0.0,0.0,0.0,0.0,0.0,0.0,0.0,0.0,0.0,0.0,0.0,0.0,0.0,0.0,0.0,0.0,0.0,0.0,0.0,0.0,0.0,0.0,0.0,0.0,0.0,0.0,0.0,0.0,0.0,0.0,-3.5551,-3.5237,-3.4485,-3.3736,0.0,0.0,0.0,0.0,0.0,0.0,0.0,0.0,0.0,0.0,0.0,0.0,0.0,0.0,0.0,0.0,0.0,0.0,0.0,0.0,0.0,0.0,0.0,0.0,0.0,0.0,0.0,0.0,0.0,0.0,0.0,0.0,0.0,0.0,0.0,0.0,0.0,0.0,0.0,0.0,0.0,0.0,0.0,0.0,0.0,0.0,0.0,0.0,0.0,0.0,0.0,0.0,0.0,0.0,0.0,0.0,0.0,0.0,0.0,0.0,0.0,0.0,0.0,0.0,0.0,0.0,0.0,0.0,0.0,0.0,0.0,0.0,0.0,0.0,0.0,0.0,0.0,0.0,0.0,0.0,0.0,0.0,0.0,0.0,0.0,0.0,0.0,0.0,0.0,0.0,0.0,0.0,0.0,0.0,0.0,0.0,0.0,0.0,0.0,0.0,0.0,0.0,0.0,0.0,0.0,0.0,0.0,0.0,0.0,0.0,-3.65,-3.6096,-3.5847,-3.4571,-3.3609,-3.3056,0.0,0.0,0.0,0.0,0.0,0.0,0.0,0.0,0.0,0.0,0.0,0.0,0.0,0.0,0.0,0.0,0.0,0.0,0.0,0.0,0.0,0.0,0.0,0.0,0.0,0.0,0.0,0.0,0.0,0.0,0.0,0.0,0.0,0.0,0.0,0.0,0.0,0.0,0.0,0.0,0.0,0.0,0.0,0.0,0.0,0.0,0.0,0.0,0.0,0.0,0.0,0.0,0.0,0.0,0.0,0.0,0.0,0.0,0.0,0.0,0.0,0.0,0.0,0.0,0.0,0.0,0.0,0.0,0.0,0.0,0.0,0.0,0.0,0.0,0.0,0.0,0.0,0.0,0.0,0.0,0.0,0.0,0.0,0.0,0.0,0.0,0.0,0.0,0.0,0.0,0.0,0.0,0.0,0.0,0.0,0.0,0.0,0.0,0.0,0.0,0.0,0.0,0.0,0.0,0.0,0.0,0.0,0.0,-3.6969,-3.6968,-3.6595,-3.5878,-3.4485,-3.3627,0.0,0.0,0.0,0.0,0.0,0.0,0.0,0.0,0.0,0.0,0.0,0.0,0.0,0.0,0.0,0.0,0.0,0.0,0.0,0.0,0.0,0.0,0.0,0.0,0.0,0.0,0.0,0.0,0.0,0.0,0.0,0.0,0.0,0.0,0.0,0.0,0.0,0.0,0.0,0.0,0.0,0.0,0.0,0.0,0.0,0.0,0.0,0.0,0.0,0.0,0.0,0.0,0.0,0.0,0.0,0.0,0.0,0.0,0.0,0.0,0.0,0.0,0.0,0.0,0.0,0.0,0.0,0.0,0.0,0.0,0.0,0.0,0.0,0.0,0.0,0.0,0.0,0.0,0.0,0.0,0.0,0.0,0.0,0.0,0.0,0.0,0.0,0.0,0.0,0.0,0.0,0.0,0.0,0.0,0.0,0.0,0.0,0.0,0.0,0.0,0.0,0.0,0.0,0.0,0.0,0.0,0.0,0.0,0.0,-3.6693,-3.6538,-3.6138,-3.546,-3.445,-3.3658,0.0,0.0,0.0,0.0,0.0,0.0,0.0,0.0,0.0,0.0,0.0,0.0,0.0,0.0,0.0,0.0,0.0,0.0,0.0,0.0,0.0,0.0,0.0,0.0,0.0,0.0,0.0,0.0,0.0,0.0,0.0,0.0,0.0,0.0,0.0,0.0,0.0,0.0,0.0,0.0,0.0,0.0,0.0,0.0,0.0,0.0,0.0,0.0,0.0,0.0,0.0,0.0,0.0,0.0,0.0,0.0,0.0,0.0,0.0,0.0,0.0,0.0,0.0,0.0,0.0,0.0,0.0,0.0,0.0,0.0,0.0,0.0,0.0,0.0,0.0,0.0,0.0,0.0,0.0,0.0,0.0,0.0,0.0,0.0,0.0,0.0,0.0,0.0,0.0,0.0,0.0,0.0,0.0,0.0,0.0,0.0,0.0,0.0,0.0,0.0,0.0,0.0,0.0,0.0,0.0,0.0,0.0,0.0,0.0,-3.669,0.0,-3.601,-3.5766,-3.482,-3.394,0.0,0.0,0.0,0.0,0.0,0.0,0.0,0.0,0.0,0.0,0.0,0.0,0.0,0.0,0.0,0.0,0.0,0.0,0.0,0.0,0.0,0.0,0.0,0.0,0.0,0.0,0.0,0.0,0.0,0.0,0.0,0.0,0.0,0.0,0.0,0.0,0.0,0.0,0.0,0.0,0.0,0.0,0.0,0.0,0.0,0.0,0.0,0.0,0.0,0.0,0.0,0.0,0.0,0.0,0.0,0.0,0.0,0.0,0.0,0.0,0.0,0.0,0.0,0.0,0.0,0.0,0.0,0.0,0.0,0.0,0.0,0.0,0.0,0.0,0.0,0.0,0.0,0.0,0.0,0.0,0.0,0.0,0.0,0.0,0.0,0.0,0.0,0.0,0.0,0.0,0.0,0.0,0.0,0.0,0.0,0.0,0.0,0.0,0.0,0.0,0.0,0.0,0.0,0.0,0.0,0.0,0.0,0.0,-3.6751,-3.7143,-3.6434,-3.6368,-3.6912,-3.5669,-3.4514,0.0,0.0,0.0,0.0,0.0,0.0,0.0,0.0,0.0,0.0,0.0,0.0,0.0,0.0,0.0,0.0,0.0,0.0,0.0,0.0,0.0,0.0,0.0,0.0,0.0,0.0,0.0,0.0,0.0,0.0,0.0,0.0,0.0,0.0,0.0,0.0,0.0,0.0,0.0,0.0,0.0,0.0,0.0,0.0,0.0,0.0,0.0,0.0,0.0,0.0,0.0,0.0,0.0,0.0,0.0,0.0,0.0,0.0,0.0,0.0,0.0,0.0,0.0,0.0,0.0,0.0,0.0,0.0,0.0,0.0,0.0,0.0,0.0,0.0,0.0,0.0,0.0,0.0,0.0,0.0,0.0,0.0,0.0,0.0,0.0,0.0,0.0,0.0,0.0,0.0,0.0,0.0,0.0,0.0,0.0,0.0,0.0,0.0,0.0,0.0,0.0,0.0,0.0,0.0,0.0,0.0,0.0,0.0,0.0,-3.7676,-3.7198,-3.7064,-3.7211,-3.5783,-3.4783,0.0,0.0,0.0,0.0,0.0,0.0,0.0,0.0,0.0,0.0,0.0,0.0,0.0,0.0,0.0,0.0,0.0,0.0,0.0,0.0,0.0,0.0,0.0,0.0,0.0,0.0,0.0,0.0,0.0,0.0,0.0,0.0,0.0,0.0,0.0,0.0,0.0,0.0,0.0,0.0,0.0,0.0,0.0,0.0,0.0,0.0,0.0,0.0,0.0,0.0,0.0,0.0,0.0,0.0,0.0,0.0,0.0,0.0,0.0,0.0,0.0,0.0,0.0,0.0,0.0,0.0,0.0,0.0,0.0,0.0,0.0,0.0,0.0,0.0,0.0,0.0,0.0,0.0,0.0,0.0,0.0,0.0,0.0,0.0,0.0,0.0,0.0,0.0,0.0,0.0,0.0,0.0,0.0,0.0,0.0,0.0,0.0,0.0,0.0,0.0,0.0,0.0,0.0,0.0,0.0,0.0,0.0,0.0,0.0,-3.8411,-3.762,-3.7283,-3.7555,-3.6001,-3.5037,-3.4673,0.0,0.0,0.0,0.0,0.0,0.0,0.0,0.0,0.0,0.0,0.0,0.0,0.0,0.0,0.0,0.0,0.0,0.0,0.0,0.0,0.0,0.0,0.0,0.0,0.0,0.0,0.0,0.0,0.0,0.0,0.0,0.0,0.0,0.0,0.0,0.0,0.0,0.0,0.0,0.0,0.0,0.0,0.0,0.0,0.0,0.0,0.0,0.0,0.0,0.0,0.0,0.0,0.0,0.0,0.0,0.0,0.0,0.0,0.0,0.0,0.0,0.0,0.0,0.0,0.0,0.0,0.0,0.0,0.0,0.0,0.0,0.0,0.0,0.0,0.0,0.0,0.0,0.0,0.0,0.0,0.0,0.0,0.0,0.0,0.0,0.0,0.0,0.0,0.0,0.0,0.0,0.0,0.0,0.0,0.0,0.0,0.0,0.0,0.0,0.0,0.0,0.0,0.0,0.0,0.0,0.0,0.0,0.0,-3.9469,-3.7842,-3.7304,-3.7899,-3.6488,-3.5321,0.0,0.0,0.0,0.0,0.0,0.0,0.0,0.0,0.0,0.0,0.0,0.0,0.0,0.0,0.0,0.0,0.0,0.0,0.0,0.0,0.0,0.0,0.0,0.0,0.0,0.0,0.0,0.0,0.0,0.0,0.0,0.0,0.0,0.0,0.0,0.0,0.0,0.0,0.0,0.0,0.0,0.0,0.0,0.0,0.0,0.0,0.0,0.0,0.0,0.0,0.0,0.0,0.0,0.0,0.0,0.0,0.0,0.0,0.0,0.0,0.0,0.0,0.0,0.0,0.0,0.0,0.0,0.0,0.0,0.0,0.0,0.0,0.0,0.0,0.0,0.0,0.0,0.0,0.0,0.0,0.0,0.0,0.0,0.0,0.0,0.0,0.0,0.0,0.0,0.0,0.0,0.0,0.0,0.0,0.0,0.0,0.0,0.0,0.0,0.0,0.0,0.0,0.0,0.0,0.0,0.0,0.0,0.0,0.0,-4.0296,-3.9341,-3.8947,-3.9218,-3.7843,-3.6753,0.0,0.0,0.0,0.0,0.0,0.0,0.0,0.0,0.0,0.0,0.0,0.0,0.0,0.0,0.0,0.0,0.0,0.0,0.0,0.0,0.0,0.0,0.0,0.0,0.0,0.0,0.0,0.0,0.0,0.0,0.0,0.0,0.0,0.0,0.0,0.0,0.0,0.0,0.0,0.0,0.0,0.0,0.0,0.0,0.0,0.0,0.0,0.0,0.0,0.0,0.0,0.0,0.0,0.0,0.0,0.0,0.0,0.0,0.0,0.0,0.0,0.0,0.0,0.0,0.0,0.0,0.0,0.0,0.0,0.0,0.0,0.0,0.0,0.0,0.0,0.0,0.0,0.0,0.0,0.0,0.0,0.0,0.0,0.0,0.0,0.0,0.0,0.0,0.0,0.0,0.0,0.0,0.0,0.0,0.0,0.0,0.0,0.0,0.0,0.0,0.0,0.0,0.0,0.0,0.0,0.0,0.0,0.0,-3.9957,-4.0629,-4.0745,-4.059,-4.0265,-3.8365,-3.7147,0.0,0.0,0.0,0.0,0.0,0.0,0.0,0.0,0.0,0.0,0.0,0.0,0.0,0.0,0.0,0.0,0.0,0.0,0.0,0.0,0.0,0.0,0.0,0.0,0.0,0.0,0.0,0.0,0.0,0.0,0.0,0.0,0.0,0.0,0.0,0.0,0.0,0.0,0.0,0.0,0.0,0.0,0.0,0.0,0.0,0.0,0.0,0.0,0.0,0.0,0.0,0.0,0.0,0.0,0.0,0.0,0.0,0.0,0.0,0.0,0.0,0.0,0.0,0.0,0.0,0.0,0.0,0.0,0.0,0.0,0.0,0.0,0.0,0.0,0.0,0.0,0.0,0.0,0.0,0.0,0.0,0.0,0.0,0.0,0.0,0.0,0.0,0.0,0.0,0.0,0.0,0.0,0.0,0.0,0.0,0.0,0.0,0.0,0.0,0.0,0.0,0.0,0.0,0.0,0.0,0.0,0.0,0.0,-4.0519,-4.0755,-4.1819,-4.1976,-4.1018,-3.8629,-3.7102,0.0,0.0,0.0,0.0,0.0,0.0,0.0,0.0,0.0,0.0,0.0,0.0,0.0,0.0,0.0,0.0,0.0,0.0,0.0,0.0,0.0,0.0,0.0,0.0,0.0,0.0,0.0,0.0,0.0,0.0,0.0,0.0,0.0,0.0,0.0,0.0,0.0,0.0,0.0,0.0,0.0,0.0,0.0,0.0,0.0,0.0,0.0,0.0,0.0,0.0,0.0,0.0,0.0,0.0,0.0,0.0,0.0,0.0,0.0,0.0,0.0,0.0,0.0,0.0,0.0,0.0,0.0,0.0,0.0,0.0,0.0,0.0,0.0,0.0,0.0,0.0,0.0,0.0,0.0,0.0,0.0,0.0,0.0,0.0,0.0,0.0,0.0,0.0,0.0,0.0,0.0,0.0,0.0,0.0,0.0,0.0,0.0,0.0,0.0,0.0,0.0,0.0,0.0,0.0,0.0,0.0,0.0,0.0,-4.0895,-4.154,-4.1799,-4.2012,-4.2065,-4.0327,-3.8685,0.0,0.0,0.0,0.0,0.0,0.0,0.0,0.0,0.0,0.0,0.0,0.0,0.0,0.0,0.0,0.0,0.0,0.0,0.0,0.0,0.0,0.0,0.0,0.0,0.0,0.0,0.0,0.0,0.0,0.0,0.0,0.0,0.0,0.0,0.0,0.0,0.0,0.0,0.0,0.0,0.0,0.0,0.0,0.0,0.0,0.0,0.0,0.0,-2.7272,0.0,0.0,0.0,0.0,0.0,0.0,0.0,0.0,0.0,0.0,0.0,0.0,0.0,0.0,0.0,0.0,0.0,0.0,0.0,0.0,0.0,0.0,0.0,0.0,0.0,0.0,0.0,0.0,0.0,0.0,0.0,0.0,0.0,0.0,0.0,0.0,0.0,0.0,0.0,0.0,0.0,0.0,0.0,0.0,0.0,0.0,0.0,0.0,0.0,0.0,0.0,0.0,0.0,0.0,0.0,0.0,0.0,0.0,0.0,-4.1152,-4.1993,-4.2351,-4.2375,-4.2187,-4.0968,-3.9513,0.0,0.0,0.0,0.0,0.0,0.0,0.0,0.0,0.0,0.0,0.0,0.0,0.0,0.0,0.0,0.0,0.0,0.0,0.0,0.0,0.0,0.0,0.0,0.0,0.0,0.0,0.0,0.0,0.0,0.0,0.0,0.0,0.0,0.0,0.0,0.0,0.0,0.0,0.0,0.0,0.0,0.0,0.0,0.0,0.0,0.0,0.0,0.0,0.0,0.0,0.0,0.0,0.0,0.0,0.0,0.0,0.0,0.0,0.0,0.0,0.0,0.0,0.0,0.0,0.0,0.0,0.0,0.0,0.0,0.0,0.0,0.0,0.0,0.0,0.0,0.0,0.0,0.0,0.0,0.0,0.0,0.0,0.0,0.0,0.0,0.0,0.0,0.0,0.0,0.0,0.0,0.0,0.0,0.0,0.0,0.0,0.0,0.0,0.0,0.0,0.0,0.0,0.0,0.0,0.0,0.0,0.0,-4.0294,-4.1343,-4.216,-4.2787,-4.2773,-4.2045,-4.1133,-3.9976,-3.8455,0.0,0.0,0.0,0.0,0.0,0.0,0.0,0.0,0.0,0.0,0.0,0.0,0.0,0.0,0.0,0.0,0.0,0.0,0.0,0.0,0.0,0.0,0.0,0.0,0.0,0.0,0.0,0.0,0.0,0.0,0.0,0.0,0.0,0.0,0.0,0.0,0.0,0.0,-2.8223,-2.8794,0.0,0.0,0.0,0.0,0.0,0.0,0.0,0.0,-2.9091,0.0,0.0,0.0,0.0,0.0,0.0,0.0,0.0,0.0,0.0,0.0,0.0,0.0,0.0,0.0,0.0,0.0,0.0,0.0,0.0,0.0,0.0,0.0,0.0,0.0,0.0,0.0,0.0,0.0,0.0,0.0,0.0,0.0,0.0,0.0,0.0,0.0,0.0,0.0,0.0,0.0,0.0,0.0,0.0,0.0,0.0,0.0,0.0,0.0,0.0,0.0,0.0,0.0,0.0,0.0,0.0,-3.8769,-4.0286,-4.13,-4.1713,-4.2065,-4.2235,-4.2052,-4.0941,-3.9794,-3.8577,0.0,0.0,0.0,0.0,0.0,0.0,0.0,0.0,0.0,0.0,0.0,0.0,0.0,0.0,0.0,0.0,0.0,0.0,0.0,0.0,0.0,0.0,0.0,0.0,0.0,0.0,0.0,0.0,0.0,0.0,0.0,0.0,0.0,0.0,0.0,0.0,0.0,0.0,0.0,-2.9442,-2.9902,0.0,0.0,0.0,0.0,0.0,0.0,0.0,0.0,-2.935,0.0,0.0,0.0,0.0,0.0,0.0,0.0,0.0,0.0,0.0,0.0,0.0,0.0,0.0,0.0,0.0,0.0,0.0,0.0,0.0,0.0,0.0,0.0,0.0,0.0,0.0,0.0,0.0,0.0,0.0,0.0,0.0,0.0,0.0,0.0,0.0,0.0,0.0,0.0,0.0,0.0,0.0,0.0,0.0,0.0,0.0,0.0,0.0,0.0,0.0,0.0,0.0,0.0,0.0,0.0,-3.8797,-4.003,-4.1072,-4.1807,-4.203,-4.2065,-4.2065,-4.0851,-3.9614,0.0,0.0,0.0,0.0,0.0,0.0,0.0,0.0,0.0,0.0,0.0,0.0,0.0,0.0,0.0,0.0,0.0,0.0,0.0,0.0,0.0,0.0,0.0,0.0,0.0,0.0,0.0,0.0,0.0,0.0,0.0,0.0,0.0,0.0,0.0,0.0,0.0,0.0,0.0,0.0,-3.0303,-3.076,-3.1004,0.0,0.0,0.0,0.0,0.0,0.0,-3.0383,-3.0084,0.0,0.0,0.0,0.0,0.0,0.0,0.0,0.0,0.0,0.0,0.0,0.0,0.0,0.0,0.0,0.0,0.0,0.0,0.0,0.0,0.0,0.0,0.0,0.0,0.0,0.0,0.0,0.0,0.0,0.0,0.0,0.0,0.0,0.0,0.0,0.0,0.0,0.0,0.0,0.0,0.0,0.0,0.0,0.0,0.0,0.0,0.0,0.0,0.0,0.0,0.0,0.0,0.0,0.0,0.0,-3.88,-3.9748,-4.0797,-4.199,-4.1993,-4.1891,-4.1732,-4.0557,-3.9327,0.0,0.0,0.0,0.0,0.0,0.0,0.0,0.0,0.0,0.0,0.0,0.0,0.0,0.0,0.0,0.0,0.0,0.0,0.0,0.0,0.0,0.0,0.0,0.0,0.0,0.0,0.0,0.0,0.0,0.0,0.0,0.0,0.0,0.0,0.0,0.0,0.0,0.0,0.0,0.0,0.0,-3.1604,-3.2073,-3.2632,0.0,0.0,0.0,0.0,-3.1394,-3.113,0.0,0.0,0.0,0.0,0.0,0.0,0.0,0.0,0.0,0.0,0.0,0.0,0.0,0.0,0.0,0.0,0.0,0.0,0.0,0.0,0.0,0.0,0.0,0.0,0.0,0.0,0.0,0.0,0.0,0.0,0.0,0.0,0.0,0.0,0.0,0.0,0.0,0.0,0.0,0.0,0.0,0.0,0.0,0.0,0.0,0.0,0.0,0.0,0.0,0.0,0.0,0.0,0.0,0.0,0.0,0.0,-3.8602,-3.9488,-4.0557,-4.1667,-4.1498,-4.1136,-4.0638,-3.9987,-3.8862,0.0,0.0,0.0,0.0,0.0,0.0,0.0,0.0,0.0,0.0,0.0,0.0,0.0,0.0,0.0,0.0,0.0,0.0,0.0,0.0,0.0,0.0,0.0,0.0,0.0,0.0,0.0,0.0,0.0,0.0,0.0,0.0,0.0,0.0,0.0,0.0,0.0,0.0,0.0,0.0,0.0,-3.2102,-3.2533,-3.2679,-3.2643,0.0,0.0,-3.223,-3.2086,-3.1628,0.0,0.0,0.0,0.0,0.0,0.0,0.0,0.0,0.0,0.0,0.0,0.0,0.0,0.0,0.0,0.0,0.0,0.0,0.0,0.0,0.0,0.0,0.0,0.0,0.0,0.0,0.0,0.0,0.0,0.0,0.0,0.0,0.0,0.0,0.0,0.0,0.0,0.0,0.0,0.0,0.0,0.0,0.0,0.0,0.0,0.0,0.0,0.0,0.0,0.0,0.0,0.0,0.0,0.0,0.0,-3.7184,-3.8349,-3.928,-4.0293,-4.1395,-4.1374,-4.1036,-4.0435,-3.9886,-3.8789,0.0,0.0,0.0,0.0,0.0,0.0,0.0,0.0,0.0,0.0,0.0,0.0,0.0,0.0,0.0,0.0,0.0,0.0,0.0,0.0,0.0,0.0,0.0,0.0,0.0,0.0,0.0,0.0,0.0,0.0,0.0,0.0,0.0,0.0,0.0,0.0,0.0,0.0,0.0,0.0,0.0,0.0,-3.333,-3.3926,0.0,0.0,0.0,-3.3951,-3.3207,0.0,0.0,0.0,0.0,0.0,0.0,0.0,0.0,0.0,0.0,0.0,0.0,0.0,0.0,0.0,0.0,0.0,0.0,0.0,0.0,0.0,0.0,0.0,0.0,0.0,0.0,0.0,0.0,0.0,0.0,0.0,0.0,0.0,0.0,0.0,0.0,0.0,0.0,0.0,0.0,0.0,0.0,0.0,0.0,0.0,0.0,0.0,0.0,0.0,0.0,0.0,0.0,0.0,0.0,0.0,0.0,0.0,-3.8122,-3.9118,-4.0174,-4.1272,-4.1324,-4.0958,-4.0226,-3.9834,0.0,0.0,0.0,0.0,0.0,0.0,0.0,0.0,0.0,0.0,0.0,0.0,0.0,0.0,0.0,0.0,0.0,0.0,0.0,0.0,0.0,0.0,0.0,0.0,0.0,0.0,0.0,-2.1506,0.0,0.0,0.0,0.0,0.0,0.0,0.0,0.0,0.0,0.0,0.0,0.0,0.0,0.0,-3.4002,-3.4079,-3.4888,-3.5447,0.0,0.0,-3.5062,-3.4101,-3.374,-3.3202,0.0,0.0,0.0,0.0,0.0,0.0,0.0,0.0,0.0,0.0,0.0,0.0,0.0,0.0,0.0,0.0,0.0,0.0,0.0,0.0,0.0,0.0,0.0,0.0,0.0,0.0,0.0,0.0,0.0,0.0,0.0,0.0,0.0,0.0,0.0,0.0,0.0,0.0,0.0,0.0,0.0,0.0,0.0,0.0,0.0,0.0,0.0,0.0,0.0,0.0,0.0,0.0,0.0,0.0,0.0,-3.79,-3.9024,-4.0148,-4.1272,-4.1324,-4.0775,-3.9703,-3.9625,-3.8527,0.0,0.0,0.0,0.0,0.0,0.0,0.0,0.0,0.0,0.0,0.0,0.0,0.0,0.0,0.0,0.0,0.0,0.0,0.0,0.0,0.0,0.0,0.0,0.0,0.0,0.0,0.0,0.0,0.0,0.0,0.0,0.0,0.0,0.0,0.0,0.0,0.0,0.0,0.0,0.0,0.0,-3.3903,-3.4871,-3.491,-3.4817,0.0,0.0,-3.4564,-3.4481,-3.3514,-3.2775,-3.2841,0.0,0.0,0.0,0.0,0.0,0.0,0.0,0.0,0.0,0.0,0.0,0.0,0.0,0.0,0.0,0.0,0.0,0.0,0.0,0.0,0.0,0.0,0.0,0.0,0.0,0.0,0.0,0.0,0.0,0.0,0.0,0.0,0.0,0.0,0.0,0.0,0.0,0.0,0.0,0.0,0.0,0.0,0.0,0.0,0.0,0.0,0.0,0.0,0.0,0.0,0.0,0.0,0.0,-3.6515,-3.7351,-3.8841,-3.9991,-4.0723,-4.1141,-4.0775,-3.9651,-3.9625,-3.8501,0.0,0.0,0.0,0.0,0.0,0.0,0.0,0.0,0.0,0.0,0.0,0.0,0.0,0.0,0.0,0.0,0.0,0.0,0.0,0.0,0.0,0.0,0.0,0.0,0.0,0.0,0.0,0.0,-2.2507,-2.2933,-2.3469,0.0,0.0,0.0,0.0,0.0,0.0,0.0,0.0,0.0,0.0,-3.4567,-3.5686,-3.6147,0.0,0.0,-3.6488,-3.6062,-3.5675,-3.4903,-3.4241,-3.3928,-3.2949,0.0,0.0,0.0,0.0,0.0,0.0,0.0,0.0,0.0,0.0,0.0,0.0,0.0,0.0,0.0,0.0,0.0,0.0,0.0,0.0,0.0,0.0,0.0,0.0,0.0,0.0,0.0,0.0,0.0,0.0,0.0,0.0,0.0,0.0,0.0,0.0,0.0,0.0,0.0,0.0,0.0,0.0,0.0,0.0,0.0,0.0,0.0,0.0,0.0,0.0,0.0,0.0,-3.641,-3.7011,-3.8736,-3.986,-4.036,-4.101,-4.0775,-3.9651,-3.9625,-3.8501,0.0,0.0,0.0,0.0,0.0,0.0,0.0,0.0,0.0,0.0,0.0,0.0,0.0,0.0,0.0,0.0,0.0,0.0,0.0,0.0,0.0,0.0,0.0,0.0,0.0,0.0,0.0,0.0,-2.2964,-2.3418,-2.439,0.0,0.0,0.0,0.0,0.0,0.0,0.0,0.0,0.0,0.0,-3.526,-3.6248,-3.6852,-3.729,-3.7699,-3.7399,-3.6989,-3.6511,-3.5802,-3.5186,-3.4815,0.0,0.0,0.0,0.0,0.0,0.0,0.0,0.0,0.0,0.0,0.0,0.0,0.0,0.0,0.0,0.0,0.0,0.0,0.0,0.0,0.0,0.0,0.0,0.0,0.0,0.0,0.0,0.0,0.0,0.0,0.0,0.0,0.0,0.0,0.0,0.0,0.0,0.0,0.0,0.0,0.0,0.0,0.0,0.0,0.0,0.0,0.0,0.0,0.0,0.0,0.0,0.0,0.0,-3.641,-3.7011,-3.8736,-3.986,-4.0409,-4.101,-4.0775,-3.9677,-3.9625,-3.8501,-3.6149,0.0,0.0,0.0,0.0,0.0,0.0,0.0,0.0,0.0,0.0,0.0,0.0,0.0,0.0,0.0,0.0,0.0,0.0,0.0,0.0,0.0,0.0,0.0,0.0,0.0,0.0,-2.2669,-2.3255,-2.4163,0.0,0.0,0.0,0.0,0.0,0.0,0.0,0.0,0.0,0.0,-3.4792,-3.5913,-3.6537,-3.6742,-3.686,-3.6887,-3.686,-3.6791,-3.6807,-3.5805,-3.5114,0.0,0.0,0.0,0.0,0.0,0.0,0.0,0.0,0.0,0.0,0.0,0.0,0.0,0.0,0.0,0.0,0.0,0.0,0.0,0.0,0.0,0.0,0.0,0.0,0.0,0.0,0.0,-3.8736,-3.8684,0.0,0.0,0.0,0.0,0.0,0.0,0.0,0.0,0.0,0.0,0.0,-3.7882,-3.7449,0.0,0.0,0.0,0.0,0.0,0.0,0.0,0.0,0.0,0.0,0.0,0.0,-3.6593,-3.7612,-3.8919,-3.9886,-4.0409,-4.0984,-4.0775,-3.9651,-3.9625,-3.8344,-3.5652,0.0,0.0,0.0,0.0,0.0,0.0,0.0,0.0,0.0,0.0,0.0,0.0,0.0,0.0,0.0,0.0,0.0,0.0,0.0,0.0,0.0,0.0,0.0,0.0,0.0,-2.3319,0.0,0.0,0.0,0.0,0.0,0.0,0.0,0.0,0.0,0.0,0.0,-3.2546,-3.4296,-3.4929,-3.5731,-3.7123,-3.734,-3.7519,0.0,0.0,0.0,0.0,0.0,0.0,0.0,0.0,0.0,0.0,0.0,0.0,0.0,0.0,-3.2793,-3.1172,-3.1025,-3.1157,-3.1264,0.0,0.0,0.0,0.0,0.0,0.0,0.0,0.0,0.0,0.0,0.0,0.0,0.0,0.0,0.0,0.0,-3.9362,0.0,0.0,0.0,0.0,0.0,0.0,0.0,0.0,-3.8521,-3.87,-3.9058,-3.8674,-3.8213,0.0,-3.7087,-3.6322,0.0,0.0,0.0,0.0,0.0,0.0,0.0,0.0,-3.6772,-3.7762,-3.8787,-3.957,-4.0115,-4.0685,-4.0478,-3.9336,-3.8532,-3.7157,-3.5081,-3.3031,-3.137,0.0,0.0,0.0,0.0,0.0,0.0,0.0,0.0,0.0,0.0,0.0,0.0,0.0,0.0,0.0,0.0,0.0,0.0,0.0,0.0,0.0,0.0,0.0,-2.4409,0.0,0.0,0.0,0.0,0.0,0.0,0.0,0.0,0.0,-3.1495,-3.2224,-3.3288,-3.4778,-3.544,-3.622,-3.7387,0.0,0.0,0.0,0.0,0.0,0.0,0.0,-3.6919,-3.6963,-3.6183,-3.552,-3.5603,-3.5076,-3.4617,-3.4597,0.0,0.0,-3.2653,-3.2563,-3.2681,-3.2749,-3.2713,-3.2735,-3.3057,-3.3042,-3.3051,0.0,0.0,0.0,0.0,0.0,0.0,0.0,0.0,-4.1901,-4.1362,0.0,-4.0235,0.0,0.0,0.0,0.0,0.0,0.0,0.0,0.0,-3.9674,-3.9648,-3.9674,-3.9674,-3.9367,-3.8853,-3.8216,-3.7702,-3.7134,-3.6264,0.0,0.0,0.0,0.0,0.0,0.0,-3.6936,-3.7583,-3.8405,-3.9056,-3.9645,-4.0209,-3.9953,-3.88,-3.6647,-3.5212,-3.4597,-3.3024,-3.1547,-3.0369,-2.949,0.0,0.0,0.0,0.0,0.0,0.0,0.0,0.0,0.0,0.0,0.0,0.0,0.0,0.0,0.0,0.0,0.0,0.0,0.0,0.0,-2.5845,0.0,0.0,0.0,0.0,0.0,0.0,0.0,0.0,0.0,0.0,-3.1569,-3.3542,-3.5018,-3.5057,0.0,0.0,0.0,0.0,-3.8553,-3.8057,-3.8397,-3.8553,-3.8004,-3.7429,-3.7153,-3.7279,0.0,0.0,-3.6704,-3.6295,-3.582,-3.5506,-3.5197,-3.4621,-3.3853,-3.3926,-3.3956,-3.3431,-3.318,-3.3121,-3.3363,-3.3235,-3.2993,-4.8962,0.0,0.0,0.0,0.0,-4.5201,-4.4791,-4.4715,-4.3563,-4.3102,-4.3025,-4.2309,0.0,0.0,0.0,0.0,0.0,0.0,-4.0307,-4.0784,-4.0784,-4.0784,-4.0784,-4.0784,-4.0559,-4.0004,-3.9449,-3.8894,-3.8388,-3.7922,-3.6938,-3.5513,0.0,0.0,0.0,0.0,-3.7068,-3.8332,-3.8669,-3.9261,-4.0235,-4.0414,-3.9953,-3.88,-3.6621,-3.5321,-3.5186,-3.3187,-3.1752,-3.0983,-2.9945,0.0,0.0,0.0,0.0,0.0,0.0,0.0,0.0,0.0,0.0,0.0,0.0,0.0,0.0,0.0,0.0,0.0,0.0,0.0,-2.5987,-2.6425,-2.6778,0.0,0.0,0.0,0.0,0.0,0.0,0.0,0.0,0.0,-3.3079,-3.3938,-3.501,0.0,0.0,-3.7887,-3.8254,-3.8914,-3.9285,-3.9155,0.0,0.0,0.0,-3.8344,-3.8083,-3.7808,-3.7232,-3.6796,-3.6594,-3.6426,-3.6353,-3.638,-3.6305,-3.6082,-3.5616,-3.4892,-3.4492,-3.4537,-3.4486,-3.4618,-3.4939,-3.5113,-3.5247,-5.1917,-5.065,-4.8898,-4.8034,-4.7755,-4.6866,-4.6358,-4.6104,-4.5189,-4.4681,-4.4427,-4.3868,-4.3402,-4.3038,-4.2153,0.0,0.0,0.0,-4.1781,-4.2253,-4.2253,-4.2208,-4.2007,-4.1982,-4.158,-4.0852,-4.0501,-3.9948,-3.9195,-3.902,-3.8083,-3.6502,0.0,0.0,-3.7288,-3.7194,-3.7734,-3.8934,-3.8887,-3.9295,-4.016,-3.9753,-3.9193,-3.8481,-3.6502,-3.5359,-3.5105,-3.3445,-3.2123,-3.1334,-3.0279,-2.9298,0.0,0.0,0.0,0.0,0.0,0.0,0.0,0.0,0.0,0.0,0.0,-2.5117,-2.5117,0.0,0.0,0.0,-2.6404,-2.6755,-2.708,-2.7412,0.0,0.0,0.0,0.0,0.0,0.0,0.0,-3.2096,-3.3069,-3.3982,-3.4622,-3.5149,-3.5841,-3.6904,-3.7526,-3.8096,-3.8666,0.0,-3.9521,-3.9314,-3.9443,-3.944,-3.8964,-3.8908,-3.8726,-3.8318,-3.7743,-3.7318,-3.7085,-3.7077,-3.706,-3.7025,-3.6989,-3.689,-3.6545,-3.5967,-3.555,-3.5471,-3.5422,-3.5508,-3.5778,-3.5947,-3.6108,-5.4386,-5.3683,-5.1071,-4.964,-4.8987,-4.8385,-4.7832,-4.7355,-4.6753,-4.6225,-4.5723,-4.5095,-4.4493,-4.389,-4.3363,0.0,0.0,-4.3112,-4.3363,-4.3865,-4.3865,-4.3589,-4.3112,-4.3062,-4.2509,-4.1501,-4.1401,-4.0877,-3.9923,-3.9798,-3.9245,-3.8216,-3.8636,-3.883,-3.8728,-3.8458,-3.8638,-3.9146,-3.902,-3.9196,-3.9647,-3.8592,-3.799,-3.799,-3.636,-3.5232,-3.468,-3.3646,-3.2566,-3.1436,-3.0514,-2.9796,-2.9188,0.0,0.0,0.0,0.0,0.0,0.0,0.0,0.0,0.0,0.0,0.0,0.0,0.0,0.0,0.0,-2.7991,0.0,-2.8707,-2.8707,0.0,0.0,0.0,-3.0637,-3.1249,-3.18,-3.2516,-3.3641,0.0,0.0,0.0,0.0,-3.7117,-3.7266,-3.7702,-3.8239,-3.8777,-3.9363,-3.9517,-3.9107,-3.9389,-3.9541,-3.9246,-3.9088,-3.8899,-3.8642,-3.8219,-3.7828,-3.7821,-3.7821,-3.773,-3.7393,-3.7332,-3.7237,-3.6917,-3.6946,-3.6976,-3.6211,-3.5979,-3.5941,-3.6049,-3.6005,-3.6069,-5.5742,-5.5491,-5.4009,-5.2578,-5.1222,-5.0243,-4.9741,-4.954,-4.8611,-4.8109,-4.7933,-4.6954,-4.5999,-4.5045,-4.4493,-4.4217,-4.4217,-4.4217,-4.4292,-4.4418,-4.4418,-4.4367,-4.4217,-4.379,-4.3463,-4.3187,-4.2359,-4.1886,-4.1584,-4.0727,-4.0199,-3.9923,-3.9599,-3.902,-3.8237,-3.8114,-3.839,-3.8969,-3.8919,-3.9196,-3.9647,-3.8592,-3.799,-3.799,-3.636,-3.5232,-3.468,-3.3671,-3.2541,-3.1436,-3.0798,-2.9994,-2.9013,-2.8749,0.0,0.0,0.0,0.0,0.0,0.0,0.0,0.0,0.0,-2.6601,-2.6568,0.0,-2.7764,0.0,-2.8164,-2.8596,-2.9416,-2.953,0.0,0.0,-3.1055,-3.1549,-3.2533,-3.276,-3.3265,-3.4331,-3.481,-3.539,-3.6243,-3.6824,-3.7505,-3.8338,-3.8887,-3.9237,-3.9391,-3.9927,-4.026,-4.0132,-4.0133,-4.0081,-3.9541,-3.8746,-3.8277,-3.8359,-3.794,-3.767,-3.7854,-3.79,-3.7848,-3.7763,-3.7736,-3.7591,-3.7237,-3.7219,-3.704,-3.6422,-3.647,-3.6601,-3.6543,-3.6603,-3.6797,-5.7047,-5.6495,-5.5641,-5.4637,-5.3457,-5.2101,-5.1398,-5.1096,-5.0268,-4.9615,-4.9063,-4.7983,-4.7129,-4.6552,-4.6225,-4.5949,-4.5748,-4.5748,-4.5598,-4.5372,-4.5372,-4.5246,-4.4995,-4.4694,-4.4292,-4.379,-4.3187,-4.269,-4.2187,-4.153,-4.1128,-4.0877,-4.0325,-3.9747,-3.9145,-3.8894,-3.8919,-3.922,-3.922,-3.9396,-3.9647,-3.8592,-3.799,-3.7965,-3.6659,-3.5529,-3.4751,-3.4123,-3.3169,-3.1838,-3.126,-3.0557,-2.9729,-2.9164,-2.88,0.0,0.0,0.0,0.0,0.0,0.0,0.0,0.0,0.0,0.0,0.0,-2.8495,0.0,-2.9378,0.0,-3.0457,-3.0482,-3.0974,-3.2039,-3.2139,-3.2566,-3.3696,-3.3822,-3.4148,-3.4931,-3.5533,-3.6107,-3.6659,-3.7486,-3.819,-3.8844,-3.9323,-3.9677,-3.9702,-3.9956,-4.016,-4.0134,-4.0134,-4.0109,-3.9854,-3.8958,-3.8386,-3.8405,-3.7835,-3.7366,-3.7505,-3.767,-3.7716,-3.7762,-3.7808,-3.7867,-3.7591,-3.7648,-3.7457,-3.6737,-3.6718,-3.6852,-3.6531,-3.6733,-3.7095,-5.8102,-5.7097,-5.6545,-5.6018,-5.539,-5.3884,-5.2879,-5.2277,-5.1724,-5.082,-4.964,-4.8586,-4.8083,-4.8008,-4.7933,-4.7657,-4.723,-4.7093,-4.6878,-4.6426,-4.6351,-4.605,-4.5598,-4.5522,-4.497,-4.4041,-4.3865,-4.3313,-4.2439,-4.2288,-4.1932,-4.1376,-4.0877,-4.0576,-4.0501,-4.0049,-3.9772,-3.9697,-3.9697,-3.9697,-3.9672,-3.8592,-3.799,-3.7965,-3.6935,-3.583,-3.4731,-3.468,-3.3947,-3.2315,-3.1763,-3.126,-3.0733,-2.974,-2.9214,0.0,-2.88,0.0,0.0,0.0,0.0,0.0,0.0,0.0,0.0,-2.8448,-2.895,-2.993,-3.0834,-3.1436,-3.1587,-3.1612,-3.2064,-3.3144,-3.3338,-3.3696,-3.463,-3.4781,-3.5031,-3.5633,-3.6182,-3.6732,-3.7362,-3.8266,-3.8919,-3.907,-3.9422,-3.9673,-3.9672,-3.9724,-3.9749,-3.9697,-3.9697,-3.9801,-3.9753,-3.9192,-3.8625,-3.8521,-3.7727,-3.7087,-3.7108,-3.732,-3.7459,-3.7505,-3.7716,-3.7828,-3.79,-3.8031,-3.7772,-3.6726,-3.6791,-3.6799,-3.6266,-3.6457,-3.6889,-5.8328,-5.77,-5.7123,-5.657,-5.5993,-5.5239,-5.4336,-5.3356,-5.2829,-5.1724,-5.0243,-4.9565,-4.9038,-4.8586,-4.8109,-4.7857,-4.7732,-4.733,-4.7018,-4.6954,-4.6527,-4.625,-4.6125,-4.5698,-4.5372,-4.5121,-4.4242,-4.3689,-4.3463,-4.264,-4.2162,-4.2037,-4.1455,-4.0953,-4.0526,0.0,0.0,0.0,-3.9697,-3.9697,-3.9647,-3.8592,-3.799,-3.7965,-3.6935,0.0,-3.4801,-3.468,-3.3947,-3.234,-3.2114,0.0,0.0,0.0,0.0,0.0,0.0,0.0,0.0,0.0,0.0,0.0,-3.0758,-3.0407,-2.9578,-3.0256,-3.0859,-3.106,-3.1301,-3.1763,-3.2667,-3.2767,-3.3194,-3.4248,-3.4399,-3.463,-3.5257,-3.5332,-3.5708,-3.6759,-3.696,-3.7461,-3.8341,-3.8818,-3.9044,-3.9446,-3.9622,-3.9697,-3.9697,-3.9697,-3.9697,-3.9697,-3.9672,-3.9573,-3.9196,-3.8591,-3.8108,-3.78,-3.7238,-3.69,-3.7015,-3.7108,-3.7273,-3.7459,-3.7551,-3.7644,-3.7854,-3.7946,-3.7618,-3.6665,-3.6584,-3.6471,-3.59,-3.6018,-3.6417,-5.8629,0.0,-5.7575,-5.6972,0.0,-5.5917,-5.5164,-5.4084,-5.3557,-5.2528,-5.1197,-5.0368,-4.9841,-4.9565,-4.8987,-4.8586,-4.8335,-4.8058,-4.7657,-4.7129,-4.6853,-4.6577,-4.6301,-4.6024,-4.5748,-4.5447,-4.4618,-4.4066,-4.3765,-4.3017,-4.2559,-4.2559,-4.2007,-4.1605,-4.1329,-4.0802,-4.0249,-3.9697,-3.9697,-3.9697,-3.9647,-3.8592,-3.799,-3.7965,0.0,0.0,0.0,0.0,0.0,0.0,0.0,0.0,0.0,0.0,0.0,-3.1386,-3.1386,-3.1386,-3.1386,-3.1386,-3.1386,-3.1386,-3.1955,-3.1804,-3.0658,-3.1587,-3.2215,-3.224,-3.2717,-3.3269,-3.3822,-3.3872,-3.4223,-3.4956,-3.5082,-3.5307,-3.583,-3.5956,-3.6282,-3.7036,-3.7437,-3.7914,-3.8818,-3.912,-3.9371,-3.9647,-3.9697,-3.9697,-3.9697,-3.9697,-3.9697,-3.9672,-3.9446,-3.9246,-3.8919,-3.8115,-3.7586,-3.7379,-3.6925,-3.6644,-3.6734,-3.6828,-3.6968,-3.7108,-3.7294,-3.7551,-3.7618,-3.7573,-3.7239,-3.6507,-3.6147,-3.5897,-3.5437,-3.5616,-3.6018,-5.888,-5.7901,-5.7901,-5.7248,-5.6219,-5.6219,-5.5591,-5.4582,0.0,0.0,0.0,-5.1021,-5.0519,-5.0368,-4.9841,-4.9339,-4.8912,-4.8812,-4.8234,-4.728,-4.7118,-4.6853,-4.6326,-4.6326,-4.6075,-4.5623,-4.4945,-4.4392,-4.394,-4.3288,-4.2986,-4.2936,-4.2564,-4.2263,-4.1957,-4.1003,-4.0249,-3.9722,-3.9697,-3.9697,-3.9672,-3.8592,-3.799,-3.799,-3.6983,-3.6107,-3.5533,-3.5056,-3.4625,-3.4048,-3.3068,-3.2516,-3.2491,-3.1989,-3.1687,-3.1687,-3.1687,-3.1738,-3.1838,-3.1838,-3.1863,-3.1964,-3.2817,-3.2968,-3.2039,-3.2842,-3.3413,-3.3413,-3.4198,-3.4705,-3.4806,-3.4831,-3.5031,-3.5583,-3.5633,-3.5881,-3.6329,-3.6505,-3.6782,-3.7262,-3.7839,-3.8366,-3.8969,-3.9396,-3.9697,-3.9697,-3.9697,-3.9622,-3.9572,-3.9622,-3.9647,-3.9496,-3.917,-3.8894,-3.8517,-3.7839,-3.7235,-3.7059,-3.6707,-3.643,-3.6405,-3.6546,-3.664,-3.6756,-3.7062,-3.7289,-3.735,-3.7124,-3.6731,-3.6096,-3.5755,-3.54,-3.4956,-3.5208,-3.5616,-5.888,-5.7901,-5.7901,-5.7248,-5.6219,-5.6219,-5.5591,-5.4486,-5.3482,-5.2678,-5.2051,-5.1448,-5.087,-5.0393,-4.9841,-4.9565,-4.9464,-4.8987,-4.841,0.0,-4.7355,-4.6792,-4.6326,-4.6326,-4.6276,-4.6125,-4.5121,-4.4593,-4.4392,-4.3489,-4.2986,-4.2961,-4.2942,-4.2384,-4.148,-4.0827,-4.0249,-3.9722,-3.9697,-3.9697,-3.9672,-3.8592,-3.799,-3.7965,-3.6935,-3.6107,-3.5533,-3.5408,-3.5132,-3.458,-3.3997,-3.3671,-3.3646,-3.3119,-3.2885,-3.2885,-3.2885,-3.3043,-3.3495,-3.3545,-3.3746,-3.4198,-3.4399,-3.4424,-3.4274,-3.4354,-3.45,-3.45,-3.463,-3.4881,-3.5307,-3.5382,-3.5608,-3.6132,-3.6232,-3.6329,-3.643,-3.6782,-3.7211,-3.7789,-3.8391,-3.8919,-3.9421,-3.9622,-3.9697,-3.9697,-3.9647,-3.9496,-3.917,-3.9396,-3.9446,-3.912,-3.8994,-3.8517,-3.7788,-3.7385,-3.7033,-3.6581,-3.6505,-3.6405,-3.6405,-3.6452,-3.6499,-3.6687,-3.6803,-3.6811,-3.6773,-3.6703,-3.6319,-3.5618,-3.5381,-3.5178,-3.482,-3.488,-3.5127,-5.888,-5.7951,-5.7901,-5.7248,-5.6168,-5.5591,-5.5039,-5.4461,-5.3406,-5.2804,-5.2477,-5.1649,-5.1147,-5.082,-4.9967,-4.959,-4.959,-4.9339,-4.8736,-4.7933,-4.7657,-4.7104,-4.6351,-4.6326,-4.6326,-4.625,-4.5497,-4.492,-4.4568,-4.379,-4.3263,-4.3011,-4.2986,-4.2559,-4.1806,-4.1229,-4.0676,-4.0149,-3.9848,-3.9697,-3.9672,-3.8894,-3.8316,-3.8015,-3.7211,-3.6533,-3.6006,-3.5658,-3.5382,-3.5132,-3.465,-3.4349,-3.4324,-3.4098,-3.3972,-3.3972,-3.3972,-3.4073,-3.4324,-3.4349,-3.4555,-3.5082,-3.5132,-3.5257,-3.5604,-3.5328,-3.5132,-3.5132,-3.5429,-3.5705,-3.5956,-3.5981,-3.6081,-3.638,-3.6405,-3.6405,-3.643,-3.6606,-3.7134,-3.7839,-3.8241,-3.8743,-3.9597,-3.9697,-3.9697,-3.9672,-3.9471,-3.9044,-3.8492,-3.8617,-3.8693,-3.8442,-3.8215,-3.7789,-3.7262,-3.6958,-3.6707,-3.643,-3.6405,-3.6405,-3.6405,-3.6405,-3.6452,-3.6546,-3.664,-3.6527,-3.6294,-3.6187,-3.5823,-3.5288,-3.4914,-3.4753,-3.4643,-3.4714,-3.5003,-5.878,-5.7901,-5.7775,-5.7123,-5.6118,-5.5039,-5.4561,-5.4461,-5.3406,-5.2861,-5.2779,-5.1774,-5.1272,-5.1172,-5.0092,-4.959,-4.959,-4.959,-4.9063,-4.8159,-4.7983,-4.7405,-4.6552,-4.6376,-4.6326,-4.625,-4.5748,-4.5196,-4.4618,-4.4066,-4.3514,-4.3037,-4.2986,-4.2766,-4.2187,-4.163,-4.1025,-4.0526,-3.9973,-3.9697,-3.9672,-3.9145,-3.8642,-3.8216,-3.7538,-3.7033,-3.6558,-3.6031,-3.5683,-3.5658,-3.5157,-3.4856,-3.4856,-3.4756,-3.468,-3.468,-3.468,-3.4776,-3.4856,-3.5027,-3.5278,-3.5633,-3.5683,-3.5906,-3.6304,-3.5981,-3.5683,-3.578,-3.6107,-3.638,-3.638,-3.6405,-3.6405,-3.6405,-3.6405,-3.6405,-3.6405,-3.6505,-3.6835,-3.7688,-3.7914,-3.8366,-3.9069,-3.932,-3.927,-3.9195,-3.8944,-3.8467,-3.7965,-3.7814,-3.7789,-3.7613,-3.7362,-3.7161,-3.7036,-3.6732,-3.6455,-3.6405,-3.6405,-3.6405,-3.6405,-3.6405,-3.6405,-3.6452,-3.6348,-3.6185,-3.5796,-3.5532,-3.519,-3.4684,-3.4458,-3.4408,-3.4465,-3.4632,-3.4962,-5.8453,-5.7851,-5.7349,-5.6771,-5.6093,-5.5039,-5.4632,-5.4411,-5.3406,-5.2861,-5.2829,-5.1774,-5.1272,-5.1122,-5.0092,-4.959,-4.959,-4.959,-4.9264,-4.8661,-4.8159,-4.7606,-4.7029,-4.6552,-4.6326,-4.625,-4.5773,-4.5246,-4.4669,-4.4091,-4.3514,-4.3037,-4.2986,-4.2766,-4.2213,-4.163,-4.1025,-4.0526,-3.9973,-3.9697,-3.9672,-3.9145,-3.8894,-3.8844,-3.7764,-3.7161,-3.7111,-3.6584,-3.6329,-3.6304,-3.5755,-3.5433,-3.5382,-3.4956,-3.4705,-3.4705,-3.4705,-3.4926,-3.5382,-3.5931,-3.6254,-3.6329,-3.6304,-3.6282,-3.6405,-3.6355,-3.6282,-3.6329,-3.638,-3.6405,-3.6405,-3.6405,-3.6405,-3.6405,-3.6405,-3.6405,-3.6455,-3.6857,-3.7161,-3.7211,-3.7688,-3.8065,-3.8241,-3.8291,-3.8241,-3.8266,-3.8191,-3.7889,-3.7387,-3.7262,-3.7111,-3.681,-3.6883,-3.6983,-3.6656,-3.648,-3.6405,-3.6405,-3.6405,-3.6405,-3.6405,-3.6405,-3.6405,-3.6229,-3.5956,-3.5596,-3.5173,-3.4749,-3.4303,-3.411,-3.404,-3.4189,-3.4356,-3.459,-3.4921,-5.8403,-5.7851,-5.7273,-5.652,-5.5666,-5.4888,-5.4361,-5.3984,-5.3256,-5.2861,-5.2779,-5.1774,-5.1272,-5.1197,-5.0092,-4.959,-4.959,-4.959,-4.9289,-4.8736,-4.8184,-4.7631,-4.7129,-4.6577,-4.6326,-4.6301,-4.6075,-4.5698,-4.507,-4.4242,-4.3514,-4.3037,-4.2986,-4.2916,-4.2665,-4.2108,-4.1555,-4.1003,-4.045,-4.0023,-3.9697,-3.9471,-3.9195,-3.8919,-3.8466,-3.8015,-3.7663,-3.7136,-3.6908,-3.6857,-3.6332,-3.6006,-3.6031,-3.5805,-3.568,-3.568,-3.568,-3.578,-3.6006,-3.6279,-3.6405,-3.6405,-3.6405,-3.6405,-3.6405,-3.6405,-3.6405,-3.6405,-3.6405,-3.6405,-3.643,-3.6405,-3.6405,-3.6405,-3.6405,-3.6405,-3.643,-3.6606,-3.681,-3.7136,-3.7387,-3.7663,-3.7914,-3.799,-3.7864,-3.7638,-3.7513,-3.7312,-3.681,-3.6709,-3.6656,-3.6505,-3.6606,-3.6631,-3.6455,-3.6405,-3.6405,-3.6405,-3.6405,-3.6405,-3.6405,-3.6405,-3.6329,-3.5981,-3.5633,-3.5177,-3.4463,-3.4363,-3.4071,-3.376,-3.3852,-3.4105,-3.4189,-3.4397,-3.4673,-5.8278,-5.7801,-5.7123,-5.6269,-5.5365,-5.4813,-5.4235,-5.3683,-5.3155,-5.2861,-5.2735,-5.1774,-5.1272,-5.1122,-5.0092,-4.959,-4.959,-4.959,-4.9389,-4.8937,-4.8259,-4.7707,-4.7305,-4.6627,-4.6326,-4.6326,-4.6301,-4.6024,-4.5422,-4.4342,-4.3589,-4.3237,-4.3062,-4.2986,-4.2936,-4.2489,-4.1957,-4.153,-4.0877,-4.0325,-3.9948,-3.9772,-3.9496,-3.912,-3.8944,-3.8668,-3.8266,-3.7713,-3.7412,-3.7387,-3.6885,-3.6631,-3.6631,-3.6505,-3.6405,-3.6405,-3.6405,-3.6405,-3.6405,-3.6405,-3.6405,-3.643,-3.6531,-3.6631,-3.6656,-3.6782,-3.6857,-3.6883,-3.681,-3.6832,-3.643,-3.6405,-3.6405,-3.6405,-3.6405,-3.6405,-3.6405,-3.6405,-3.6581,-3.6933,-3.6983,-3.7086,-3.7437,-3.7487,-3.7337,-3.7036,-3.7008,-3.6908,-3.6531,-3.643,-3.643,-3.6405,-3.6405,-3.643,-3.6405,-3.6405,-3.6405,-3.6405,-3.6405,-3.6405,-3.6405,-3.6405,-3.6182,-3.583,-3.5508,-3.5052,-3.4268,-3.4048,-3.3857,-3.3631,-3.3641,-3.3937,-3.4105,-3.423,-3.4397,-5.7926,-5.7725,-5.6696,-5.5917,-5.534,-5.4762,-5.4235,-5.3607,-5.3155,-5.2861,-5.2779,-5.1774,-5.1272,-5.1197,-5.0092,-4.959,-4.959,-4.959,-4.9565,-4.9414,-4.8435,-4.7908,-4.7782,-4.6828,-4.6326,-4.6326,-4.6301,-4.6024,-4.5447,-4.4367,-4.379,-4.3714,-4.3237,-4.2986,-4.2911,-4.2514,-4.2213,-4.2011,-4.1128,-4.0526,-4.04,-3.9973,-3.9722,-3.9572,-3.9145,-3.8944,-3.8768,-3.8266,-3.7965,-3.7965,-3.7437,-3.7161,-3.7111,-3.6732,-3.648,-3.648,-3.6455,-3.6455,-3.648,-3.6505,-3.6505,-3.6531,-3.6958,-3.7161,-3.7161,-3.7538,-3.7764,-3.7889,-3.7789,-3.7437,-3.6707,-3.6606,-3.6556,-3.6531,-3.648,-3.6505,-3.643,-3.6505,-3.643,-3.648,-3.6531,-3.6581,-3.6556,-3.648,-3.6581,-3.6531,-3.648,-3.6455,-3.6455,-3.6405,-3.6405,-3.6405,-3.6405,-3.6405,-3.6405,-3.6405,-3.6405,-3.6405,-3.6405,-3.6405,-3.6405,-3.6355,-3.6006,-3.5629,-3.5157,-3.4675,-3.4048,-3.3683,-3.3467,-3.3326,-3.3386,-3.3598,-3.3852,-3.4047,-3.4215,-5.7474,-5.6771,-5.6018,-5.5365,-5.4813,-5.426,-5.3708,-5.3206,-5.3005,-5.2861,-5.2729,-5.1749,-5.1272,-5.1222,-5.0092,-4.959,-4.959,-4.959,-4.959,-4.9515,-4.8812,-4.8259,-4.7857,-4.7154,-4.6627,-4.6351,-4.6301,-4.6024,-4.5472,-4.4694,-4.4141,-4.374,-4.3263,-4.2986,-4.2936,-4.2785,-4.2564,-4.2213,-4.1785,-4.1229,-4.0601,-4.0325,-4.0049,-3.9697,-3.9521,-3.9396,-3.9396,-3.8868,-3.8567,-3.8567,-3.8015,-3.7713,-3.7688,-3.7538,-3.7412,-3.7412,-3.7412,-3.7412,-3.7412,-3.7412,-3.7412,-3.7437,-3.7588,-3.7713,-3.7739,-3.7889,-3.799,-3.8015,-3.8015,-3.7764,-3.7563,-3.7412,-3.7412,-3.7412,-3.7387,-3.7236,-3.6985,-3.6933,-3.6807,-3.6505,-3.6405,-3.6405,-3.6405,-3.6405,-3.6405,-3.6405,-3.6405,-3.6405,-3.6405,-3.6405,-3.6405,-3.6405,-3.6405,-3.6405,-3.6405,-3.6405,-3.6405,-3.6405,-3.6405,-3.6405,-3.6405,-3.6405,-3.6157,-3.5303,-3.4781,-3.4374,-3.3796,-3.3413,-3.3154,-3.3197,-3.3283,-3.3386,-3.3598,-3.3768,-3.3937,-5.7072,-5.6194,-5.5616,-5.5064,-5.4511,-5.3959,-5.3406,-5.2955,-5.2861,-5.2861,-5.2729,-5.1774,-5.1272,-5.1096,-5.0092,-4.959,-4.959,-4.959,-4.959,-4.954,-4.9012,-4.846,-4.7883,-4.738,-4.6853,-4.6376,-4.6326,-4.61,-4.5723,-4.5171,-4.4618,-4.4066,-4.3514,-4.3137,-4.3011,-4.2986,-4.2785,-4.2514,-4.2313,-4.181,-4.1078,-4.0701,-4.035,-3.9998,-3.9772,-3.9697,-3.9697,-3.9346,-3.9145,-3.912,-3.8592,-3.8191,-3.804,-3.799,-3.799,-3.799,-3.799,-3.799,-3.799,-3.799,-3.799,-3.8015,-3.8191,-3.8291,-3.8291,-3.8442,-3.8542,-3.8542,-3.8542,-3.8542,-3.8542,-3.8542,-3.8417,-3.8115,-3.799,-3.7864,-3.7487,-3.7287,-3.691,-3.6531,-3.6405,-3.6405,-3.6405,-3.6405,-3.6405,-3.6405,-3.6405,-3.6405,-3.6405,-3.6405,-3.6405,-3.6405,-3.6405,-3.6405,-3.6405,-3.6405,-3.6405,-3.6405,-3.6405,-3.6405,-3.6405,-3.6405,-3.6053,-3.5127,-3.4455,-3.4048,-3.3621,-3.3262,-3.3136,-3.3136,-3.3154,-3.3326,-3.3454,-3.3513,-3.3683,-5.6721,-5.6168,-5.5616,-5.5039,-5.4582,-5.3884,-5.3381,-5.298,-5.2861,-5.2861,-5.2779,-5.18,-5.1348,-5.1071,-5.0167,-4.964,-4.959,-4.959,-4.959,-4.954,-4.9088,-4.8535,-4.7958,-4.7456,-4.6878,-4.6326,-4.6326,-4.6301,-4.62,-4.5673,-4.5121,-4.4618,-4.4016,-4.3489,-4.3011,-4.3011,-4.2986,-4.2836,-4.2514,-4.2213,-4.2087,-4.1153,-4.0626,-4.0475,-4.0049,-3.9772,-3.9747,-3.9672,-3.9622,-3.9597,-3.917,-3.8617,-3.8241,-3.8165,-3.809,-3.814,-3.809,-3.8065,-3.809,-3.814,-3.8191,-3.8266,-3.8567,-3.8919,-3.8944,-3.927,-3.9521,-3.9496,-3.9521,-3.9597,-3.9546,-3.9521,-3.917,-3.8266,-3.8216,-3.8191,-3.7965,-3.7538,-3.7033,-3.6606,-3.6505,-3.643,-3.6405,-3.6405,-3.6405,-3.6405,-3.6405,-3.6405,-3.6405,-3.6405,-3.6405,-3.6405,-3.6405,-3.6405,-3.6405,-3.6405,-3.6405,-3.6405,-3.6405,-3.6405,-3.6405,-3.6405,-3.5981,-3.5228,-3.455,-3.4098,-3.3445,-3.3136,-3.3136,-3.3136,-3.3154,-3.3197,-3.3283,-3.3411,-3.3471,-5.6369,-5.6093,-5.5214,-5.4737,-5.4436,-5.3582,-5.308,-5.2929,-5.2861,-5.2861,-5.2779,-5.2176,-5.1649,-5.1172,-5.0469,-4.9941,-4.9615,-4.959,-4.959,-4.9565,-4.9389,-4.9012,-4.8485,-4.7933,-4.7179,-4.6451,-4.6326,-4.6326,-4.62,-4.5748,-4.5372,-4.507,-4.4267,-4.374,-4.3514,-4.3187,-4.2986,-4.2961,-4.2811,-4.2615,-4.2238,-4.1886,-4.1455,-4.1025,-4.0551,-4.0249,-4.0224,-3.9898,-3.9697,-3.9697,-3.9521,-3.9346,-3.9195,-3.917,-3.917,-3.917,-3.917,-3.917,-3.917,-3.9145,-3.912,-3.917,-3.9346,-3.9421,-3.9446,-3.9572,-3.9697,-3.9697,-3.9697,-3.9697,-3.9697,-3.9697,-3.9496,-3.9195,-3.917,-3.8944,-3.8567,-3.809,-3.7538,-3.7109,-3.6983,-3.6832,-3.6531,-3.643,-3.6455,-3.6405,-3.6405,-3.6405,-3.6405,-3.6405,-3.6405,-3.6405,-3.6405,-3.6405,-3.6405,-3.6405,-3.6405,-3.6405,-3.6405,-3.6405,-3.6405,-3.6355,-3.5931,-3.5378,-3.47,-3.4073,-3.3395,-3.3136,-3.3136,-3.3136,-3.3111,-3.3154,-3.3197,-3.3283,-3.3368,-5.6219,-5.6093,-5.5013,-5.4561,-5.4436,-5.3381,-5.2861,-5.2861,-5.2861,-5.2861,-5.276,-5.2352,-5.18,-5.1247,-5.067,-5.0117,-4.964,-4.959,-4.959,-4.959,-4.959,-4.9289,-4.8761,-4.8184,-4.7481,-4.6778,-4.6602,-4.6502,-4.6301,-4.5974,-4.5698,-4.5372,-4.4769,-4.4192,-4.384,-4.3463,-4.3212,-4.3011,-4.2961,-4.2811,-4.2564,-4.2313,-4.2062,-4.1605,-4.1103,-4.0852,-4.0802,-4.03,-3.9898,-3.9747,-3.9697,-3.9697,-3.9697,-3.9672,-3.9697,-3.9697,-3.9697,-3.9672,-3.9697,-3.9622,-3.9697,-3.9697,-3.9697,-3.9697,-3.9697,-3.9697,-3.9697,-3.9697,-3.9697,-3.9697,-3.9697,-3.9697,-3.9697,-3.9697,-3.9647,-3.9446,-3.8994,-3.8567,-3.8115,-3.7663,-3.7487,-3.7211,-3.6883,-3.6707,-3.6606,-3.648,-3.6405,-3.6405,-3.6405,-3.6405,-3.6405,-3.6405,-3.6405,-3.6405,-3.6405,-3.6405,-3.6405,-3.6405,-3.6405,-3.6405,-3.6405,-3.6405,-3.6153,-3.5403,-3.4751,-3.4173,-3.352,-3.3237,-3.3136,-3.3136,-3.3136,-3.3111,-3.3154,-3.3154,-3.3197,-5.6219,-5.6068,-5.5039,-5.4561,-5.4411,-5.3381,-5.2861,-5.2861,-5.2861,-5.2861,-5.2804,-5.2427,-5.19,-5.1322,-5.082,-5.0243,-4.9715,-4.959,-4.959,-4.959,-4.9565,-4.9289,-4.8761,-4.8284,-4.7757,-4.7255,-4.7104,-4.6828,-4.6451,-4.6276,-4.605,-4.5623,-4.5422,-4.497,-4.4192,-4.3915,-4.3589,-4.3162,-4.3087,-4.3037,-4.2911,-4.2564,-4.2288,-4.2238,-4.1681,-4.1326,-4.1304,-4.0852,-4.0275,-3.9798,-3.9697,-3.9697,-3.9697,-3.9697,-3.9697,-3.9697,-3.9697,-3.9697,-3.9697,-3.9697,-3.9697,-3.9697,-3.9697,-3.9697,-3.9697,-3.9697,-3.9697,-3.9697,-3.9697,-3.9697,-3.9697,-3.9697,-3.9697,-3.9697,-3.9697,-3.9446,-3.907,-3.8969,-3.8642,-3.8216,-3.8015,-3.7839,-3.7337,-3.7236,-3.701,-3.6757,-3.6606,-3.6556,-3.6531,-3.6556,-3.643,-3.6405,-3.6405,-3.6405,-3.6405,-3.6405,-3.6405,-3.6405,-3.6405,-3.6405,-3.6405,-3.6405,-3.6182,-3.5479,-3.4906,-3.4324,-3.3796,-3.347,-3.3237,-3.3136,-3.3136,-3.3136,-3.3136,-3.3136,-3.3136,-5.6219,-5.6093,-5.5013,-5.4561,-5.4411,-5.3381,-5.2861,-5.2861,-5.2861,-5.2861,-5.2879,-5.2779,-5.2377,-5.185,-5.1272,-5.0745,-5.0193,-4.9766,-4.959,-4.959,-4.959,-4.9289,-4.8862,-4.8636,-4.8259,-4.7732,-4.7405,-4.6993,-4.6842,-4.6527,-4.625,-4.61,-4.5698,-4.5372,-4.5045,-4.4593,-4.4141,-4.3664,-4.3589,-4.3363,-4.3037,-4.2861,-4.2816,-4.2766,-4.2233,-4.1957,-4.1882,-4.1404,-4.0598,-3.9772,-3.9697,-3.9697,-3.9772,-3.9772,-3.9798,-3.9798,-3.9747,-3.9722,-3.9722,-3.9747,-3.9722,-3.9697,-3.9798,-3.9697,-3.9697,-3.9697,-3.9697,-3.9697,-3.9697,-3.9697,-3.9697,-3.9697,-3.9697,-3.9697,-3.9697,-3.9622,-3.9496,-3.9471,-3.927,-3.8768,-3.8642,-3.8366,-3.7965,-3.7789,-3.7688,-3.7487,-3.7211,-3.7008,-3.6958,-3.6656,-3.6556,-3.643,-3.6405,-3.6405,-3.6405,-3.6405,-3.6405,-3.6405,-3.6405,-3.6405,-3.6405,-3.6405,-3.6081,-3.5558,-3.5307,-3.4806,-3.4248,-3.3771,-3.3495,-3.3294,-3.3194,-3.3262,-3.3162,-3.3136,-3.3136,-5.6219,-5.6118,-5.5013,-5.4561,-5.4411,-5.3406,-5.2861,-5.2861,-5.2861,-5.2861,-5.2861,-5.2861,-5.2628,-5.2076,-5.1523,-5.0946,-5.0393,-4.9841,-4.9615,-4.959,-4.959,-4.9414,-4.9188,-4.9113,-4.8812,-4.8284,-4.7958,-4.7556,-4.7093,-4.6803,-4.6552,-4.6276,-4.5999,-4.5723,-4.5422,-4.5171,-4.4719,-4.4217,-4.394,-4.3614,-4.3363,-4.3087,-4.2986,-4.2936,-4.269,-4.2489,-4.2213,-4.1831,-4.1254,-4.0601,-4.04,-4.0375,-4.0375,-4.0375,-4.0375,-4.0375,-4.0375,-4.04,-4.0375,-4.04,-4.04,-4.04,-4.0375,-4.0249,-4.0124,-4.0023,-3.9998,-3.9722,-3.9697,-3.9697,-3.9697,-3.9697,-3.9697,-3.9697,-3.9697,-3.9697,-3.9697,-3.9672,-3.9546,-3.932,-3.9195,-3.9045,-3.8442,-3.8366,-3.8241,-3.8015,-3.7688,-3.7563,-3.7487,-3.701,-3.6732,-3.6732,-3.6581,-3.6531,-3.6505,-3.648,-3.643,-3.643,-3.6405,-3.6405,-3.6405,-3.6405,-3.6254,-3.5931,-3.5658,-3.5332,-3.4801,-3.4274,-3.3972,-3.3771,-3.3545,-3.3388,-3.3312,-3.3237,-3.3237,-5.6219,-5.6118,-5.5013,-5.4561,-5.4411,-5.3406,-5.2861,-5.2861,-5.2861,-5.2861,-5.2861,-5.2861,-5.2678,-5.2151,-5.1724,-5.1122,-5.0619,-5.0067,-4.9715,-4.964,-4.959,-4.954,-4.9515,-4.949,-4.9264,-4.8862,-4.8812,-4.8209,-4.7631,-4.733,-4.6903,-4.6577,-4.6426,-4.61,-4.5773,-4.5573,-4.5246,-4.4744,-4.4367,-4.4091,-4.384,-4.3438,-4.3187,-4.3137,-4.2961,-4.274,-4.2464,-4.2263,-4.1982,-4.1476,-4.1351,-4.1175,-4.12,-4.125,-4.1225,-4.1175,-4.11,-4.1125,-4.1225,-4.1125,-4.12,-4.115,-4.1175,-4.11,-4.0674,-4.0601,-4.045,-4.0099,-3.9873,-3.9948,-3.9848,-3.9823,-3.9772,-3.9747,-3.9697,-3.9697,-3.9697,-3.9697,-3.9697,-3.9697,-3.9672,-3.9421,-3.9145,-3.8969,-3.8844,-3.8668,-3.8341,-3.814,-3.7965,-3.7613,-3.7362,-3.7262,-3.7033,-3.6681,-3.6606,-3.6556,-3.6505,-3.6455,-3.643,-3.6405,-3.6405,-3.6405,-3.6405,-3.6279,-3.6006,-3.5755,-3.5357,-3.4906,-3.4575,-3.4248,-3.4022,-3.3746,-3.3495,-3.3445,-3.3395,-5.6219,-5.6118,-5.5013,-5.4561,-5.4386,-5.3406,-5.2861,-5.2861,-5.2861,-5.2861,-5.2861,-5.2861,-5.2785,-5.2703,-5.2151,-5.185,-5.1498,-5.067,-5.0042,-4.9615,-4.959,-4.959,-4.959,-4.959,-4.954,-4.9314,-4.8962,-4.8636,-4.8335,-4.7883,-4.7481,-4.7029,-4.6878,-4.6677,-4.6225,-4.6075,-4.5874,-4.5372,-4.5121,-4.4819,-4.4392,-4.3915,-4.3614,-4.3589,-4.3237,-4.2961,-4.2836,-4.2866,-4.2735,-4.2459,-4.1882,-4.1426,-4.1401,-4.1376,-4.1401,-4.1401,-4.1351,-4.1326,-4.13,-4.1376,-4.13,-4.1401,-4.1426,-4.125,-4.115,-4.1125,-4.105,-4.0924,-4.0978,-4.0701,-4.04,-4.035,-4.0174,-3.9948,-3.9823,-3.9772,-3.9697,-3.9697,-3.9697,-3.9697,-3.9697,-3.9647,-3.9521,-3.9471,-3.9346,-3.9245,-3.9019,-3.8743,-3.8467,-3.8165,-3.799,-3.7839,-3.7538,-3.7211,-3.7109,-3.7008,-3.6857,-3.6732,-3.6606,-3.643,-3.643,-3.6405,-3.6405,-3.6405,-3.6355,-3.6031,-3.5708,-3.5533,-3.5157,-3.4851,-3.4525,-3.4324,-3.4123,-3.3922,-3.3721,-5.6219,-5.6093,-5.5013,-5.4561,-5.4386,-5.3406,-5.2861,-5.2861,-5.2861,-5.2861,-5.2861,-5.2861,-5.2861,-5.281,-5.2377,-5.2101,-5.185,-5.0946,-5.0268,-4.9967,-4.9766,-4.959,-4.959,-4.959,-4.959,-4.954,-4.9314,-4.9063,-4.8736,-4.846,-4.8033,-4.7506,-4.7218,-4.6943,-4.6677,-4.6451,-4.615,-4.5874,-4.5598,-4.5321,-4.4995,-4.4493,-4.4192,-4.4091,-4.3664,-4.3363,-4.3363,-4.3087,-4.2986,-4.2836,-4.2434,-4.2108,-4.2108,-4.2108,-4.2108,-4.2108,-4.2108,-4.2108,-4.2108,-4.2108,-4.2133,-4.2082,-4.2108,-4.1932,-4.1806,-4.1731,-4.1555,-4.1351,-4.1225,-4.1125,-4.0953,-4.0902,-4.0701,-4.0576,-4.045,-4.035,-4.0099,-3.9873,-3.9697,-3.9697,-3.9697,-3.9697,-3.9697,-3.9697,-3.9672,-3.9471,-3.9471,-3.922,-3.9094,-3.8818,-3.8542,-3.8341,-3.809,-3.7839,-3.7638,-3.7487,-3.7287,-3.7086,-3.6885,-3.6681,-3.648,-3.6455,-3.6405,-3.6405,-3.6405,-3.6355,-3.6056,-3.5906,-3.5683,-3.5307,-3.5031,-3.4977,-3.4776,-3.4449,-3.4299,-5.6219,-5.6118,-5.5039,-5.4561,-5.4386,-5.3406,-5.2861,-5.2861,-5.2861,-5.2861,-5.2861,-5.2861,-5.2861,-5.2829,-5.2477,-5.2226,-5.1875,-5.1322,-5.077,-5.0519,-5.0218,-4.9967,-4.9866,-4.9816,-4.9715,-4.9615,-4.954,-4.9289,-4.9038,-4.8862,-4.8586,-4.8083,-4.7657,-4.7431,-4.7205,-4.6728,-4.6476,-4.6401,-4.5949,-4.5673,-4.5522,-4.5045,-4.4744,-4.4468,-4.4192,-4.394,-4.384,-4.3589,-4.3313,-4.3237,-4.3237,-4.3237,-4.3187,-4.3011,-4.2986,-4.2936,-4.2836,-4.2811,-4.276,-4.2861,-4.2886,-4.2986,-4.2936,-4.2791,-4.2439,-4.2313,-4.2108,-4.1856,-4.1677,-4.1626,-4.1505,-4.1455,-4.1404,-4.1225,-4.1225,-4.105,-4.0648,-4.0199,-4.0049,-3.9697,-3.9697,-3.9697,-3.9697,-3.9697,-3.9697,-3.9697,-3.9697,-3.9672,-3.9521,-3.9396,-3.9094,-3.8994,-3.8768,-3.8467,-3.8241,-3.7864,-3.7688,-3.7563,-3.7312,-3.7059,-3.6757,-3.6707,-3.6707,-3.6455,-3.6405,-3.6355,-3.6307,-3.6207,-3.5981,-3.5683,-3.5608,-3.5579,-3.5303,-3.4906,-3.4831,-5.6219,-5.6118,-5.5013,-5.4561,-5.4386,-5.3406,-5.2861,-5.2861,-5.2861,-5.2861,-5.2861,-5.2861,-5.2861,-5.281,-5.281,-5.2553,-5.2151,-5.1749,-5.1473,-5.1172,-5.0921,-5.0695,-5.0318,-5.0268,-5.0067,-4.969,-4.964,-4.9565,-4.9439,-4.9439,-4.9088,-4.8711,-4.846,-4.8234,-4.7732,-4.728,-4.6954,-4.6828,-4.6426,-4.6175,-4.5974,-4.5623,-4.5146,-4.4819,-4.4593,-4.4518,-4.4468,-4.4392,-4.4342,-4.4342,-4.4342,-4.4317,-4.4091,-4.3489,-4.3162,-4.3137,-4.3137,-4.3187,-4.3087,-4.3037,-4.2986,-4.2986,-4.2986,-4.2986,-4.2836,-4.2866,-4.266,-4.266,-4.2534,-4.2484,-4.2137,-4.2032,-4.1781,-4.1555,-4.1401,-4.1326,-4.1175,-4.1028,-4.0626,-4.0074,-3.9873,-3.9697,-3.9697,-3.9697,-3.9697,-3.9697,-3.9697,-3.9697,-3.9622,-3.9597,-3.9521,-3.9496,-3.9521,-3.917,-3.8869,-3.8341,-3.804,-3.8015,-3.7814,-3.7588,-3.7312,-3.7184,-3.7033,-3.6883,-3.6606,-3.6405,-3.6405,-3.6405,-3.6329,-3.6056,-3.6107,-3.6157,-3.5855,-3.5529,-3.5382,-5.6219,-5.6093,-5.5013,-5.4561,-5.4361,-5.3406,-5.2861,-5.2861,-5.2861,-5.2861,-5.2861,-5.2861,-5.2861,-5.2861,-5.2861,-5.2754,-5.2528,-5.2201,-5.1975,-5.1699,-5.1423,-5.1172,-5.087,-5.087,-5.072,-5.0444,-5.0193,-4.9841,-4.9615,-4.959,-4.9439,-4.9213,-4.8937,-4.8611,-4.8309,-4.7807,-4.7431,-4.7154,-4.6878,-4.6577,-4.6351,-4.5999,-4.5723,-4.5522,-4.5196,-4.507,-4.502,-4.4719,-4.4618,-4.4593,-4.4593,-4.4618,-4.4468,-4.4242,-4.3815,-4.384,-4.379,-4.3664,-4.3463,-4.3388,-4.3313,-4.3011,-4.3011,-4.2986,-4.2986,-4.2961,-4.3011,-4.2986,-4.2986,-4.2942,-4.261,-4.2615,-4.2459,-4.2283,-4.2158,-4.2007,-4.1856,-4.1781,-4.1254,-4.0601,-4.04,-4.0149,-3.9697,-3.9697,-3.9697,-3.9697,-3.9697,-3.9697,-3.9697,-3.9697,-3.9697,-3.9697,-3.9672,-3.9521,-3.9245,-3.8944,-3.8542,-3.8467,-3.8391,-3.814,-3.7889,-3.7663,-3.7563,-3.7437,-3.7134,-3.6656,-3.643,-3.643,-3.643,-3.6405,-3.6355,-3.6304,-3.6257,-3.6157,-3.5981,-5.6219,-5.6118,-5.5039,-5.4561,-5.4386,-5.3406,-5.2861,-5.2861,-5.2861,-5.2861,-5.2861,-5.2861,-5.2861,-5.2861,-5.2861,-5.2836,-5.2879,-5.2452,-5.2302,-5.2226,-5.19,-5.1624,-5.1448,-5.1423,-5.1348,-5.1046,-5.0795,-5.0293,-4.9866,-4.9665,-4.959,-4.9439,-4.9088,-4.8937,-4.8812,-4.836,-4.7857,-4.7581,-4.7244,-4.7004,-4.6602,-4.6376,-4.6326,-4.6301,-4.5874,-4.5648,-4.5598,-4.5321,-4.5121,-4.5095,-4.5045,-4.4995,-4.497,-4.497,-4.497,-4.4945,-4.4769,-4.4392,-4.4116,-4.3966,-4.3815,-4.3539,-4.3363,-4.3338,-4.3313,-4.3338,-4.3137,-4.3011,-4.2986,-4.2986,-4.2911,-4.2961,-4.2936,-4.2911,-4.2861,-4.2866,-4.2539,-4.2313,-4.2032,-4.1505,-4.1103,-4.0727,-4.04,-3.9998,-4.0049,-3.9898,-3.9898,-3.9697,-3.9697,-3.9697,-3.9697,-3.9697,-3.9697,-3.9697,-3.9597,-3.9546,-3.922,-3.9044,-3.8969,-3.8793,-3.8492,-3.8191,-3.809,-3.7914,-3.7487,-3.7084,-3.6782,-3.648,-3.643,-3.6405,-3.6405,-3.6405,-3.638,-3.6355,-3.6207,-5.6219,-5.6118,-5.5013,-5.4561,-5.4411,-5.3381,-5.2861,-5.2861,-5.2861,-5.2861,-5.2861,-5.2861,-5.2861,-5.2861,-5.2861,-5.2861,-5.281,-5.2829,-5.2729,-5.2678,-5.2603,-5.2327,-5.2051,-5.2026,-5.18,-5.1523,-5.1297,-5.0845,-5.0393,-4.9941,-4.9615,-4.954,-4.9515,-4.9464,-4.9314,-4.8912,-4.8661,-4.8485,-4.8033,-4.7531,-4.7079,-4.6627,-4.6451,-4.6326,-4.6276,-4.6175,-4.6125,-4.5949,-4.5949,-4.5974,-4.605,-4.6075,-4.61,-4.61,-4.61,-4.5824,-4.5296,-4.4593,-4.4543,-4.4543,-4.4443,-4.4267,-4.4267,-4.4392,-4.4192,-4.3865,-4.3514,-4.3011,-4.3011,-4.2986,-4.3011,-4.2986,-4.2986,-4.2986,-4.2961,-4.2961,-4.2811,-4.269,-4.2434,-4.2283,-4.1831,-4.158,-4.1304,-4.0827,-4.04,-4.0249,-4.0074,-3.9898,-3.9722,-3.9747,-3.9697,-3.9697,-3.9697,-3.9697,-3.9697,-3.9697,-3.9622,-3.9471,-3.9396,-3.932,-3.9044,-3.8718,-3.8492,-3.8266,-3.7889,-3.7613,-3.741,-3.7084,-3.6631,-3.6455,-3.6505,-3.648,-3.6405,-3.6405,-3.6405,-5.6219,-5.6118,-5.5013,-5.4561,-5.4436,-5.3381,-5.2861,-5.2861,-5.2861,-5.2861,-5.2861,-5.2861,-5.2861,-5.2861,-5.2861,-5.2861,-5.2861,-5.2861,-5.2861,-5.2861,-5.2836,-5.2804,-5.2628,-5.2578,-5.2377,-5.2151,-5.19,-5.1699,-5.1147,-5.0494,-4.9941,-4.964,-4.9615,-4.9565,-4.959,-4.9364,-4.9063,-4.8686,-4.8209,-4.7807,-4.7556,-4.733,-4.7054,-4.6803,-4.6778,-4.6627,-4.6426,-4.6326,-4.6326,-4.6326,-4.6326,-4.6301,-4.6301,-4.6301,-4.6301,-4.625,-4.5899,-4.5472,-4.5171,-4.5121,-4.497,-4.4719,-4.4644,-4.4568,-4.4568,-4.4418,-4.4041,-4.3514,-4.3463,-4.3338,-4.3087,-4.2986,-4.2986,-4.2986,-4.3011,-4.2986,-4.2986,-4.2961,-4.2866,-4.271,-4.2585,-4.2308,-4.1982,-4.1505,-4.1078,-4.0902,-4.0727,-4.0551,-4.0174,-3.9873,-3.9798,-3.9697,-3.9697,-3.9697,-3.9697,-3.9697,-3.9697,-3.9597,-3.9597,-3.9521,-3.9471,-3.9245,-3.9019,-3.8868,-3.8668,-3.8366,-3.814,-3.7586,-3.7008,-3.6782,-3.6631,-3.6606,-3.6581,-3.6405,-3.6405,-5.6018,-5.5917,-5.4963,-5.4557,-5.426,-5.3331,-5.2861,-5.2861,-5.2861,-5.2861,-5.2861,-5.2861,-5.2861,-5.2861,-5.2861,-5.2861,-5.2861,-5.2861,-5.2861,-5.2861,-5.2861,-5.2861,-5.2785,-5.2879,-5.2879,-5.2861,-5.2503,-5.2176,-5.1825,-5.1272,-5.0569,-4.9841,-4.9891,-4.9741,-4.9615,-4.954,-4.9364,-4.9038,-4.8485,-4.8184,-4.8083,-4.7933,-4.7657,-4.7431,-4.728,-4.7129,-4.6778,-4.6753,-4.6753,-4.6778,-4.6627,-4.6602,-4.6577,-4.6426,-4.6326,-4.6301,-4.615,-4.6024,-4.5799,-4.5648,-4.5447,-4.5196,-4.4995,-4.5121,-4.4895,-4.4819,-4.4618,-4.4066,-4.4016,-4.379,-4.3489,-4.3338,-4.3263,-4.3212,-4.3087,-4.3037,-4.2986,-4.3037,-4.3067,-4.2886,-4.2811,-4.2861,-4.2534,-4.2133,-4.1806,-4.158,-4.1379,-4.11,-4.0777,-4.03,-4.0149,-4.0099,-4.0023,-3.9948,-3.9747,-3.9722,-3.9722,-3.9747,-3.9747,-3.9672,-3.9597,-3.9597,-3.9471,-3.9371,-3.927,-3.9145,-3.8843,-3.8065,-3.7387,-3.7312,-3.7186,-3.6933,-3.6782,-3.6581,-3.643,-5.544,-5.539,-5.4787,-5.4235,-5.3758,-5.3155,-5.2861,-5.2861,-5.2861,-5.2861,-5.2861,-5.2861,-5.2861,-5.2861,-5.2861,-5.2861,-5.2861,-5.2861,-5.2861,-5.2861,-5.2861,-5.2861,-5.2861,-5.2861,-5.2861,-5.2861,-5.2754,-5.2528,-5.2251,-5.2076,-5.1272,-5.0519,-5.0318,-5.0017,-4.9766,-4.964,-4.959,-4.9314,-4.8937,-4.8736,-4.8586,-4.8335,-4.7983,-4.7908,-4.7857,-4.7832,-4.7782,-4.7657,-4.7581,-4.7556,-4.7255,-4.7079,-4.7004,-4.6753,-4.6602,-4.6602,-4.6577,-4.6476,-4.6326,-4.6175,-4.62,-4.6175,-4.605,-4.5799,-4.5472,-4.5422,-4.5146,-4.4694,-4.4593,-4.4493,-4.4292,-4.4091,-4.379,-4.3689,-4.3539,-4.3313,-4.3263,-4.3137,-4.3112,-4.3011,-4.2986,-4.2986,-4.2986,-4.2534,-4.2359,-4.2133,-4.1706,-4.148,-4.1379,-4.1003,-4.0777,-4.0651,-4.0526,-4.03,-3.9873,-3.9873,-4.0099,-4.0023,-3.9948,-3.9823,-3.9672,-3.9697,-3.9697,-3.9647,-3.9496,-3.9546,-3.9496,-3.8768,-3.8216,-3.8015,-3.7789,-3.7412,-3.7086,-3.6908,-3.6707,-5.5189,-5.4838,-5.4285,-5.3909,-5.3658,-5.313,-5.2861,-5.2861,-5.2861,-5.2861,-5.2861,-5.2861,-5.2861,-5.2861,-5.2861,-5.2861,-5.2861,-5.2861,-5.2861,-5.2861,-5.2861,-5.2861,-5.2861,-5.2861,-5.2861,-5.2861,-5.2929,-5.2879,-5.2653,-5.2553,-5.2176,-5.1523,-5.0845,-5.0393,-5.0092,-4.9791,-4.964,-4.9565,-4.9414,-4.9289,-4.9238,-4.9113,-4.8786,-4.846,-4.8435,-4.8209,-4.7958,-4.7908,-4.7908,-4.7883,-4.7732,-4.7657,-4.7581,-4.733,-4.723,-4.7205,-4.7179,-4.7054,-4.6753,-4.6527,-4.6326,-4.6326,-4.6276,-4.62,-4.5949,-4.5974,-4.5698,-4.5372,-4.5146,-4.5095,-4.4618,-4.4443,-4.4292,-4.4242,-4.4066,-4.3765,-4.3614,-4.3514,-4.3388,-4.3363,-4.3137,-4.2986,-4.2986,-4.2936,-4.2811,-4.266,-4.2208,-4.1831,-4.1781,-4.1656,-4.1404,-4.1178,-4.1053,-4.0927,-4.0551,-4.0526,-4.0551,-4.0375,-4.0199,-4.0049,-3.9923,-3.9697,-3.9697,-3.9697,-3.9697,-3.9672,-3.9521,-3.9295,-3.8969,-3.8668,-3.8291,-3.7889,-3.7538,-3.7236,-3.7036,-5.4813,-5.426,-5.3708,-5.3482,-5.3406,-5.308,-5.2861,-5.2861,-5.2861,-5.2861,-5.2861,-5.2861,-5.2861,-5.2861,-5.2861,-5.2861,-5.2861,-5.2861,-5.2861,-5.2861,-5.2861,-5.2861,-5.2861,-5.2861,-5.2861,-5.2861,-5.2861,-5.2836,-5.2879,-5.2861,-5.2653,-5.2126,-5.1448,-5.0996,-5.0569,-5.0142,-4.9766,-4.964,-4.959,-4.959,-4.9565,-4.954,-4.9439,-4.9038,-4.9012,-4.8887,-4.8636,-4.8586,-4.8535,-4.846,-4.8309,-4.8184,-4.8109,-4.8033,-4.7933,-4.7933,-4.7883,-4.7732,-4.733,-4.6728,-4.6351,-4.6326,-4.6301,-4.6301,-4.6326,-4.6326,-4.6024,-4.5824,-4.5723,-4.5547,-4.507,-4.5045,-4.492,-4.4844,-4.4518,-4.4242,-4.4141,-4.4041,-4.3865,-4.374,-4.3489,-4.3288,-4.3187,-4.3187,-4.2986,-4.2886,-4.266,-4.2409,-4.2384,-4.2208,-4.1957,-4.1756,-4.158,-4.1455,-4.1275,-4.1153,-4.0978,-4.0849,-4.0701,-4.0425,-4.0249,-3.9998,-3.9747,-3.9697,-3.9697,-3.9697,-3.9597,-3.9446,-3.932,-3.9195,-3.8768,-3.8341,-3.8165,-3.7864,-3.7588,-5.426,-5.3683,-5.3181,-5.2911,-5.3005,-5.2886,-5.2861,-5.2861,-5.2861,-5.2861,-5.2861,-5.2861,-5.2861,-5.2861,-5.2861,-5.2861,-5.2861,-5.2861,-5.2861,-5.2861,-5.2861,-5.2861,-5.2861,-5.2861,-5.2861,-5.2861,-5.2861,-5.2861,-5.2861,-5.2861,-5.2854,-5.2729,-5.2176,-5.1649,-5.1247,-5.067,-5.0117,-4.969,-4.9665,-4.959,-4.959,-4.959,-4.9515,-4.9464,-4.9439,-4.9314,-4.9264,-4.9213,-4.9213,-4.9188,-4.8912,-4.8761,-4.8736,-4.8335,-4.8159,-4.8109,-4.8083,-4.7983,-4.7832,-4.6903,-4.6577,-4.6527,-4.6627,-4.6476,-4.6376,-4.6326,-4.6301,-4.61,-4.615,-4.62,-4.6024,-4.5799,-4.5573,-4.5372,-4.507,-4.4819,-4.4719,-4.4593,-4.4443,-4.4166,-4.394,-4.374,-4.3589,-4.3413,-4.3162,-4.3037,-4.2986,-4.2936,-4.2836,-4.2685,-4.2409,-4.2308,-4.2133,-4.2032,-4.1882,-4.1551,-4.1376,-4.13,-4.1175,-4.1003,-4.0676,-4.04,-4.0149,-3.9848,-3.9697,-3.9697,-3.9697,-3.9672,-3.9546,-3.9396,-3.917,-3.8843,-3.8693,-3.8492,-3.8165,-5.3884,-5.3658,-5.313,-5.2861,-5.2861,-5.2861,-5.2861,-5.2861,-5.2861,-5.2861,-5.2861,-5.2861,-5.2861,-5.2861,-5.2861,-5.2861,-5.2861,-5.2861,-5.2861,-5.2861,-5.2861,-5.2861,-5.2861,-5.2861,-5.2861,-5.2861,-5.2861,-5.2861,-5.2861,-5.2861,-5.2861,-5.276,-5.2653,-5.2151,-5.1373,-5.0745,-5.0268,-5.0092,-4.9841,-4.959,-4.9615,-4.9615,-4.959,-4.959,-4.959,-4.959,-4.959,-4.959,-4.959,-4.959,-4.9289,-4.9264,-4.9264,-4.8937,-4.8962,-4.8987,-4.8987,-4.8837,-4.846,-4.7807,-4.7431,-4.728,-4.7029,-4.6878,-4.6853,-4.6476,-4.6376,-4.6351,-4.6401,-4.6401,-4.62,-4.615,-4.6024,-4.6024,-4.5799,-4.5547,-4.5397,-4.5246,-4.507,-4.4644,-4.4342,-4.4292,-4.4166,-4.389,-4.3614,-4.3413,-4.3388,-4.3087,-4.2936,-4.2936,-4.276,-4.276,-4.2685,-4.261,-4.2459,-4.2183,-4.1982,-4.1907,-4.1781,-4.1605,-4.1279,-4.0902,-4.0576,-4.0325,-3.9998,-3.9697,-3.9697,-3.9697,-3.9697,-3.9572,-3.9371,-3.9295,-3.922,-3.8994,-3.8718,-5.3582,-5.3406,-5.308,-5.2861,-5.2861,-5.2861,-5.2861,-5.2861,-5.2861,-5.2861,-5.2861,-5.2861,-5.2861,-5.2861,-5.2861,-5.2861,-5.2861,-5.2861,-5.2861,-5.2861,-5.2861,-5.2861,-5.2861,-5.2861,-5.2861,-5.2861,-5.2861,-5.2861,-5.2861,-5.2861,-5.2861,-5.2861,-5.2861,-5.2553,-5.19,-5.1448,-5.0946,-5.0695,-5.0293,-4.9941,-4.9866,-4.9766,-4.959,-4.959,-4.959,-4.959,-4.959,-4.959,-4.959,-4.959,-4.959,-4.959,-4.959,-4.959,-4.959,-4.959,-4.9565,-4.9364,-4.9012,-4.8786,-4.851,-4.8485,-4.7832,-4.7456,-4.738,-4.7129,-4.7004,-4.6903,-4.6702,-4.6627,-4.6602,-4.6577,-4.6376,-4.6376,-4.625,-4.5999,-4.5899,-4.5723,-4.5673,-4.5246,-4.4945,-4.4869,-4.4694,-4.4418,-4.4116,-4.394,-4.3815,-4.3463,-4.3112,-4.3062,-4.3037,-4.2961,-4.2961,-4.2836,-4.2811,-4.2785,-4.261,-4.2514,-4.2363,-4.2158,-4.1856,-4.148,-4.1153,-4.0777,-4.04,-4.0049,-3.9772,-3.9697,-3.9697,-3.9697,-3.9622,-3.9622,-3.9697,-3.9446,-3.9145,-5.3381,-5.2886,-5.2861,-5.2861,-5.2861,-5.2861,-5.2861,-5.2861,-5.2861,-5.2861,-5.2861,-5.2861,-5.2861,-5.2861,-5.2861,-5.2861,-5.2861,-5.2861,-5.2861,-5.2861,-5.2861,-5.2861,-5.2861,-5.2861,-5.2861,-5.2861,-5.2861,-5.2861,-5.2861,-5.2861,-5.2861,-5.2861,-5.2861,-5.2779,-5.2528,-5.2226,-5.1724,-5.1272,-5.077,-5.0494,-5.0393,-5.0067,-4.9891,-4.9841,-4.9766,-4.969,-4.964,-4.959,-4.959,-4.959,-4.959,-4.959,-4.959,-4.959,-4.959,-4.959,-4.959,-4.954,-4.949,-4.9364,-4.9389,-4.9163,-4.856,-4.8134,-4.7883,-4.7757,-4.7581,-4.7481,-4.733,-4.7168,-4.7093,-4.6853,-4.6552,-4.6502,-4.6451,-4.6326,-4.625,-4.62,-4.62,-4.5949,-4.5648,-4.5447,-4.5095,-4.4819,-4.4644,-4.4543,-4.4342,-4.3966,-4.3614,-4.3237,-4.3162,-4.2986,-4.2986,-4.2986,-4.2986,-4.2986,-4.2936,-4.274,-4.2791,-4.261,-4.2389,-4.2087,-4.1681,-4.1279,-4.0802,-4.0425,-4.0099,-3.9848,-3.9697,-3.9697,-3.9697,-3.9697,-3.9697,-3.9697,-3.9471,-5.3055,-5.2929,-5.2861,-5.2861,-5.2861,-5.2861,-5.2861,-5.2861,-5.2861,-5.2861,-5.2861,-5.2861,-5.2861,-5.2861,-5.2861,-5.2861,-5.2861,-5.2861,-5.2861,-5.2861,-5.2861,-5.2861,-5.2861,-5.2861,-5.2861,-5.2861,-5.2861,-5.2861,-5.2861,-5.2861,-5.2861,-5.2861,-5.2861,-5.2861,-5.281,-5.2754,-5.2327,-5.1875,-5.1322,-5.1096,-5.0996,-5.077,-5.0494,-5.0268,-5.0193,-5.0042,-4.9741,-4.9665,-4.964,-4.959,-4.959,-4.959,-4.959,-4.959,-4.959,-4.959,-4.959,-4.959,-4.959,-4.959,-4.959,-4.959,-4.9188,-4.8937,-4.8586,-4.8259,-4.8058,-4.8033,-4.7908,-4.7757,-4.7657,-4.7405,-4.7104,-4.6928,-4.6878,-4.6803,-4.6702,-4.6502,-4.6476,-4.625,-4.5974,-4.5899,-4.5547,-4.5347,-4.5221,-4.5121,-4.492,-4.4543,-4.4166,-4.379,-4.3514,-4.3338,-4.3112,-4.3162,-4.3037,-4.3011,-4.3011,-4.2961,-4.2961,-4.2936,-4.271,-4.2409,-4.2213,-4.1756,-4.1254,-4.0802,-4.04,-4.0149,-3.9873,-3.9722,-3.9697,-3.9697,-3.9697,-3.9697,-3.9697,-5.2861,-5.2861,-5.2861,-5.2861,-5.2861,-5.2861,-5.2861,-5.2861,-5.2861,-5.2861,-5.2861,-5.2861,-5.2861,-5.2861,-5.2861,-5.2861,-5.2861,-5.2861,-5.2861,-5.2861,-5.2861,-5.2861,-5.2861,-5.2861,-5.2861,-5.2861,-5.2861,-5.2861,-5.2861,-5.2861,-5.2861,-5.2861,-5.2861,-5.2861,-5.2836,-5.2879,-5.2754,-5.2352,-5.1975,-5.1699,-5.1548,-5.1423,-5.1046,-5.0845,-5.077,-5.0444,-4.9992,-4.9916,-4.9841,-4.9665,-4.959,-4.959,-4.959,-4.959,-4.959,-4.959,-4.959,-4.959,-4.959,-4.959,-4.959,-4.959,-4.959,-4.9414,-4.9188,-4.8887,-4.8761,-4.8686,-4.846,-4.8259,-4.8159,-4.8033,-4.7757,-4.7481,-4.738,-4.7305,-4.7054,-4.6803,-4.6602,-4.6376,-4.6276,-4.6276,-4.6125,-4.5924,-4.5799,-4.5748,-4.5623,-4.5321,-4.4869,-4.4418,-4.4166,-4.3966,-4.3614,-4.3388,-4.3263,-4.3162,-4.3062,-4.3037,-4.2986,-4.2961,-4.2911,-4.2785,-4.2539,-4.2082,-4.1656,-4.1204,-4.0752,-4.035,-4.0074,-3.9898,-3.9747,-3.9697,-3.9697,-3.9697,-3.9697,-5.2861,-5.2861,-5.2861,-5.2861,-5.2861,-5.2861,-5.2861,-5.2861,-5.2861,-5.2861,-5.2861,-5.2861,-5.2861,-5.2861,-5.2861,-5.2861,-5.2861,-5.2861,-5.2861,-5.2861,-5.2861,-5.2861,-5.2861,-5.2861,-5.2861,-5.2861,-5.2861,-5.2861,-5.2861,-5.2861,-5.2861,-5.2861,-5.2861,-5.2861,-5.2861,-5.2861,-5.2854,-5.2729,-5.2427,-5.2151,-5.2051,-5.1749,-5.1398,-5.1348,-5.1272,-5.1096,-5.0645,-5.0393,-5.0243,-4.9866,-4.969,-4.9715,-4.9615,-4.959,-4.959,-4.959,-4.959,-4.959,-4.959,-4.959,-4.959,-4.959,-4.959,-4.9565,-4.9414,-4.9339,-4.9213,-4.9163,-4.8962,-4.8837,-4.8761,-4.8611,-4.836,-4.8134,-4.7958,-4.7782,-4.7531,-4.7255,-4.7029,-4.6803,-4.6602,-4.6552,-4.6301,-4.6075,-4.605,-4.6175,-4.6125,-4.5874,-4.5623,-4.5095,-4.4744,-4.4543,-4.4166,-4.384,-4.374,-4.3589,-4.3237,-4.3137,-4.3087,-4.2986,-4.2936,-4.2886,-4.2841,-4.2409,-4.2032,-4.1555,-4.1128,-4.0701,-4.03,-4.0023,-3.9873,-3.9747,-3.9697,-3.9722,-3.9697,-5.2861,-5.2861,-5.2861,-5.2861,-5.2861,-5.2861,-5.2861,-5.2861,-5.2861,-5.2861,-5.2861,-5.2861,-5.2861,-5.2861,-5.2861,-5.2861,-5.2861,-5.2861,-5.2861,-5.2861,-5.2861,-5.2861,-5.2861,-5.2861,-5.2861,-5.2861,-5.2861,-5.2861,-5.2861,-5.2861,-5.2861,-5.2861,-5.2861,-5.2861,-5.2861,-5.2861,-5.2836,-5.2904,-5.2779,-5.2628,-5.2578,-5.2553,-5.2402,-5.2076,-5.185,-5.1599,-5.1247,-5.1046,-5.072,-5.0343,-5.0243,-5.0017,-4.964,-4.9615,-4.9615,-4.959,-4.9615,-4.959,-4.959,-4.959,-4.959,-4.959,-4.959,-4.959,-4.959,-4.959,-4.959,-4.954,-4.949,-4.9389,-4.9314,-4.9138,-4.8987,-4.8761,-4.8535,-4.8284,-4.8008,-4.7732,-4.7481,-4.723,-4.7004,-4.6778,-4.6502,-4.6351,-4.6326,-4.6301,-4.6301,-4.62,-4.615,-4.5799,-4.5296,-4.502,-4.4644,-4.4367,-4.4292,-4.4041,-4.3714,-4.3438,-4.3338,-4.3187,-4.3011,-4.2936,-4.2861,-4.2766,-4.2464,-4.1982,-4.1505,-4.0953,-4.0576,-4.035,-4.0049,-3.9923,-3.9798,-3.9772,-3.9722,-5.2861,-5.2861,-5.2861,-5.2861,-5.2861,-5.2861,-5.2861,-5.2861,-5.2861,-5.2861,-5.2861,-5.2861,-5.2861,-5.2861,-5.2861,-5.2861,-5.2861,-5.2861,-5.2861,-5.2861,-5.2861,-5.2861,-5.2861,-5.2861,-5.2861,-5.2861,-5.2861,-5.2861,-5.2861,-5.2861,-5.2861,-5.2861,-5.2861,-5.2861,-5.2861,-5.2861,-5.2861,-5.2861,-5.2861,-5.2861,-5.2861,-5.281,-5.2804,-5.2503,-5.2377,-5.2126,-5.185,-5.1624,-5.1297,-5.0971,-5.082,-5.072,-5.0393,-5.0167,-5.0017,-4.9891,-4.9791,-4.959,-4.964,-4.9665,-4.969,-4.969,-4.964,-4.964,-4.959,-4.959,-4.959,-4.9565,-4.9565,-4.949,-4.949,-4.9364,-4.9339,-4.9188,-4.9088,-4.8912,-4.8611,-4.8309,-4.7983,-4.7606,-4.7481,-4.7431,-4.7154,-4.6878,-4.6803,-4.6677,-4.6627,-4.6376,-4.6376,-4.6401,-4.5924,-4.5522,-4.5171,-4.4995,-4.4945,-4.4618,-4.4217,-4.394,-4.3689,-4.3363,-4.3137,-4.3037,-4.2936,-4.2836,-4.274,-4.2489,-4.1986,-4.143,-4.1128,-4.0927,-4.0526,-4.0124,-3.9998,-3.9848,-3.9772,-5.2861,-5.2861,-5.2861,-5.2861,-5.2861,-5.2861,-5.2861,-5.2861,-5.2861,-5.2861,-5.2861,-5.2861,-5.2861,-5.2861,-5.2861,-5.2861,-5.2861,-5.2861,-5.2861,-5.2861,-5.2861,-5.2861,-5.2861,-5.2861,-5.2861,-5.2861,-5.2861,-5.2861,-5.2861,-5.2861,-5.2861,-5.2861,-5.2861,-5.2861,-5.2861,-5.2861,-5.2861,-5.2861,-5.2861,-5.2861,-5.2861,-5.2861,-5.281,-5.2836,-5.281,-5.2678,-5.2352,-5.2126,-5.19,-5.1548,-5.1272,-5.1122,-5.1021,-5.072,-5.0619,-5.0469,-5.0243,-5.0067,-4.9992,-5.0042,-4.9992,-4.9916,-4.9791,-4.9766,-4.9791,-4.9741,-4.9741,-4.964,-4.964,-4.9615,-4.9615,-4.959,-4.9565,-4.9565,-4.9464,-4.9414,-4.9113,-4.8837,-4.8485,-4.8083,-4.8008,-4.8008,-4.7707,-4.7431,-4.728,-4.7129,-4.6928,-4.6652,-4.6476,-4.6552,-4.6376,-4.605,-4.5748,-4.5623,-4.5573,-4.5171,-4.4744,-4.4568,-4.4267,-4.3714,-4.3288,-4.3137,-4.3011,-4.2961,-4.2811,-4.2715,-4.2514,-4.2087,-4.1781,-4.1505,-4.1028,-4.0576,-4.0275,-4.0124,-3.9873,-5.2861,-5.2861,-5.2861,-5.2861,-5.2861,-5.2861,-5.2861,-5.2861,-5.2861,-5.2861,-5.2861,-5.2861,-5.2861,-5.2861,-5.2861,-5.2861,-5.2861,-5.2861,-5.2861,-5.2861,-5.2861,-5.2861,-5.2861,-5.2861,-5.2861,-5.2861,-5.2861,-5.2861,-5.2861,-5.2861,-5.2861,-5.2861,-5.2861,-5.2861,-5.2861,-5.2861,-5.2861,-5.2861,-5.2861,-5.2861,-5.2861,-5.2861,-5.2861,-5.2861,-5.2861,-5.2854,-5.2779,-5.2779,-5.2452,-5.2,-5.1624,-5.1473,-5.1373,-5.1272,-5.1147,-5.1046,-5.0845,-5.0745,-5.0695,-5.0695,-5.067,-5.0695,-5.0645,-5.0544,-5.0469,-5.0268,-5.0142,-4.9841,-4.9791,-4.9715,-4.969,-4.9615,-4.959,-4.959,-4.954,-4.954,-4.9389,-4.9289,-4.9088,-4.8786,-4.8611,-4.841,-4.8083,-4.7883,-4.7807,-4.7682,-4.7606,-4.733,-4.7004,-4.6903,-4.6828,-4.6577,-4.6326,-4.62,-4.6125,-4.5673,-4.5296,-4.5121,-4.4844,-4.4292,-4.374,-4.3212,-4.3087,-4.3162,-4.3062,-4.2886,-4.2715,-4.2514,-4.2338,-4.1957,-4.153,-4.105,-4.0777,-4.04,-4.0149]},{"header":{"parameterUnit":"m.s-1","parameterCategory":1,"la1":31.0,"la2":29.5877,"lo1":-88.7671,"lo2":-86.6584,"dy":0.0162,"dx":0.0185,"nx":115,"ny":88,"refTime":"2024-04-24T12:00:00:Z","depth":0,"parameterNumber":3,"parameterNumberName":"V-component_of_WINDS"},"data":[0.0,0.0,0.0,0.0,0.0,0.0,0.0,0.0,0.0,0.0,0.0,0.0,0.0,0.0,0.0,0.0,0.0,0.0,0.0,0.0,0.0,0.0,0.0,0.0,0.0,0.0,0.0,0.0,0.0,0.0,0.0,0.0,0.0,0.0,0.0,0.0,0.0,0.0,0.0,0.0,0.0,0.0,0.0,0.0,0.0,0.0,0.0,0.0,0.0,0.0,0.0,0.0,0.0,0.0,0.0,0.0,0.0,0.0,0.0,0.0,0.0,0.0,0.0,0.0,0.0,0.0,0.0,0.0,0.0,0.0,0.0,0.0,0.0,0.0,0.0,0.0,0.0,0.0,0.0,0.0,0.0,0.0,0.0,0.0,0.0,0.0,0.0,0.0,0.0,0.0,0.0,0.0,0.0,0.0,0.0,0.0,0.0,0.0,0.0,0.0,0.0,0.0,0.0,0.0,0.0,0.0,0.0,0.0,0.0,0.0,0.0,0.0,0.0,0.0,0.0,0.0,0.0,0.0,0.0,0.0,0.0,0.0,0.0,0.0,0.0,0.0,0.0,0.0,0.0,0.0,0.0,0.0,0.0,0.0,0.0,0.0,0.0,0.0,0.0,0.0,0.0,0.0,0.0,0.0,0.0,0.0,0.0,0.0,0.0,0.0,0.0,0.0,0.0,0.0,0.0,0.0,0.0,0.0,0.0,0.0,0.0,0.0,0.0,0.0,0.0,0.0,0.0,0.0,0.0,0.0,0.0,0.0,0.0,0.0,0.0,0.0,0.0,0.0,0.0,0.0,0.0,0.0,0.0,0.0,0.0,0.0,0.0,0.0,0.0,0.0,0.0,0.0,0.0,0.0,0.0,0.0,0.0,0.0,0.0,0.0,0.0,0.0,0.0,0.0,0.0,0.0,0.0,0.0,0.0,0.0,0.0,0.0,0.0,0.0,0.0,0.0,0.0,0.0,0.0,0.0,0.0,0.0,0.0,0.0,0.0,0.0,0.0,0.0,0.0,0.0,0.0,0.0,0.0,0.0,0.0,0.0,0.0,0.0,0.0,0.0,0.0,0.0,0.0,0.0,0.0,0.0,0.0,0.0,0.0,0.0,0.0,0.0,0.0,0.0,0.0,0.0,0.0,0.0,0.0,0.0,0.0,0.0,0.0,0.0,0.0,0.0,0.0,0.0,0.0,0.0,0.0,0.0,0.0,0.0,0.0,0.0,0.0,0.0,0.0,0.0,0.0,0.0,0.0,0.0,0.0,0.0,0.0,0.0,0.0,0.0,0.0,0.0,0.0,0.0,0.0,0.0,0.0,0.0,0.0,0.0,0.0,0.0,0.0,0.0,0.0,0.0,0.0,0.0,0.0,0.0,0.0,0.0,0.0,0.0,0.0,0.0,0.0,0.0,0.0,0.0,0.0,0.0,0.0,0.0,0.0,0.0,0.0,0.0,0.0,0.0,0.0,0.0,0.0,0.0,0.0,0.0,0.0,0.0,0.0,0.0,0.0,0.0,0.0,0.0,0.0,0.0,0.0,0.0,0.0,0.0,0.0,0.0,0.0,0.0,0.0,0.0,0.0,0.0,0.0,0.0,0.0,0.0,0.0,0.0,0.0,0.0,0.0,0.0,0.0,0.0,0.0,0.0,0.0,0.0,0.0,0.0,0.0,0.0,0.0,0.0,0.0,0.0,0.0,0.0,0.0,0.0,0.0,0.0,0.0,0.0,0.0,0.0,0.0,0.0,0.0,0.0,0.0,0.0,0.0,0.0,0.0,0.0,0.0,0.0,0.0,0.0,0.0,0.0,0.0,0.0,0.0,0.0,0.0,0.0,0.0,0.0,0.0,0.0,0.0,0.0,0.0,0.0,0.0,0.0,0.0,0.0,0.0,0.0,0.0,0.0,0.0,0.0,0.0,0.0,0.0,0.0,0.0,0.0,0.0,0.0,0.0,0.0,0.0,0.0,0.0,0.0,0.0,0.0,0.0,0.0,0.0,0.0,0.0,0.0,0.0,0.0,0.0,0.0,0.0,0.0,0.0,0.0,0.0,0.0,0.0,0.0,0.0,0.0,0.0,0.0,0.0,0.0,0.0,0.0,0.0,0.0,0.0,0.0,0.0,0.0,0.0,0.0,0.0,0.0,0.0,0.0,0.0,0.0,0.0,0.0,0.0,0.0,0.0,0.0,0.0,0.0,0.0,0.0,0.0,0.0,0.0,0.0,0.0,0.0,0.0,0.0,0.0,0.0,0.0,0.0,0.0,0.0,0.0,0.0,0.0,0.0,0.0,0.0,0.0,0.0,0.0,0.0,0.0,0.0,0.0,0.0,0.0,0.0,0.0,0.0,0.0,0.0,0.0,0.0,0.0,0.0,0.0,0.0,0.0,0.0,0.0,0.0,0.0,0.0,0.0,0.0,0.0,0.0,0.0,0.0,0.0,0.0,0.0,0.0,0.0,0.0,0.0,0.0,0.0,0.0,0.0,0.0,0.0,0.0,0.0,0.0,0.0,0.0,0.0,0.0,0.0,0.0,0.0,0.0,0.0,0.0,0.0,0.0,0.0,0.0,0.0,0.0,0.0,0.0,0.0,0.0,0.0,0.0,0.0,0.0,0.0,0.0,0.0,0.0,0.0,0.0,0.0,0.0,0.0,0.0,0.0,0.0,0.0,0.0,0.0,0.0,0.0,0.0,0.0,0.0,0.0,0.0,0.0,0.0,0.0,0.0,0.0,0.0,0.0,0.0,0.0,0.0,0.0,0.0,0.0,0.0,0.0,0.0,0.0,0.0,0.0,0.0,0.0,0.0,0.0,0.0,0.0,0.0,0.0,0.0,0.0,0.0,0.0,0.0,0.0,0.0,0.0,0.0,0.0,0.0,0.0,0.0,0.0,0.0,0.0,0.0,0.0,0.0,0.0,0.0,0.0,0.0,0.0,0.0,0.0,0.0,0.0,0.0,0.0,0.0,0.0,0.0,0.0,0.0,0.0,0.0,0.0,0.0,0.0,0.0,0.0,0.0,0.0,0.0,0.0,0.0,0.0,0.0,0.0,0.0,0.0,0.0,0.0,0.0,0.0,0.0,0.0,0.0,0.0,0.0,0.0,0.0,0.0,0.0,0.0,0.0,0.0,0.0,0.0,0.0,0.0,0.0,0.0,0.0,0.0,0.0,0.0,0.0,0.0,0.0,0.0,0.0,0.0,0.0,0.0,0.0,0.0,0.0,0.0,0.0,0.0,0.0,0.0,0.0,0.0,0.0,0.0,0.0,0.0,0.0,0.0,0.0,0.0,0.0,0.0,0.0,0.0,0.0,0.0,0.0,0.0,0.0,0.0,0.0,0.0,0.0,0.0,0.0,0.0,0.0,0.0,0.0,0.0,0.0,0.0,0.0,0.0,0.0,0.0,0.0,0.0,0.0,0.0,0.0,0.0,0.0,0.0,0.0,0.0,0.0,0.0,0.0,0.0,0.0,0.0,0.0,0.0,0.0,0.0,0.0,0.0,0.0,0.0,0.0,0.0,0.0,0.0,0.0,0.0,0.0,0.0,0.0,0.0,0.0,0.0,0.0,0.0,0.0,0.0,0.0,0.0,0.0,0.0,0.0,0.0,0.0,0.0,0.0,0.0,0.0,0.0,0.0,0.0,0.0,0.0,0.0,0.0,0.0,0.0,0.0,0.0,0.0,0.0,0.0,0.0,0.0,0.0,0.0,0.0,0.0,0.0,0.0,0.0,0.0,0.0,0.0,0.0,0.0,0.0,0.0,0.0,0.0,0.0,0.0,0.0,0.0,0.0,0.0,0.0,0.0,0.0,0.0,0.0,0.0,0.0,0.0,0.0,0.0,0.0,0.0,0.0,0.0,0.0,0.0,0.0,0.0,0.0,0.0,0.0,0.0,0.0,0.0,0.0,0.0,0.0,0.0,0.0,0.0,0.0,0.0,0.0,0.0,0.0,0.0,0.0,0.0,0.0,0.0,0.0,0.0,0.0,0.0,0.0,0.0,0.0,0.0,0.0,0.0,0.0,0.0,0.0,0.0,0.0,0.0,0.0,0.0,0.0,0.0,0.0,0.0,0.0,0.0,0.0,0.0,0.0,0.0,0.0,0.0,0.0,0.0,0.0,0.0,0.0,0.0,0.0,0.0,0.0,0.0,0.0,0.0,0.0,0.0,0.0,0.0,0.0,0.0,0.0,0.0,0.0,0.0,0.0,0.0,0.0,0.0,0.0,0.0,0.0,0.0,0.0,0.0,0.0,0.0,0.0,0.0,0.0,0.0,2.42,0.0,0.0,0.0,0.0,0.0,0.0,0.0,0.0,0.0,0.0,0.0,0.0,0.0,0.0,0.0,0.0,0.0,0.0,0.0,0.0,0.0,0.0,0.0,0.0,0.0,0.0,0.0,0.0,0.0,0.0,0.0,0.0,0.0,0.0,0.0,0.0,0.0,0.0,0.0,0.0,0.0,0.0,0.0,0.0,0.0,0.0,0.0,0.0,0.0,0.0,0.0,0.0,0.0,0.0,0.0,0.0,0.0,0.0,0.0,0.0,0.0,0.0,0.0,0.0,0.0,0.0,0.0,0.0,0.0,0.0,0.0,0.0,0.0,0.0,0.0,0.0,0.0,0.0,0.0,0.0,0.0,0.0,0.0,0.0,0.0,0.0,0.0,0.0,0.0,0.0,0.0,0.0,0.0,0.0,0.0,0.0,0.0,0.0,0.0,0.0,0.0,0.0,0.0,0.0,0.0,0.0,0.0,0.0,0.0,0.0,2.459,2.459,2.4338,2.42,2.42,0.0,0.0,0.0,0.0,0.0,0.0,0.0,0.0,0.0,0.0,0.0,0.0,0.0,0.0,0.0,0.0,0.0,0.0,0.0,0.0,0.0,0.0,0.0,0.0,0.0,0.0,0.0,0.0,0.0,0.0,0.0,0.0,0.0,0.0,0.0,0.0,0.0,0.0,0.0,0.0,0.0,0.0,0.0,0.0,0.0,0.0,0.0,0.0,0.0,0.0,0.0,0.0,0.0,0.0,0.0,0.0,0.0,0.0,0.0,0.0,0.0,0.0,0.0,0.0,0.0,0.0,0.0,0.0,0.0,0.0,0.0,0.0,0.0,0.0,0.0,0.0,0.0,0.0,0.0,0.0,0.0,0.0,0.0,0.0,0.0,0.0,0.0,0.0,0.0,0.0,0.0,0.0,0.0,0.0,0.0,0.0,0.0,0.0,0.0,0.0,0.0,0.0,0.0,0.0,0.0,0.0,0.0,0.0,0.0,0.0,0.0,0.0,2.4568,2.4328,2.4273,0.0,0.0,0.0,0.0,0.0,0.0,0.0,0.0,0.0,0.0,0.0,0.0,0.0,0.0,0.0,0.0,0.0,0.0,0.0,0.0,0.0,0.0,0.0,0.0,0.0,0.0,0.0,0.0,0.0,0.0,0.0,0.0,0.0,0.0,0.0,0.0,0.0,0.0,0.0,0.0,0.0,0.0,0.0,0.0,0.0,0.0,0.0,0.0,0.0,0.0,0.0,0.0,0.0,0.0,0.0,0.0,0.0,0.0,0.0,0.0,0.0,0.0,0.0,0.0,0.0,0.0,0.0,0.0,0.0,0.0,0.0,0.0,0.0,0.0,0.0,0.0,0.0,0.0,0.0,0.0,0.0,0.0,0.0,0.0,0.0,0.0,0.0,0.0,0.0,0.0,0.0,0.0,0.0,0.0,0.0,0.0,0.0,0.0,0.0,0.0,0.0,0.0,0.0,0.0,0.0,0.0,0.0,0.0,0.0,0.0,2.5417,2.4935,2.4866,0.0,2.45,0.0,0.0,0.0,0.0,0.0,0.0,0.0,0.0,0.0,0.0,0.0,0.0,0.0,0.0,0.0,0.0,0.0,0.0,0.0,0.0,0.0,0.0,0.0,0.0,0.0,0.0,0.0,0.0,0.0,0.0,0.0,0.0,0.0,0.0,0.0,0.0,0.0,0.0,0.0,0.0,0.0,0.0,0.0,0.0,0.0,0.0,0.0,0.0,0.0,0.0,0.0,0.0,0.0,0.0,0.0,0.0,0.0,0.0,0.0,0.0,0.0,0.0,0.0,0.0,0.0,0.0,0.0,0.0,0.0,0.0,0.0,0.0,0.0,0.0,0.0,0.0,0.0,0.0,0.0,0.0,0.0,0.0,0.0,0.0,0.0,0.0,0.0,0.0,0.0,0.0,0.0,0.0,0.0,0.0,0.0,0.0,0.0,0.0,0.0,0.0,0.0,0.0,0.0,0.0,0.0,0.0,0.0,0.0,0.0,0.0,2.6426,2.6193,2.5634,2.5135,0.0,0.0,0.0,0.0,0.0,0.0,0.0,0.0,0.0,0.0,0.0,0.0,0.0,0.0,0.0,0.0,0.0,0.0,0.0,0.0,0.0,0.0,0.0,0.0,0.0,0.0,0.0,0.0,0.0,0.0,0.0,0.0,0.0,0.0,0.0,0.0,0.0,0.0,0.0,0.0,0.0,0.0,0.0,0.0,0.0,0.0,0.0,0.0,0.0,0.0,0.0,0.0,0.0,0.0,0.0,0.0,0.0,0.0,0.0,0.0,0.0,0.0,0.0,0.0,0.0,0.0,0.0,0.0,0.0,0.0,0.0,0.0,0.0,0.0,0.0,0.0,0.0,0.0,0.0,0.0,0.0,0.0,0.0,0.0,0.0,0.0,0.0,0.0,0.0,0.0,0.0,0.0,0.0,0.0,0.0,0.0,0.0,0.0,0.0,0.0,0.0,0.0,0.0,0.0,0.0,0.0,0.0,0.0,0.0,0.0,2.7505,2.7262,2.7074,2.617,2.5499,2.5194,0.0,0.0,0.0,0.0,0.0,0.0,0.0,0.0,0.0,0.0,0.0,0.0,0.0,0.0,0.0,0.0,0.0,0.0,0.0,0.0,0.0,0.0,0.0,0.0,0.0,0.0,0.0,0.0,0.0,0.0,0.0,0.0,0.0,0.0,0.0,0.0,0.0,0.0,0.0,0.0,0.0,0.0,0.0,0.0,0.0,0.0,0.0,0.0,0.0,0.0,0.0,0.0,0.0,0.0,0.0,0.0,0.0,0.0,0.0,0.0,0.0,0.0,0.0,0.0,0.0,0.0,0.0,0.0,0.0,0.0,0.0,0.0,0.0,0.0,0.0,0.0,0.0,0.0,0.0,0.0,0.0,0.0,0.0,0.0,0.0,0.0,0.0,0.0,0.0,0.0,0.0,0.0,0.0,0.0,0.0,0.0,0.0,0.0,0.0,0.0,0.0,0.0,0.0,0.0,0.0,0.0,0.0,0.0,2.7921,2.7857,2.7639,2.7097,2.6283,2.5861,0.0,0.0,0.0,0.0,0.0,0.0,0.0,0.0,0.0,0.0,0.0,0.0,0.0,0.0,0.0,0.0,0.0,0.0,0.0,0.0,0.0,0.0,0.0,0.0,0.0,0.0,0.0,0.0,0.0,0.0,0.0,0.0,0.0,0.0,0.0,0.0,0.0,0.0,0.0,0.0,0.0,0.0,0.0,0.0,0.0,0.0,0.0,0.0,0.0,0.0,0.0,0.0,0.0,0.0,0.0,0.0,0.0,0.0,0.0,0.0,0.0,0.0,0.0,0.0,0.0,0.0,0.0,0.0,0.0,0.0,0.0,0.0,0.0,0.0,0.0,0.0,0.0,0.0,0.0,0.0,0.0,0.0,0.0,0.0,0.0,0.0,0.0,0.0,0.0,0.0,0.0,0.0,0.0,0.0,0.0,0.0,0.0,0.0,0.0,0.0,0.0,0.0,0.0,0.0,0.0,0.0,0.0,0.0,0.0,2.8283,2.8419,2.8234,2.7705,2.7158,2.6773,0.0,0.0,0.0,0.0,0.0,0.0,0.0,0.0,0.0,0.0,0.0,0.0,0.0,0.0,0.0,0.0,0.0,0.0,0.0,0.0,0.0,0.0,0.0,0.0,0.0,0.0,0.0,0.0,0.0,0.0,0.0,0.0,0.0,0.0,0.0,0.0,0.0,0.0,0.0,0.0,0.0,0.0,0.0,0.0,0.0,0.0,0.0,0.0,0.0,0.0,0.0,0.0,0.0,0.0,0.0,0.0,0.0,0.0,0.0,0.0,0.0,0.0,0.0,0.0,0.0,0.0,0.0,0.0,0.0,0.0,0.0,0.0,0.0,0.0,0.0,0.0,0.0,0.0,0.0,0.0,0.0,0.0,0.0,0.0,0.0,0.0,0.0,0.0,0.0,0.0,0.0,0.0,0.0,0.0,0.0,0.0,0.0,0.0,0.0,0.0,0.0,0.0,0.0,0.0,0.0,0.0,0.0,0.0,0.0,2.8859,0.0,2.8836,2.8641,2.8071,2.7545,0.0,0.0,0.0,0.0,0.0,0.0,0.0,0.0,0.0,0.0,0.0,0.0,0.0,0.0,0.0,0.0,0.0,0.0,0.0,0.0,0.0,0.0,0.0,0.0,0.0,0.0,0.0,0.0,0.0,0.0,0.0,0.0,0.0,0.0,0.0,0.0,0.0,0.0,0.0,0.0,0.0,0.0,0.0,0.0,0.0,0.0,0.0,0.0,0.0,0.0,0.0,0.0,0.0,0.0,0.0,0.0,0.0,0.0,0.0,0.0,0.0,0.0,0.0,0.0,0.0,0.0,0.0,0.0,0.0,0.0,0.0,0.0,0.0,0.0,0.0,0.0,0.0,0.0,0.0,0.0,0.0,0.0,0.0,0.0,0.0,0.0,0.0,0.0,0.0,0.0,0.0,0.0,0.0,0.0,0.0,0.0,0.0,0.0,0.0,0.0,0.0,0.0,0.0,0.0,0.0,0.0,0.0,0.0,2.8907,2.9545,2.9307,2.945,2.9958,2.8948,2.8262,0.0,0.0,0.0,0.0,0.0,0.0,0.0,0.0,0.0,0.0,0.0,0.0,0.0,0.0,0.0,0.0,0.0,0.0,0.0,0.0,0.0,0.0,0.0,0.0,0.0,0.0,0.0,0.0,0.0,0.0,0.0,0.0,0.0,0.0,0.0,0.0,0.0,0.0,0.0,0.0,0.0,0.0,0.0,0.0,0.0,0.0,0.0,0.0,0.0,0.0,0.0,0.0,0.0,0.0,0.0,0.0,0.0,0.0,0.0,0.0,0.0,0.0,0.0,0.0,0.0,0.0,0.0,0.0,0.0,0.0,0.0,0.0,0.0,0.0,0.0,0.0,0.0,0.0,0.0,0.0,0.0,0.0,0.0,0.0,0.0,0.0,0.0,0.0,0.0,0.0,0.0,0.0,0.0,0.0,0.0,0.0,0.0,0.0,0.0,0.0,0.0,0.0,0.0,0.0,0.0,0.0,0.0,0.0,0.0,3.0442,3.0595,3.0757,3.0948,3.0159,2.9707,0.0,0.0,0.0,0.0,0.0,0.0,0.0,0.0,0.0,0.0,0.0,0.0,0.0,0.0,0.0,0.0,0.0,0.0,0.0,0.0,0.0,0.0,0.0,0.0,0.0,0.0,0.0,0.0,0.0,0.0,0.0,0.0,0.0,0.0,0.0,0.0,0.0,0.0,0.0,0.0,0.0,0.0,0.0,0.0,0.0,0.0,0.0,0.0,0.0,0.0,0.0,0.0,0.0,0.0,0.0,0.0,0.0,0.0,0.0,0.0,0.0,0.0,0.0,0.0,0.0,0.0,0.0,0.0,0.0,0.0,0.0,0.0,0.0,0.0,0.0,0.0,0.0,0.0,0.0,0.0,0.0,0.0,0.0,0.0,0.0,0.0,0.0,0.0,0.0,0.0,0.0,0.0,0.0,0.0,0.0,0.0,0.0,0.0,0.0,0.0,0.0,0.0,0.0,0.0,0.0,0.0,0.0,0.0,0.0,3.2374,3.1918,3.1772,3.1934,3.1226,3.0726,3.0608,0.0,0.0,0.0,0.0,0.0,0.0,0.0,0.0,0.0,0.0,0.0,0.0,0.0,0.0,0.0,0.0,0.0,0.0,0.0,0.0,0.0,0.0,0.0,0.0,0.0,0.0,0.0,0.0,0.0,0.0,0.0,0.0,0.0,0.0,0.0,0.0,0.0,0.0,0.0,0.0,0.0,0.0,0.0,0.0,0.0,0.0,0.0,0.0,0.0,0.0,0.0,0.0,0.0,0.0,0.0,0.0,0.0,0.0,0.0,0.0,0.0,0.0,0.0,0.0,0.0,0.0,0.0,0.0,0.0,0.0,0.0,0.0,0.0,0.0,0.0,0.0,0.0,0.0,0.0,0.0,0.0,0.0,0.0,0.0,0.0,0.0,0.0,0.0,0.0,0.0,0.0,0.0,0.0,0.0,0.0,0.0,0.0,0.0,0.0,0.0,0.0,0.0,0.0,0.0,0.0,0.0,0.0,0.0,3.515,3.3333,3.2643,3.3091,3.2211,3.1525,0.0,0.0,0.0,0.0,0.0,0.0,0.0,0.0,0.0,0.0,0.0,0.0,0.0,0.0,0.0,0.0,0.0,0.0,0.0,0.0,0.0,0.0,0.0,0.0,0.0,0.0,0.0,0.0,0.0,0.0,0.0,0.0,0.0,0.0,0.0,0.0,0.0,0.0,0.0,0.0,0.0,0.0,0.0,0.0,0.0,0.0,0.0,0.0,0.0,0.0,0.0,0.0,0.0,0.0,0.0,0.0,0.0,0.0,0.0,0.0,0.0,0.0,0.0,0.0,0.0,0.0,0.0,0.0,0.0,0.0,0.0,0.0,0.0,0.0,0.0,0.0,0.0,0.0,0.0,0.0,0.0,0.0,0.0,0.0,0.0,0.0,0.0,0.0,0.0,0.0,0.0,0.0,0.0,0.0,0.0,0.0,0.0,0.0,0.0,0.0,0.0,0.0,0.0,0.0,0.0,0.0,0.0,0.0,0.0,3.6683,3.6049,3.5611,3.5545,3.4677,3.39,0.0,0.0,0.0,0.0,0.0,0.0,0.0,0.0,0.0,0.0,0.0,0.0,0.0,0.0,0.0,0.0,0.0,0.0,0.0,0.0,0.0,0.0,0.0,0.0,0.0,0.0,0.0,0.0,0.0,0.0,0.0,0.0,0.0,0.0,0.0,0.0,0.0,0.0,0.0,0.0,0.0,0.0,0.0,0.0,0.0,0.0,0.0,0.0,0.0,0.0,0.0,0.0,0.0,0.0,0.0,0.0,0.0,0.0,0.0,0.0,0.0,0.0,0.0,0.0,0.0,0.0,0.0,0.0,0.0,0.0,0.0,0.0,0.0,0.0,0.0,0.0,0.0,0.0,0.0,0.0,0.0,0.0,0.0,0.0,0.0,0.0,0.0,0.0,0.0,0.0,0.0,0.0,0.0,0.0,0.0,0.0,0.0,0.0,0.0,0.0,0.0,0.0,0.0,0.0,0.0,0.0,0.0,0.0,3.6936,3.822,3.8497,3.8603,3.8378,3.6407,3.5251,0.0,0.0,0.0,0.0,0.0,0.0,0.0,0.0,0.0,0.0,0.0,0.0,0.0,0.0,0.0,0.0,0.0,0.0,0.0,0.0,0.0,0.0,0.0,0.0,0.0,0.0,0.0,0.0,0.0,0.0,0.0,0.0,0.0,0.0,0.0,0.0,0.0,0.0,0.0,0.0,0.0,0.0,0.0,0.0,0.0,0.0,0.0,0.0,0.0,0.0,0.0,0.0,0.0,0.0,0.0,0.0,0.0,0.0,0.0,0.0,0.0,0.0,0.0,0.0,0.0,0.0,0.0,0.0,0.0,0.0,0.0,0.0,0.0,0.0,0.0,0.0,0.0,0.0,0.0,0.0,0.0,0.0,0.0,0.0,0.0,0.0,0.0,0.0,0.0,0.0,0.0,0.0,0.0,0.0,0.0,0.0,0.0,0.0,0.0,0.0,0.0,0.0,0.0,0.0,0.0,0.0,0.0,0.0,3.8451,3.9615,4.065,4.116,4.1018,3.7878,3.6143,0.0,0.0,0.0,0.0,0.0,0.0,0.0,0.0,0.0,0.0,0.0,0.0,0.0,0.0,0.0,0.0,0.0,0.0,0.0,0.0,0.0,0.0,0.0,0.0,0.0,0.0,0.0,0.0,0.0,0.0,0.0,0.0,0.0,0.0,0.0,0.0,0.0,0.0,0.0,0.0,0.0,0.0,0.0,0.0,0.0,0.0,0.0,0.0,0.0,0.0,0.0,0.0,0.0,0.0,0.0,0.0,0.0,0.0,0.0,0.0,0.0,0.0,0.0,0.0,0.0,0.0,0.0,0.0,0.0,0.0,0.0,0.0,0.0,0.0,0.0,0.0,0.0,0.0,0.0,0.0,0.0,0.0,0.0,0.0,0.0,0.0,0.0,0.0,0.0,0.0,0.0,0.0,0.0,0.0,0.0,0.0,0.0,0.0,0.0,0.0,0.0,0.0,0.0,0.0,0.0,0.0,0.0,0.0,3.9751,4.1269,4.1617,4.2012,4.262,4.0327,3.8433,0.0,0.0,0.0,0.0,0.0,0.0,0.0,0.0,0.0,0.0,0.0,0.0,0.0,0.0,0.0,0.0,0.0,0.0,0.0,0.0,0.0,0.0,0.0,0.0,0.0,0.0,0.0,0.0,0.0,0.0,0.0,0.0,0.0,0.0,0.0,0.0,0.0,0.0,0.0,0.0,0.0,0.0,0.0,0.0,0.0,0.0,0.0,0.0,2.1308,0.0,0.0,0.0,0.0,0.0,0.0,0.0,0.0,0.0,0.0,0.0,0.0,0.0,0.0,0.0,0.0,0.0,0.0,0.0,0.0,0.0,0.0,0.0,0.0,0.0,0.0,0.0,0.0,0.0,0.0,0.0,0.0,0.0,0.0,0.0,0.0,0.0,0.0,0.0,0.0,0.0,0.0,0.0,0.0,0.0,0.0,0.0,0.0,0.0,0.0,0.0,0.0,0.0,0.0,0.0,0.0,0.0,0.0,0.0,4.0883,4.2361,4.2722,4.3027,4.3212,4.2055,4.0473,0.0,0.0,0.0,0.0,0.0,0.0,0.0,0.0,0.0,0.0,0.0,0.0,0.0,0.0,0.0,0.0,0.0,0.0,0.0,0.0,0.0,0.0,0.0,0.0,0.0,0.0,0.0,0.0,0.0,0.0,0.0,0.0,0.0,0.0,0.0,0.0,0.0,0.0,0.0,0.0,0.0,0.0,0.0,0.0,0.0,0.0,0.0,0.0,0.0,0.0,0.0,0.0,0.0,0.0,0.0,0.0,0.0,0.0,0.0,0.0,0.0,0.0,0.0,0.0,0.0,0.0,0.0,0.0,0.0,0.0,0.0,0.0,0.0,0.0,0.0,0.0,0.0,0.0,0.0,0.0,0.0,0.0,0.0,0.0,0.0,0.0,0.0,0.0,0.0,0.0,0.0,0.0,0.0,0.0,0.0,0.0,0.0,0.0,0.0,0.0,0.0,0.0,0.0,0.0,0.0,0.0,0.0,4.047,4.1796,4.3184,4.3827,4.4004,4.373,4.3251,4.2034,4.0083,0.0,0.0,0.0,0.0,0.0,0.0,0.0,0.0,0.0,0.0,0.0,0.0,0.0,0.0,0.0,0.0,0.0,0.0,0.0,0.0,0.0,0.0,0.0,0.0,0.0,0.0,0.0,0.0,0.0,0.0,0.0,0.0,0.0,0.0,0.0,0.0,0.0,0.0,2.25,2.3161,0.0,0.0,0.0,0.0,0.0,0.0,0.0,0.0,2.3663,0.0,0.0,0.0,0.0,0.0,0.0,0.0,0.0,0.0,0.0,0.0,0.0,0.0,0.0,0.0,0.0,0.0,0.0,0.0,0.0,0.0,0.0,0.0,0.0,0.0,0.0,0.0,0.0,0.0,0.0,0.0,0.0,0.0,0.0,0.0,0.0,0.0,0.0,0.0,0.0,0.0,0.0,0.0,0.0,0.0,0.0,0.0,0.0,0.0,0.0,0.0,0.0,0.0,0.0,0.0,0.0,3.9452,4.1355,4.2767,4.3669,4.4521,4.4897,4.4801,4.3808,4.2581,4.1098,0.0,0.0,0.0,0.0,0.0,0.0,0.0,0.0,0.0,0.0,0.0,0.0,0.0,0.0,0.0,0.0,0.0,0.0,0.0,0.0,0.0,0.0,0.0,0.0,0.0,0.0,0.0,0.0,0.0,0.0,0.0,0.0,0.0,0.0,0.0,0.0,0.0,0.0,0.0,2.3789,2.4214,0.0,0.0,0.0,0.0,0.0,0.0,0.0,0.0,2.4087,0.0,0.0,0.0,0.0,0.0,0.0,0.0,0.0,0.0,0.0,0.0,0.0,0.0,0.0,0.0,0.0,0.0,0.0,0.0,0.0,0.0,0.0,0.0,0.0,0.0,0.0,0.0,0.0,0.0,0.0,0.0,0.0,0.0,0.0,0.0,0.0,0.0,0.0,0.0,0.0,0.0,0.0,0.0,0.0,0.0,0.0,0.0,0.0,0.0,0.0,0.0,0.0,0.0,0.0,0.0,4.0351,4.209,4.347,4.4442,4.4875,4.511,4.511,4.3999,4.2855,0.0,0.0,0.0,0.0,0.0,0.0,0.0,0.0,0.0,0.0,0.0,0.0,0.0,0.0,0.0,0.0,0.0,0.0,0.0,0.0,0.0,0.0,0.0,0.0,0.0,0.0,0.0,0.0,0.0,0.0,0.0,0.0,0.0,0.0,0.0,0.0,0.0,0.0,0.0,0.0,2.5203,2.5753,2.6131,0.0,0.0,0.0,0.0,0.0,0.0,2.5836,2.5524,0.0,0.0,0.0,0.0,0.0,0.0,0.0,0.0,0.0,0.0,0.0,0.0,0.0,0.0,0.0,0.0,0.0,0.0,0.0,0.0,0.0,0.0,0.0,0.0,0.0,0.0,0.0,0.0,0.0,0.0,0.0,0.0,0.0,0.0,0.0,0.0,0.0,0.0,0.0,0.0,0.0,0.0,0.0,0.0,0.0,0.0,0.0,0.0,0.0,0.0,0.0,0.0,0.0,0.0,0.0,4.1156,4.2624,4.3942,4.5127,4.523,4.5218,4.5046,4.4164,4.3012,0.0,0.0,0.0,0.0,0.0,0.0,0.0,0.0,0.0,0.0,0.0,0.0,0.0,0.0,0.0,0.0,0.0,0.0,0.0,0.0,0.0,0.0,0.0,0.0,0.0,0.0,0.0,0.0,0.0,0.0,0.0,0.0,0.0,0.0,0.0,0.0,0.0,0.0,0.0,0.0,0.0,2.7292,2.8004,2.8492,0.0,0.0,0.0,0.0,2.7653,2.742,0.0,0.0,0.0,0.0,0.0,0.0,0.0,0.0,0.0,0.0,0.0,0.0,0.0,0.0,0.0,0.0,0.0,0.0,0.0,0.0,0.0,0.0,0.0,0.0,0.0,0.0,0.0,0.0,0.0,0.0,0.0,0.0,0.0,0.0,0.0,0.0,0.0,0.0,0.0,0.0,0.0,0.0,0.0,0.0,0.0,0.0,0.0,0.0,0.0,0.0,0.0,0.0,0.0,0.0,0.0,0.0,4.1396,4.2812,4.4164,4.5372,4.5685,4.5486,4.4935,4.4313,4.3066,0.0,0.0,0.0,0.0,0.0,0.0,0.0,0.0,0.0,0.0,0.0,0.0,0.0,0.0,0.0,0.0,0.0,0.0,0.0,0.0,0.0,0.0,0.0,0.0,0.0,0.0,0.0,0.0,0.0,0.0,0.0,0.0,0.0,0.0,0.0,0.0,0.0,0.0,0.0,0.0,0.0,2.8029,2.8782,2.8912,2.9071,0.0,0.0,2.9469,2.9337,2.8855,0.0,0.0,0.0,0.0,0.0,0.0,0.0,0.0,0.0,0.0,0.0,0.0,0.0,0.0,0.0,0.0,0.0,0.0,0.0,0.0,0.0,0.0,0.0,0.0,0.0,0.0,0.0,0.0,0.0,0.0,0.0,0.0,0.0,0.0,0.0,0.0,0.0,0.0,0.0,0.0,0.0,0.0,0.0,0.0,0.0,0.0,0.0,0.0,0.0,0.0,0.0,0.0,0.0,0.0,0.0,4.0313,4.1577,4.3055,4.4457,4.5673,4.585,4.5576,4.4908,4.4298,4.3079,0.0,0.0,0.0,0.0,0.0,0.0,0.0,0.0,0.0,0.0,0.0,0.0,0.0,0.0,0.0,0.0,0.0,0.0,0.0,0.0,0.0,0.0,0.0,0.0,0.0,0.0,0.0,0.0,0.0,0.0,0.0,0.0,0.0,0.0,0.0,0.0,0.0,0.0,0.0,0.0,0.0,0.0,3.0408,3.1088,0.0,0.0,0.0,3.1522,3.0831,0.0,0.0,0.0,0.0,0.0,0.0,0.0,0.0,0.0,0.0,0.0,0.0,0.0,0.0,0.0,0.0,0.0,0.0,0.0,0.0,0.0,0.0,0.0,0.0,0.0,0.0,0.0,0.0,0.0,0.0,0.0,0.0,0.0,0.0,0.0,0.0,0.0,0.0,0.0,0.0,0.0,0.0,0.0,0.0,0.0,0.0,0.0,0.0,0.0,0.0,0.0,0.0,0.0,0.0,0.0,0.0,0.0,4.1785,4.3255,4.4618,4.5837,4.5895,4.5488,4.4676,4.424,0.0,0.0,0.0,0.0,0.0,0.0,0.0,0.0,0.0,0.0,0.0,0.0,0.0,0.0,0.0,0.0,0.0,0.0,0.0,0.0,0.0,0.0,0.0,0.0,0.0,0.0,0.0,2.2077,0.0,0.0,0.0,0.0,0.0,0.0,0.0,0.0,0.0,0.0,0.0,0.0,0.0,0.0,3.1638,3.2128,3.3035,3.3638,0.0,0.0,3.3419,3.2502,3.2088,3.1577,0.0,0.0,0.0,0.0,0.0,0.0,0.0,0.0,0.0,0.0,0.0,0.0,0.0,0.0,0.0,0.0,0.0,0.0,0.0,0.0,0.0,0.0,0.0,0.0,0.0,0.0,0.0,0.0,0.0,0.0,0.0,0.0,0.0,0.0,0.0,0.0,0.0,0.0,0.0,0.0,0.0,0.0,0.0,0.0,0.0,0.0,0.0,0.0,0.0,0.0,0.0,0.0,0.0,0.0,0.0,4.2092,4.334,4.4589,4.5837,4.5895,4.5285,4.4095,4.4008,4.2789,0.0,0.0,0.0,0.0,0.0,0.0,0.0,0.0,0.0,0.0,0.0,0.0,0.0,0.0,0.0,0.0,0.0,0.0,0.0,0.0,0.0,0.0,0.0,0.0,0.0,0.0,0.0,0.0,0.0,0.0,0.0,0.0,0.0,0.0,0.0,0.0,0.0,0.0,0.0,0.0,0.0,3.2314,3.3675,3.4083,3.4289,0.0,0.0,3.4489,3.4406,3.344,3.2632,3.2343,0.0,0.0,0.0,0.0,0.0,0.0,0.0,0.0,0.0,0.0,0.0,0.0,0.0,0.0,0.0,0.0,0.0,0.0,0.0,0.0,0.0,0.0,0.0,0.0,0.0,0.0,0.0,0.0,0.0,0.0,0.0,0.0,0.0,0.0,0.0,0.0,0.0,0.0,0.0,0.0,0.0,0.0,0.0,0.0,0.0,0.0,0.0,0.0,0.0,0.0,0.0,0.0,0.0,4.0554,4.1482,4.3137,4.4414,4.5227,4.5692,4.5285,4.4037,4.4008,4.276,0.0,0.0,0.0,0.0,0.0,0.0,0.0,0.0,0.0,0.0,0.0,0.0,0.0,0.0,0.0,0.0,0.0,0.0,0.0,0.0,0.0,0.0,0.0,0.0,0.0,0.0,0.0,0.0,2.3769,2.3956,2.4091,0.0,0.0,0.0,0.0,0.0,0.0,0.0,0.0,0.0,0.0,3.4043,3.5299,3.5833,0.0,0.0,3.6488,3.614,3.5753,3.4979,3.4315,3.3854,3.2734,0.0,0.0,0.0,0.0,0.0,0.0,0.0,0.0,0.0,0.0,0.0,0.0,0.0,0.0,0.0,0.0,0.0,0.0,0.0,0.0,0.0,0.0,0.0,0.0,0.0,0.0,0.0,0.0,0.0,0.0,0.0,0.0,0.0,0.0,0.0,0.0,0.0,0.0,0.0,0.0,0.0,0.0,0.0,0.0,0.0,0.0,0.0,0.0,0.0,0.0,0.0,0.0,4.0437,4.1105,4.3021,4.4269,4.4923,4.5547,4.5285,4.4037,4.4008,4.276,0.0,0.0,0.0,0.0,0.0,0.0,0.0,0.0,0.0,0.0,0.0,0.0,0.0,0.0,0.0,0.0,0.0,0.0,0.0,0.0,0.0,0.0,0.0,0.0,0.0,0.0,0.0,0.0,2.468,2.5003,2.559,0.0,0.0,0.0,0.0,0.0,0.0,0.0,0.0,0.0,0.0,3.5725,3.6726,3.7501,3.8112,3.8531,3.8224,3.7805,3.7398,3.6671,3.5962,3.5505,0.0,0.0,0.0,0.0,0.0,0.0,0.0,0.0,0.0,0.0,0.0,0.0,0.0,0.0,0.0,0.0,0.0,0.0,0.0,0.0,0.0,0.0,0.0,0.0,0.0,0.0,0.0,0.0,0.0,0.0,0.0,0.0,0.0,0.0,0.0,0.0,0.0,0.0,0.0,0.0,0.0,0.0,0.0,0.0,0.0,0.0,0.0,0.0,0.0,0.0,0.0,0.0,0.0,4.0437,4.1105,4.3021,4.4269,4.4879,4.5547,4.5285,4.4066,4.4008,4.276,4.0147,0.0,0.0,0.0,0.0,0.0,0.0,0.0,0.0,0.0,0.0,0.0,0.0,0.0,0.0,0.0,0.0,0.0,0.0,0.0,0.0,0.0,0.0,0.0,0.0,0.0,0.0,2.4793,2.5102,2.5912,0.0,0.0,0.0,0.0,0.0,0.0,0.0,0.0,0.0,0.0,3.5637,3.7271,3.7918,3.8802,3.9441,3.947,3.9441,3.9453,3.9384,3.8396,3.7491,0.0,0.0,0.0,0.0,0.0,0.0,0.0,0.0,0.0,0.0,0.0,0.0,0.0,0.0,0.0,0.0,0.0,0.0,0.0,0.0,0.0,0.0,0.0,0.0,0.0,0.0,0.0,4.3021,4.2963,0.0,0.0,0.0,0.0,0.0,0.0,0.0,0.0,0.0,0.0,0.0,4.3101,4.2702,0.0,0.0,0.0,0.0,0.0,0.0,0.0,0.0,0.0,0.0,0.0,0.0,4.0641,4.1773,4.3224,4.4298,4.4879,4.5518,4.5285,4.4037,4.4008,4.2586,3.9596,0.0,0.0,0.0,0.0,0.0,0.0,0.0,0.0,0.0,0.0,0.0,0.0,0.0,0.0,0.0,0.0,0.0,0.0,0.0,0.0,0.0,0.0,0.0,0.0,0.0,2.5785,0.0,0.0,0.0,0.0,0.0,0.0,0.0,0.0,0.0,0.0,0.0,3.4221,3.6061,3.6968,3.7983,3.9463,3.9955,4.0322,0.0,0.0,0.0,0.0,0.0,0.0,0.0,0.0,0.0,0.0,0.0,0.0,0.0,0.0,3.1946,2.9517,2.8932,2.8675,2.815,0.0,0.0,0.0,0.0,0.0,0.0,0.0,0.0,0.0,0.0,0.0,0.0,0.0,0.0,0.0,0.0,4.4296,0.0,0.0,0.0,0.0,0.0,0.0,0.0,0.0,4.4411,4.4617,4.503,4.4588,4.4057,0.0,4.2758,4.1508,0.0,0.0,0.0,0.0,0.0,0.0,0.0,0.0,4.111,4.2216,4.3553,4.4529,4.5142,4.5785,4.5551,4.4266,4.3361,4.1814,3.9478,3.7171,3.5302,0.0,0.0,0.0,0.0,0.0,0.0,0.0,0.0,0.0,0.0,0.0,0.0,0.0,0.0,0.0,0.0,0.0,0.0,0.0,0.0,0.0,0.0,0.0,2.7169,0.0,0.0,0.0,0.0,0.0,0.0,0.0,0.0,0.0,3.3922,3.4632,3.5775,3.7377,3.8255,3.9183,4.0445,0.0,0.0,0.0,0.0,0.0,0.0,0.0,4.0026,3.9986,3.9057,3.8341,3.8263,3.7205,3.6241,3.5826,0.0,0.0,3.1809,3.1172,3.0878,3.0405,3.0041,2.9669,2.931,2.8913,2.8605,0.0,0.0,0.0,0.0,0.0,0.0,0.0,0.0,4.8201,4.7686,0.0,4.6388,0.0,0.0,0.0,0.0,0.0,0.0,0.0,0.0,4.5841,4.5811,4.5841,4.5841,4.5486,4.4794,4.4157,4.3466,4.2718,4.1351,0.0,0.0,0.0,0.0,0.0,0.0,4.1748,4.248,4.3889,4.4929,4.5607,4.6255,4.5961,4.4634,4.2158,4.0507,3.9799,3.7906,3.6291,3.509,3.3627,0.0,0.0,0.0,0.0,0.0,0.0,0.0,0.0,0.0,0.0,0.0,0.0,0.0,0.0,0.0,0.0,0.0,0.0,0.0,0.0,2.8767,0.0,0.0,0.0,0.0,0.0,0.0,0.0,0.0,0.0,0.0,3.4226,3.6127,3.7634,3.7758,0.0,0.0,0.0,0.0,4.2818,4.2266,4.2644,4.2818,4.2208,4.157,4.1082,4.0862,0.0,0.0,3.9533,3.9007,3.8328,3.7497,3.6767,3.5695,3.415,3.3412,3.2935,3.2354,3.1487,3.0751,3.0372,2.999,2.9382,5.7327,0.0,0.0,0.0,0.0,5.2112,5.164,5.1552,5.0224,4.9693,4.9604,4.8778,0.0,0.0,0.0,0.0,0.0,0.0,4.7612,4.8283,4.8283,4.8283,4.8283,4.8283,4.7911,4.7255,4.6599,4.5943,4.5245,4.4205,4.268,4.0763,0.0,0.0,0.0,0.0,4.2361,4.3902,4.4385,4.5165,4.6285,4.6491,4.5961,4.4634,4.2128,4.0722,4.0477,3.8178,3.6527,3.5642,3.4371,0.0,0.0,0.0,0.0,0.0,0.0,0.0,0.0,0.0,0.0,0.0,0.0,0.0,0.0,0.0,0.0,0.0,0.0,0.0,2.9633,3.0132,3.0602,0.0,0.0,0.0,0.0,0.0,0.0,0.0,0.0,0.0,3.7389,3.7775,3.8543,0.0,0.0,4.1893,4.2299,4.3124,4.3631,4.3485,0.0,0.0,0.0,4.2586,4.2295,4.1807,4.1169,4.0509,3.9848,3.9578,3.9326,3.8928,3.8677,3.8189,3.7123,3.5429,3.4118,3.3571,3.323,3.2923,3.2581,3.2105,3.1667,6.1327,5.9173,5.7126,5.6117,5.579,5.4751,5.4158,5.3861,5.2793,5.2199,5.1903,5.125,5.0929,5.0726,4.9683,0.0,0.0,0.0,4.9793,5.0467,5.0467,5.0301,5.0062,5.0032,4.9553,4.8686,4.8267,4.7608,4.6711,4.6194,4.4787,4.2644,0.0,0.0,4.2895,4.2976,4.3696,4.5086,4.523,4.5806,4.6814,4.634,4.5687,4.4857,4.2644,4.1308,4.1012,3.8987,3.7445,3.6526,3.5218,3.4002,0.0,0.0,0.0,0.0,0.0,0.0,0.0,0.0,0.0,0.0,0.0,2.8265,2.8265,0.0,0.0,0.0,3.0307,3.0778,3.122,3.1604,0.0,0.0,0.0,0.0,0.0,0.0,0.0,3.7004,3.8125,3.9092,3.9829,3.9991,4.0422,4.162,4.2322,4.2965,4.3608,0.0,4.4572,4.4339,4.4485,4.4383,4.3656,4.3497,4.3293,4.2557,4.1918,4.1355,4.0828,4.0729,4.0533,4.0141,4.0015,3.9734,3.8934,3.749,3.6097,3.5239,3.4733,3.4365,3.4026,3.3448,3.287,6.4814,6.3977,6.0864,5.9159,5.8381,5.7663,5.7004,5.6436,5.5718,5.5089,5.4491,5.3743,5.3025,5.2306,5.1678,0.0,0.0,5.1379,5.1678,5.2276,5.2276,5.1947,5.1379,5.1319,5.0661,4.9569,4.9449,4.8716,4.7578,4.7429,4.677,4.5544,4.5137,4.4866,4.4748,4.4929,4.534,4.6036,4.6194,4.6608,4.7249,4.5992,4.5274,4.5274,4.3429,4.2081,4.1422,4.0098,3.8811,3.7464,3.6045,3.4964,3.425,0.0,0.0,0.0,0.0,0.0,0.0,0.0,0.0,0.0,0.0,0.0,0.0,0.0,0.0,0.0,3.2343,0.0,3.317,3.317,0.0,0.0,0.0,3.5477,3.6187,3.6744,3.7571,3.887,0.0,0.0,0.0,0.0,4.2887,4.2965,4.3466,4.4086,4.4706,4.5282,4.5459,4.4988,4.5312,4.5387,4.4555,4.4278,4.3871,4.3105,4.254,4.2104,4.2005,4.2005,4.172,4.1076,4.092,4.0637,3.9762,3.9361,3.8795,3.7091,3.6057,3.5319,3.5041,3.4242,3.3488,6.643,6.6131,6.4366,6.266,6.1044,5.9877,5.9279,5.9039,5.7932,5.7334,5.7124,5.5957,5.482,5.3683,5.3025,5.2695,5.2695,5.2695,5.2785,5.2935,5.2935,5.2875,5.2695,5.2187,5.1798,5.1468,5.0481,4.9807,4.9448,4.8536,4.7908,4.7578,4.6983,4.6194,4.5168,4.5221,4.555,4.6237,4.6279,4.6608,4.7249,4.5992,4.5274,4.5274,4.3429,4.2081,4.1422,4.0127,3.8781,3.7464,3.6623,3.5666,3.45,3.411,0.0,0.0,0.0,0.0,0.0,0.0,0.0,0.0,0.0,3.0601,3.063,0.0,3.2435,0.0,3.3121,3.3779,3.4825,3.4882,0.0,0.0,3.6764,3.7267,3.843,3.8698,3.9294,4.0644,4.1211,4.1897,4.2812,4.3498,4.4303,4.5287,4.523,4.5237,4.5414,4.5931,4.6314,4.6167,4.627,4.6108,4.5387,4.4474,4.3742,4.3357,4.2789,4.2298,4.2133,4.2092,4.2034,4.1848,4.1819,4.1476,4.0637,4.044,3.9808,3.8297,3.7438,3.6761,3.5989,3.5424,3.4996,6.7986,6.7328,6.6311,6.5114,6.3707,6.2091,6.1253,6.0894,5.9907,5.9129,5.8471,5.7184,5.6166,5.5478,5.5089,5.476,5.4521,5.4521,5.4341,5.4072,5.4072,5.3922,5.3623,5.3264,5.2785,5.2187,5.1468,5.0764,5.0166,4.9494,4.9015,4.8716,4.8057,4.7369,4.6651,4.6352,4.6381,4.6741,4.6741,4.695,4.7249,4.5992,4.5274,4.5244,4.3688,4.2342,4.1414,4.0666,3.9529,3.7943,3.7255,3.6417,3.5429,3.4833,3.4322,0.0,0.0,0.0,0.0,0.0,0.0,0.0,0.0,0.0,0.0,0.0,3.366,0.0,3.4857,0.0,3.6297,3.6327,3.6832,3.8182,3.8302,3.8811,4.0157,4.0307,4.0696,4.1722,4.244,4.303,4.3688,4.4575,4.5412,4.619,4.6347,4.6353,4.6383,4.668,4.6917,4.6887,4.6887,4.6755,4.6253,4.5014,4.4061,4.3889,4.3143,4.2514,4.2392,4.2298,4.2257,4.2216,4.2175,4.1964,4.1476,4.1266,4.0699,3.9396,3.8609,3.783,3.661,3.6018,3.5588,6.9243,6.8046,6.7388,6.6759,6.6011,6.4216,6.3019,6.2301,6.1642,6.0565,5.9159,5.7902,5.7304,5.7214,5.7124,5.6795,5.6286,5.6248,5.5867,5.5329,5.5239,5.488,5.4341,5.4251,5.3593,5.2486,5.2276,5.1618,5.0465,5.0285,4.9972,4.9419,4.8716,4.8356,4.8267,4.7728,4.7399,4.7309,4.7309,4.7309,4.7279,4.5992,4.5274,4.5244,4.4018,4.2701,4.1482,4.1422,4.0457,3.8512,3.7853,3.7255,3.6626,3.5522,3.4893,0.0,3.4322,0.0,0.0,0.0,0.0,0.0,0.0,0.0,0.0,3.3903,3.4502,3.5669,3.6746,3.7464,3.7644,3.7674,3.8212,3.9499,3.9642,4.0157,4.1362,4.1542,4.1841,4.256,4.312,4.3678,4.4526,4.5603,4.6279,4.6459,4.6877,4.7176,4.7279,4.7236,4.7266,4.7309,4.7309,4.7119,4.6648,4.5585,4.463,4.4411,4.3496,4.2758,4.2688,4.2555,4.2433,4.2392,4.2257,4.2104,4.2092,4.1868,4.1311,3.9992,3.9453,3.8694,3.7147,3.6298,3.5858,6.9512,6.8764,6.8076,6.7418,6.6729,6.5832,6.4755,6.3588,6.2959,6.1642,5.9877,5.9069,5.8441,5.7902,5.7334,5.7034,5.6885,5.6406,5.6158,5.5957,5.5448,5.5119,5.497,5.4461,5.4072,5.3773,5.2725,5.2067,5.1798,5.0704,5.0136,4.9986,4.9404,4.8805,4.8297,0.0,0.0,0.0,4.7309,4.7309,4.7249,4.5992,4.5274,4.5244,4.4018,0.0,4.1474,4.1422,4.0457,3.8542,3.8272,0.0,0.0,0.0,0.0,0.0,0.0,0.0,0.0,0.0,0.0,0.0,3.6656,3.6237,3.525,3.6058,3.6776,3.7015,3.7221,3.7853,3.8931,3.905,3.9559,4.0816,4.0995,4.1362,4.2111,4.2201,4.265,4.3808,4.4047,4.4545,4.5693,4.616,4.6531,4.701,4.7219,4.7309,4.7309,4.7309,4.7309,4.7309,4.7279,4.7057,4.6506,4.5687,4.4816,4.4258,4.3504,4.292,4.2769,4.2688,4.2596,4.2433,4.2351,4.2269,4.2133,4.2051,4.1505,4.0101,3.975,3.911,3.7338,3.6733,3.6338,6.9871,0.0,6.8615,6.7897,0.0,6.664,6.5742,6.4455,6.3827,6.26,6.1014,6.0027,5.9398,5.9069,5.8381,5.7902,5.7603,5.7274,5.6795,5.6166,5.5837,5.5508,5.5179,5.485,5.4521,5.4162,5.3174,5.2516,5.2157,5.1152,5.072,5.072,5.0062,4.9583,4.9254,4.8626,4.7967,4.7309,4.7309,4.7309,4.7249,4.5992,4.5274,4.5244,0.0,0.0,0.0,0.0,0.0,0.0,0.0,0.0,0.0,0.0,0.0,3.7404,3.7404,3.7404,3.7404,3.7404,3.7404,3.7404,3.7998,3.7819,3.6537,3.7644,3.8392,3.8422,3.899,3.9649,4.0307,4.0367,4.0786,4.1752,4.1901,4.2171,4.2701,4.2851,4.324,4.4137,4.4616,4.5185,4.616,4.6621,4.692,4.7249,4.7309,4.7309,4.7309,4.7309,4.7309,4.7279,4.701,4.6668,4.6279,4.5424,4.4695,4.4154,4.3617,4.319,4.301,4.293,4.2809,4.2688,4.2526,4.2351,4.224,4.1913,4.1268,4.0191,3.9621,3.9003,3.767,3.7123,3.6733,7.0171,6.9004,6.9004,6.8226,6.6999,6.6999,6.6251,6.4905,0.0,0.0,0.0,6.0805,6.0206,6.0027,5.9398,5.88,5.8291,5.8171,5.7483,5.6346,5.6278,5.5837,5.5209,5.5209,5.491,5.4371,5.3563,5.2905,5.2366,5.1588,5.1229,5.1169,5.0614,5.0255,5.0002,4.8865,4.7967,4.7339,4.7309,4.7309,4.7279,4.5992,4.5274,4.5274,4.3977,4.303,4.244,4.1871,4.1265,4.0576,3.9409,3.8751,3.8721,3.8123,3.7764,3.7764,3.7764,3.7823,3.7943,3.7943,3.7973,3.8093,3.911,3.929,3.8182,3.914,3.9732,3.9732,4.0756,4.1452,4.1572,4.1602,4.1841,4.25,4.256,4.2761,4.32,4.3409,4.3738,4.4407,4.5095,4.5723,4.6441,4.695,4.7309,4.7309,4.7309,4.7219,4.716,4.7219,4.7249,4.707,4.6681,4.6249,4.5801,4.5095,4.4276,4.4067,4.3648,4.3319,4.329,4.317,4.309,4.2941,4.2729,4.2426,4.2216,4.1686,4.0884,4.0089,3.945,3.8717,3.8064,3.751,3.7123,7.0171,6.9004,6.9004,6.8226,6.6999,6.6999,6.6251,6.4934,6.3737,6.278,6.2032,6.1313,6.0625,6.0057,5.9398,5.9069,5.8949,5.8381,5.7693,0.0,5.6436,5.5888,5.5209,5.5209,5.5149,5.497,5.3773,5.3144,5.2905,5.1828,5.1229,5.1199,5.1063,5.0511,4.9434,4.8656,4.7967,4.7339,4.7309,4.7309,4.7279,4.5992,4.5274,4.5244,4.4018,4.303,4.244,4.2291,4.1961,4.1302,4.0516,4.0127,4.0098,3.9469,3.9104,3.9104,3.9104,3.9379,3.9918,3.9978,4.0217,4.0756,4.0995,4.1025,4.0846,4.1033,4.1115,4.1115,4.1362,4.1662,4.2171,4.2261,4.253,4.306,4.318,4.32,4.3319,4.3738,4.4347,4.5035,4.5753,4.6381,4.698,4.7219,4.7309,4.7309,4.7249,4.707,4.6681,4.695,4.701,4.6621,4.6369,4.5801,4.4934,4.4456,4.4037,4.3499,4.3409,4.329,4.329,4.325,4.321,4.305,4.29,4.2533,4.184,4.1485,4.0781,3.9731,3.9209,3.8813,3.8083,3.7815,3.7586,7.0171,6.9064,6.9004,6.8226,6.6939,6.6251,6.5592,6.4904,6.3647,6.2929,6.254,6.1553,6.0954,6.0565,5.9548,5.9099,5.9099,5.88,5.8082,5.7124,5.6795,5.6137,5.5239,5.5209,5.5209,5.5119,5.4221,5.3533,5.3114,5.2187,5.1558,5.1259,5.1229,5.072,4.9823,4.9134,4.8476,4.7848,4.7489,4.7309,4.7279,4.6352,4.5663,4.5304,4.4347,4.3539,4.291,4.259,4.2261,4.1961,4.1294,4.0935,4.0905,4.0636,4.0487,4.0487,4.0487,4.0606,4.0905,4.0935,4.1272,4.1901,4.1961,4.2111,4.2432,4.2102,4.1961,4.1961,4.2222,4.2551,4.2851,4.288,4.3,4.326,4.329,4.329,4.3319,4.3529,4.4157,4.5095,4.5574,4.6172,4.7189,4.7309,4.7309,4.7279,4.704,4.6531,4.5873,4.6022,4.6112,4.5813,4.5442,4.5035,4.4407,4.3947,4.3648,4.3319,4.329,4.329,4.329,4.329,4.325,4.317,4.309,4.2674,4.1843,4.1263,4.049,3.9711,3.8946,3.8513,3.8138,3.7967,3.7701,7.0051,6.9004,6.8854,6.8076,6.6879,6.5592,6.5024,6.4904,6.3647,6.3137,6.2899,6.1702,6.1104,6.0984,5.9697,5.9099,5.9099,5.9099,5.8471,5.7393,5.7184,5.6496,5.5478,5.5269,5.5209,5.5119,5.4521,5.3862,5.3174,5.2516,5.1858,5.1289,5.1229,5.0853,5.0166,4.9613,4.9,4.8297,4.7638,4.7309,4.7279,4.6651,4.6052,4.5544,4.4736,4.4037,4.3569,4.294,4.262,4.259,4.1991,4.1632,4.1632,4.1512,4.1422,4.1422,4.1422,4.1444,4.1632,4.1743,4.2043,4.256,4.262,4.2791,4.317,4.288,4.262,4.2641,4.303,4.326,4.326,4.329,4.329,4.329,4.329,4.329,4.329,4.3409,4.3898,4.4915,4.5185,4.5723,4.6561,4.686,4.68,4.6711,4.6411,4.5843,4.5244,4.5065,4.5035,4.4825,4.4526,4.4287,4.4137,4.3678,4.3349,4.329,4.329,4.329,4.329,4.329,4.329,4.325,4.3031,4.2555,4.1911,4.1056,4.0215,3.9463,3.8777,3.8298,3.8194,3.8043,3.7739,6.9662,6.8944,6.8345,6.7657,6.6849,6.5592,6.4964,6.4844,6.3647,6.3137,6.2959,6.1702,6.1104,6.0924,5.9697,5.9099,5.9099,5.9099,5.871,5.7992,5.7393,5.6735,5.6047,5.5478,5.5209,5.5119,5.4551,5.3922,5.3234,5.2546,5.1858,5.1289,5.1229,5.0853,5.0196,4.9613,4.9,4.8297,4.7638,4.7309,4.7279,4.6651,4.6249,4.619,4.5005,4.4287,4.4227,4.3599,4.32,4.317,4.2611,4.2321,4.2261,4.1752,4.1452,4.1452,4.1452,4.1624,4.2261,4.2821,4.311,4.32,4.317,4.324,4.329,4.323,4.324,4.32,4.326,4.329,4.329,4.329,4.329,4.329,4.329,4.329,4.3349,4.3828,4.4287,4.4347,4.4915,4.5364,4.5574,4.5633,4.5574,4.5603,4.5514,4.5155,4.4556,4.4407,4.4227,4.3868,4.3858,4.3977,4.3589,4.3379,4.329,4.329,4.329,4.329,4.329,4.329,4.329,4.308,4.2851,4.2234,4.1364,4.0596,3.9898,3.9239,3.873,3.8389,3.824,3.8081,3.7777,6.9602,6.8944,6.8256,6.7358,6.634,6.5413,6.4784,6.4336,6.3468,6.3137,6.2899,6.1702,6.1104,6.1014,5.9697,5.9099,5.9099,5.9099,5.874,5.8082,5.7423,5.6765,5.6166,5.5508,5.5209,5.5179,5.491,5.4461,5.3713,5.2725,5.1858,5.1289,5.1229,5.1033,5.0734,5.0182,4.9523,4.8865,4.8207,4.7698,4.7309,4.704,4.6711,4.6279,4.5741,4.5304,4.4885,4.4257,4.3888,4.3828,4.3299,4.291,4.294,4.2671,4.2521,4.2521,4.2521,4.2641,4.291,4.314,4.329,4.329,4.329,4.329,4.329,4.329,4.329,4.329,4.329,4.329,4.3319,4.329,4.329,4.329,4.329,4.329,4.3319,4.3529,4.3868,4.4257,4.4556,4.4885,4.5185,4.5274,4.5125,4.4855,4.4706,4.4466,4.3868,4.3748,4.3589,4.3409,4.3529,4.3559,4.3349,4.329,4.329,4.329,4.329,4.329,4.329,4.329,4.32,4.288,4.256,4.1923,4.089,4.0412,3.9892,3.918,3.8686,3.8464,3.8389,3.8202,3.8005,6.9453,6.8884,6.8076,6.7059,6.5981,6.5323,6.4635,6.3977,6.3348,6.3137,6.2987,6.1702,6.1104,6.0924,5.9697,5.9099,5.9099,5.9099,5.886,5.8321,5.7513,5.6855,5.6376,5.5568,5.5209,5.5209,5.5179,5.485,5.4132,5.2845,5.1947,5.1528,5.1319,5.1229,5.1169,5.0524,5.0002,4.9494,4.8716,4.8057,4.7608,4.7399,4.707,4.6621,4.6411,4.6082,4.5603,4.4945,4.4586,4.4556,4.3958,4.3559,4.3559,4.3409,4.329,4.329,4.329,4.329,4.329,4.329,4.329,4.3319,4.3439,4.3559,4.3589,4.3738,4.3828,4.3858,4.3868,4.3798,4.3319,4.329,4.329,4.329,4.329,4.329,4.329,4.329,4.3499,4.3917,4.3977,4.4197,4.4616,4.4676,4.4496,4.4137,4.4007,4.3888,4.3439,4.3319,4.3319,4.329,4.329,4.3319,4.329,4.329,4.329,4.329,4.329,4.329,4.329,4.329,4.312,4.2701,4.241,4.1773,4.0748,4.0219,3.9817,3.929,3.887,3.8612,3.8464,3.8352,3.8202,6.9034,6.8794,6.7567,6.664,6.5951,6.5263,6.4635,6.3887,6.3348,6.3137,6.2899,6.1702,6.1104,6.1014,5.9697,5.9099,5.9099,5.9099,5.9069,5.889,5.7723,5.7094,5.6944,5.5807,5.5209,5.5209,5.5179,5.485,5.4162,5.2875,5.2187,5.2097,5.1528,5.1229,5.1139,5.0554,5.0196,4.9956,4.9015,4.8297,4.8147,4.7638,4.7339,4.716,4.6651,4.6309,4.6202,4.5603,4.5244,4.5244,4.4616,4.4287,4.4227,4.3678,4.3379,4.3379,4.3349,4.3349,4.3379,4.3409,4.3409,4.3439,4.3947,4.4287,4.4287,4.4736,4.5005,4.5155,4.5035,4.4616,4.3648,4.3529,4.3469,4.3439,4.3379,4.3409,4.3319,4.3409,4.3319,4.3379,4.3439,4.3499,4.3469,4.3379,4.3499,4.3439,4.3379,4.3349,4.3349,4.329,4.329,4.329,4.329,4.329,4.329,4.329,4.329,4.329,4.329,4.329,4.329,4.323,4.291,4.2462,4.1991,4.1324,4.0576,3.9964,3.9533,3.9192,3.909,3.8907,3.8686,3.8567,3.8418,6.8495,6.7657,6.6759,6.5981,6.5323,6.4665,6.4006,6.3408,6.3169,6.3137,6.2839,6.1672,6.1104,6.1044,5.9697,5.9099,5.9099,5.9099,5.9099,5.9009,5.8171,5.7513,5.7034,5.6196,5.5568,5.5239,5.5179,5.485,5.4192,5.3264,5.2606,5.2127,5.1558,5.1229,5.1169,5.099,5.0614,5.0196,4.9687,4.9134,4.8386,4.8057,4.7728,4.7309,4.71,4.695,4.695,4.6322,4.5963,4.5963,4.5304,4.4945,4.4915,4.4736,4.4586,4.4586,4.4586,4.4586,4.4586,4.4586,4.4586,4.4616,4.4796,4.4945,4.4975,4.5155,4.5274,4.5304,4.5304,4.5005,4.4766,4.4586,4.4586,4.4586,4.4556,4.4377,4.4077,4.3917,4.3768,4.3409,4.329,4.329,4.329,4.329,4.329,4.329,4.329,4.329,4.329,4.329,4.329,4.329,4.329,4.329,4.329,4.329,4.329,4.329,4.329,4.329,4.329,4.329,4.309,4.2073,4.1542,4.0965,4.0277,3.9732,3.9337,3.9301,3.9228,3.909,3.8907,3.876,3.8612,6.8016,6.6969,6.6281,6.5622,6.4964,6.4306,6.3647,6.3109,6.3137,6.3137,6.2839,6.1702,6.1104,6.0894,5.9697,5.9099,5.9099,5.9099,5.9099,5.9039,5.8411,5.7752,5.7064,5.6466,5.5837,5.5269,5.5209,5.494,5.4491,5.3832,5.3174,5.2516,5.1858,5.1409,5.1259,5.1229,5.099,5.0554,5.0315,4.9717,4.8955,4.8506,4.8087,4.7668,4.7399,4.7309,4.7309,4.689,4.6651,4.6518,4.5992,4.5514,4.5334,4.5274,4.5274,4.5274,4.5274,4.5274,4.5274,4.5274,4.5274,4.5304,4.5514,4.5633,4.5633,4.5813,4.5933,4.5933,4.5933,4.5933,4.5933,4.5933,4.5783,4.5424,4.5274,4.5125,4.4676,4.4436,4.3988,4.3439,4.329,4.329,4.329,4.329,4.329,4.329,4.329,4.329,4.329,4.329,4.329,4.329,4.329,4.329,4.329,4.329,4.329,4.329,4.329,4.329,4.329,4.329,4.2871,4.1863,4.1153,4.0576,4.0068,3.9553,3.9403,3.9403,3.9337,3.9192,3.9083,3.898,3.8833,6.7597,6.6939,6.6281,6.5592,6.4905,6.4216,6.3617,6.3139,6.3137,6.3137,6.2899,6.1732,6.1194,6.0864,5.9787,5.9159,5.9099,5.9099,5.9099,5.9039,5.8501,5.7842,5.7154,5.6555,5.5867,5.5209,5.5209,5.5179,5.5059,5.4431,5.3773,5.3174,5.2456,5.1828,5.1259,5.1259,5.1229,5.105,5.0554,5.0196,5.0046,4.9045,4.8416,4.8237,4.7728,4.7399,4.7369,4.7279,4.7219,4.7189,4.6681,4.6022,4.5574,4.5484,4.5394,4.5454,4.5394,4.5364,4.5394,4.5454,4.5514,4.5603,4.5963,4.6279,4.6411,4.68,4.71,4.707,4.71,4.7189,4.713,4.71,4.6681,4.5603,4.5544,4.5514,4.5244,4.4736,4.4037,4.3529,4.3409,4.3319,4.329,4.329,4.329,4.329,4.329,4.329,4.329,4.329,4.329,4.329,4.329,4.329,4.329,4.329,4.329,4.329,4.329,4.329,4.329,4.329,4.288,4.1983,4.1175,4.0636,3.9858,3.9403,3.9403,3.9403,3.9337,3.9301,3.9228,3.9119,3.9017,6.7178,6.6849,6.5802,6.5233,6.4874,6.3857,6.3258,6.3079,6.3137,6.3137,6.2899,6.2181,6.1553,6.0984,6.0146,5.9518,5.9129,5.9099,5.9099,5.9069,5.886,5.8411,5.7782,5.7124,5.6226,5.5359,5.5209,5.5209,5.5059,5.4521,5.4072,5.3713,5.2755,5.2127,5.1858,5.1468,5.1229,5.1199,5.102,5.0674,5.0226,4.9807,4.9404,4.9,4.8327,4.7967,4.7938,4.7549,4.7309,4.7309,4.71,4.689,4.6711,4.6681,4.6681,4.6681,4.6681,4.6681,4.6681,4.6651,4.6621,4.6681,4.689,4.698,4.701,4.716,4.7309,4.7309,4.7309,4.7309,4.7309,4.7309,4.707,4.6711,4.6681,4.6411,4.5963,4.5394,4.4736,4.4127,4.3977,4.3798,4.3439,4.3319,4.3349,4.329,4.329,4.329,4.329,4.329,4.329,4.329,4.329,4.329,4.329,4.329,4.329,4.329,4.329,4.329,4.329,4.323,4.2821,4.2162,4.1354,4.0606,3.9798,3.9403,3.9403,3.9403,3.9373,3.9337,3.9301,3.9228,3.9156,6.6999,6.6849,6.5562,6.5024,6.4874,6.3617,6.3137,6.3137,6.3137,6.3137,6.3017,6.2391,6.1732,6.1074,6.0386,5.9727,5.9159,5.9099,5.9099,5.9099,5.9099,5.874,5.8112,5.7423,5.6585,5.5748,5.5538,5.5418,5.5179,5.479,5.4461,5.4072,5.3354,5.2665,5.2247,5.1798,5.1498,5.1259,5.1199,5.102,5.0614,5.0315,5.0016,4.9583,4.8985,4.8686,4.8626,4.8027,4.7549,4.7369,4.7309,4.7309,4.7309,4.7279,4.7309,4.7309,4.7309,4.7279,4.7309,4.7219,4.7309,4.7309,4.7309,4.7309,4.7309,4.7309,4.7309,4.7309,4.7309,4.7309,4.7309,4.7309,4.7309,4.7309,4.7249,4.701,4.6369,4.5963,4.5424,4.4885,4.4676,4.4347,4.3858,4.3648,4.3529,4.3379,4.329,4.329,4.329,4.329,4.329,4.329,4.329,4.329,4.329,4.329,4.329,4.329,4.329,4.329,4.329,4.329,4.2991,4.2192,4.1414,4.0726,3.9948,3.9523,3.9403,3.9403,3.9403,3.9373,3.9337,3.9337,3.9301,6.6999,6.6819,6.5592,6.5024,6.4844,6.3617,6.3137,6.3137,6.3137,6.3137,6.2929,6.248,6.1852,6.1164,6.0565,5.9877,5.9249,5.9099,5.9099,5.9099,5.9069,5.874,5.8112,5.7543,5.6915,5.6316,5.6137,5.5807,5.5359,5.5149,5.488,5.4371,5.4132,5.3593,5.2665,5.2336,5.1947,5.1439,5.1349,5.1289,5.1139,5.0614,5.0285,5.0226,4.9673,4.9359,4.9224,4.8686,4.7997,4.7429,4.7309,4.7309,4.7309,4.7309,4.7309,4.7309,4.7309,4.7309,4.7309,4.7309,4.7309,4.7309,4.7309,4.7309,4.7309,4.7309,4.7309,4.7309,4.7309,4.7309,4.7309,4.7309,4.7309,4.7309,4.7309,4.701,4.6459,4.6339,4.6052,4.5544,4.5304,4.5095,4.4496,4.4377,4.4107,4.3708,4.3529,4.3469,4.3439,4.3469,4.3319,4.329,4.329,4.329,4.329,4.329,4.329,4.329,4.329,4.329,4.329,4.329,4.312,4.2282,4.1692,4.0905,4.0277,3.9888,3.9523,3.9403,3.9403,3.9403,3.9403,3.9403,3.9403,6.6999,6.6849,6.5562,6.5024,6.4844,6.3617,6.3137,6.3137,6.3137,6.3137,6.3019,6.2899,6.2421,6.1792,6.1104,6.0475,5.9817,5.9308,5.9099,5.9099,5.9099,5.874,5.8231,5.7962,5.7513,5.6885,5.6496,5.6128,5.5948,5.5448,5.5119,5.494,5.4461,5.4072,5.3683,5.3144,5.2606,5.2037,5.1947,5.1678,5.1289,5.1079,5.0913,5.0853,5.0331,5.0002,4.9912,4.9344,4.8491,4.7399,4.7309,4.7309,4.7399,4.7399,4.7429,4.7429,4.7369,4.7339,4.7339,4.7369,4.7339,4.7309,4.7429,4.7309,4.7309,4.7309,4.7309,4.7309,4.7309,4.7309,4.7309,4.7309,4.7309,4.7309,4.7309,4.7219,4.707,4.704,4.68,4.6202,4.6052,4.5723,4.5244,4.5035,4.4915,4.4676,4.4347,4.4007,4.3947,4.3589,4.3469,4.3319,4.329,4.329,4.329,4.329,4.329,4.329,4.329,4.329,4.329,4.329,4.3,4.247,4.2171,4.1572,4.0816,4.0247,3.9918,3.9679,3.9559,3.9553,3.9433,3.9403,3.9403,6.6999,6.6879,6.5562,6.5024,6.4844,6.3647,6.3137,6.3137,6.3137,6.3137,6.3137,6.3137,6.272,6.2061,6.1403,6.0715,6.0057,5.9398,5.9129,5.9099,5.9099,5.889,5.862,5.853,5.8171,5.7543,5.7154,5.6675,5.6248,5.5777,5.5478,5.5149,5.482,5.4491,5.4132,5.3832,5.3294,5.2695,5.2366,5.1977,5.1678,5.1349,5.1229,5.1169,5.0764,5.0524,5.0196,4.9853,4.9164,4.8386,4.8147,4.8117,4.8117,4.8117,4.8117,4.8117,4.8117,4.8147,4.8117,4.8147,4.8147,4.8147,4.8117,4.7967,4.7818,4.7698,4.7668,4.7339,4.7309,4.7309,4.7309,4.7309,4.7309,4.7309,4.7309,4.7309,4.7309,4.7279,4.713,4.686,4.6711,4.6429,4.5813,4.5723,4.5574,4.5304,4.4915,4.4766,4.4676,4.4107,4.3678,4.3678,4.3499,4.3439,4.3409,4.3379,4.3319,4.3319,4.329,4.329,4.329,4.329,4.311,4.2821,4.259,4.2201,4.1474,4.0846,4.0487,4.0247,3.9978,3.9702,3.9612,3.9523,3.9523,6.6999,6.6879,6.5562,6.5024,6.4844,6.3647,6.3137,6.3137,6.3137,6.3137,6.3137,6.3137,6.278,6.2151,6.1642,6.0924,6.0326,5.9668,5.9249,5.9159,5.9099,5.9039,5.9009,5.8979,5.871,5.8231,5.8171,5.7453,5.6765,5.6406,5.5897,5.5508,5.5329,5.494,5.4551,5.4311,5.3922,5.3324,5.2875,5.2546,5.2247,5.1768,5.1468,5.1409,5.1199,5.0823,5.0495,5.0255,5.0032,4.9539,4.9389,4.9179,4.9209,4.9269,4.9239,4.9179,4.909,4.912,4.9239,4.912,4.9209,4.9149,4.9179,4.909,4.858,4.8386,4.8207,4.7788,4.7519,4.7608,4.7489,4.7459,4.7399,4.7369,4.7309,4.7309,4.7309,4.7309,4.7309,4.7309,4.7279,4.698,4.6651,4.6339,4.619,4.6082,4.5693,4.5454,4.5244,4.4825,4.4526,4.4407,4.4037,4.3618,4.3529,4.3469,4.3409,4.3349,4.3319,4.329,4.329,4.329,4.329,4.314,4.291,4.2611,4.2231,4.1692,4.1205,4.0816,4.0546,4.0217,3.9918,3.9858,3.9798,6.6999,6.6879,6.5562,6.5024,6.4814,6.3647,6.3137,6.3137,6.3137,6.3137,6.3137,6.3137,6.3047,6.281,6.2151,6.1792,6.1373,6.0386,5.9638,5.9129,5.9099,5.9099,5.9099,5.9099,5.9039,5.877,5.8351,5.7962,5.7603,5.7064,5.6585,5.6047,5.5867,5.5628,5.5089,5.491,5.467,5.4072,5.3773,5.3414,5.2905,5.2336,5.1977,5.1947,5.1528,5.1199,5.105,5.0973,5.093,5.0601,4.9912,4.9479,4.9449,4.9419,4.9449,4.9449,4.9389,4.9359,4.9329,4.9419,4.9329,4.9449,4.9479,4.9269,4.9149,4.912,4.903,4.888,4.8835,4.8506,4.8147,4.8087,4.7878,4.7608,4.7459,4.7399,4.7309,4.7309,4.7309,4.7309,4.7309,4.7249,4.71,4.704,4.689,4.677,4.6501,4.6172,4.5843,4.5484,4.5274,4.5095,4.4736,4.4347,4.4127,4.4007,4.3828,4.3678,4.3529,4.3319,4.3319,4.329,4.329,4.329,4.323,4.294,4.265,4.244,4.1991,4.1534,4.1145,4.0905,4.0666,4.0427,4.0187,6.6999,6.6849,6.5562,6.5024,6.4814,6.3647,6.3137,6.3137,6.3137,6.3137,6.3137,6.3137,6.3137,6.3077,6.2421,6.2091,6.1792,6.0715,5.9907,5.9548,5.9308,5.9099,5.9099,5.9099,5.9099,5.9039,5.877,5.8471,5.8082,5.7752,5.7244,5.6615,5.6398,5.6068,5.5628,5.5359,5.4999,5.467,5.4341,5.4012,5.3623,5.3025,5.2665,5.2546,5.2037,5.1678,5.1678,5.1349,5.1229,5.105,5.0571,5.0182,5.0182,5.0182,5.0182,5.0182,5.0182,5.0182,5.0182,5.0182,5.0212,5.0152,5.0182,4.9972,4.9823,4.9733,4.9523,4.9389,4.9239,4.912,4.8805,4.8745,4.8506,4.8356,4.8207,4.8087,4.7788,4.7519,4.7309,4.7309,4.7309,4.7309,4.7309,4.7309,4.7279,4.704,4.704,4.6741,4.6591,4.6262,4.5933,4.5693,4.5394,4.5095,4.4855,4.4676,4.4436,4.4197,4.3958,4.3618,4.3379,4.3349,4.329,4.329,4.329,4.323,4.297,4.2791,4.262,4.2171,4.1841,4.1683,4.1444,4.1055,4.0876,6.6999,6.6879,6.5592,6.5024,6.4814,6.3647,6.3137,6.3137,6.3137,6.3137,6.3137,6.3137,6.3137,6.2959,6.254,6.2241,6.1822,6.1164,6.0505,6.0206,5.9847,5.9548,5.9428,5.9368,5.9249,5.9129,5.9039,5.874,5.8441,5.8231,5.7902,5.7304,5.6795,5.6526,5.6256,5.5688,5.5388,5.5299,5.476,5.4431,5.4251,5.3683,5.3324,5.2995,5.2665,5.2366,5.2247,5.1947,5.1618,5.1528,5.1528,5.1528,5.1468,5.1259,5.1229,5.1169,5.105,5.102,5.096,5.1079,5.1109,5.1229,5.1169,5.0883,5.0465,5.0315,5.0182,4.9883,4.9778,4.9719,4.9464,4.9404,4.9344,4.9239,4.9239,4.903,4.855,4.7908,4.7728,4.7309,4.7309,4.7309,4.7309,4.7309,4.7309,4.7309,4.7309,4.7279,4.71,4.695,4.6591,4.6471,4.6202,4.5843,4.5574,4.5125,4.4915,4.4766,4.4466,4.4067,4.3708,4.3648,4.3648,4.3349,4.329,4.323,4.3269,4.315,4.288,4.262,4.253,4.2402,4.2073,4.1692,4.1602,6.6999,6.6879,6.5562,6.5024,6.4814,6.3647,6.3137,6.3137,6.3137,6.3137,6.3137,6.3137,6.3137,6.3077,6.3077,6.263,6.2151,6.1672,6.1343,6.0984,6.0685,6.0416,5.9967,5.9907,5.9668,5.9219,5.9159,5.9069,5.8919,5.8919,5.8501,5.8052,5.7752,5.7483,5.6885,5.6346,5.5957,5.5807,5.5329,5.5029,5.479,5.4371,5.3803,5.3414,5.3144,5.3054,5.2995,5.2905,5.2845,5.2845,5.2845,5.2815,5.2546,5.1828,5.1439,5.1409,5.1409,5.1468,5.1349,5.1289,5.1229,5.1229,5.1229,5.1229,5.105,5.0973,5.084,5.084,5.069,5.0631,5.0106,5.0092,4.9793,4.9523,4.9449,4.9359,4.9179,4.8895,4.8416,4.7758,4.7519,4.7309,4.7309,4.7309,4.7309,4.7309,4.7309,4.7309,4.7219,4.7189,4.71,4.707,4.71,4.6681,4.6219,4.5693,4.5334,4.5304,4.5065,4.4796,4.4466,4.4216,4.4037,4.3858,4.3529,4.329,4.329,4.329,4.32,4.297,4.303,4.309,4.2731,4.2342,4.2261,6.6999,6.6849,6.5562,6.5024,6.4784,6.3647,6.3137,6.3137,6.3137,6.3137,6.3137,6.3137,6.3137,6.3137,6.3137,6.2869,6.26,6.2211,6.1942,6.1613,6.1283,6.0984,6.0625,6.0625,6.0446,6.0116,5.9817,5.9398,5.9129,5.9099,5.8919,5.865,5.8321,5.7932,5.7573,5.6974,5.6526,5.6196,5.5867,5.5508,5.5239,5.482,5.4491,5.4251,5.3862,5.3713,5.3653,5.3294,5.3174,5.3144,5.3144,5.3174,5.2995,5.2725,5.2217,5.2247,5.2187,5.2037,5.1798,5.1708,5.1618,5.1259,5.1259,5.1229,5.1229,5.1199,5.1259,5.1229,5.1229,5.1063,5.078,5.0674,5.0601,5.0391,5.0242,5.0062,4.9883,4.9793,4.9164,4.8386,4.8147,4.7848,4.7309,4.7309,4.7309,4.7309,4.7309,4.7309,4.7309,4.7309,4.7309,4.7309,4.7279,4.71,4.677,4.6411,4.5933,4.5843,4.5753,4.5454,4.5155,4.4885,4.4766,4.4616,4.4157,4.3589,4.3319,4.3319,4.3319,4.329,4.323,4.317,4.321,4.309,4.288,6.6999,6.6879,6.5592,6.5024,6.4814,6.3647,6.3137,6.3137,6.3137,6.3137,6.3137,6.3137,6.3137,6.3137,6.3137,6.3107,6.3019,6.251,6.2331,6.2241,6.1852,6.1523,6.1313,6.1283,6.1194,6.0835,6.0535,5.9937,5.9428,5.9189,5.9099,5.8919,5.8501,5.8321,5.8171,5.7633,5.7034,5.6705,5.6428,5.6017,5.5538,5.5269,5.5209,5.5179,5.467,5.4401,5.4341,5.4012,5.3773,5.3743,5.3683,5.3623,5.3593,5.3593,5.3593,5.3563,5.3354,5.2905,5.2576,5.2396,5.2217,5.1887,5.1678,5.1648,5.1618,5.1648,5.1409,5.1259,5.1229,5.1229,5.1139,5.1199,5.1169,5.1139,5.1079,5.0973,5.0584,5.0315,5.0092,4.9464,4.8985,4.8536,4.8147,4.7668,4.7728,4.7549,4.7549,4.7309,4.7309,4.7309,4.7309,4.7309,4.7309,4.7309,4.7189,4.713,4.6741,4.6531,4.6441,4.6232,4.5873,4.5514,4.5394,4.5185,4.4676,4.4097,4.3738,4.3379,4.3319,4.329,4.329,4.329,4.326,4.323,4.315,6.6999,6.6879,6.5562,6.5024,6.4844,6.3617,6.3137,6.3137,6.3137,6.3137,6.3137,6.3137,6.3137,6.3137,6.3137,6.3137,6.3077,6.2959,6.2839,6.278,6.269,6.2361,6.2032,6.2002,6.1732,6.1403,6.1134,6.0595,6.0057,5.9518,5.9129,5.9039,5.9009,5.8949,5.877,5.8291,5.7992,5.7782,5.7244,5.6645,5.6107,5.5568,5.5359,5.5209,5.5149,5.5029,5.497,5.476,5.476,5.479,5.488,5.491,5.494,5.494,5.494,5.461,5.3982,5.3144,5.3084,5.3084,5.2965,5.2755,5.2755,5.2905,5.2665,5.2276,5.1858,5.1259,5.1259,5.1229,5.1259,5.1229,5.1229,5.1229,5.1199,5.1199,5.102,5.0764,5.0571,5.0391,4.9853,4.9553,4.9224,4.8656,4.8147,4.7967,4.7758,4.7549,4.7339,4.7369,4.7309,4.7309,4.7309,4.7309,4.7309,4.7309,4.7219,4.704,4.695,4.686,4.6531,4.6142,4.5873,4.5603,4.5155,4.4825,4.4485,4.4097,4.3559,4.3349,4.3409,4.3379,4.329,4.329,4.329,6.6999,6.6879,6.5562,6.5024,6.4874,6.3617,6.3137,6.3137,6.3137,6.3137,6.3137,6.3137,6.3137,6.3137,6.3137,6.3137,6.3137,6.3137,6.3137,6.3137,6.3107,6.2929,6.272,6.266,6.2421,6.2151,6.1852,6.1613,6.0954,6.0176,5.9518,5.9159,5.9129,5.9069,5.9099,5.883,5.8471,5.8022,5.7453,5.6974,5.6675,5.6406,5.6077,5.5777,5.5748,5.5568,5.5329,5.5209,5.5209,5.5209,5.5209,5.5179,5.5179,5.5179,5.5179,5.5119,5.47,5.4192,5.3832,5.3773,5.3593,5.3294,5.3204,5.3114,5.3114,5.2935,5.2486,5.1858,5.1798,5.1648,5.1349,5.1229,5.1229,5.1229,5.1259,5.1229,5.1229,5.1199,5.0973,5.09,5.075,5.0421,5.0032,4.9464,4.8955,4.8745,4.8536,4.8327,4.7878,4.7519,4.7429,4.7309,4.7309,4.7309,4.7309,4.7309,4.7309,4.7189,4.7189,4.71,4.704,4.677,4.6501,4.6322,4.6082,4.5723,4.5352,4.4695,4.4007,4.3738,4.3559,4.3529,4.3499,4.329,4.329,6.6759,6.664,6.5503,6.4875,6.4665,6.3558,6.3137,6.3137,6.3137,6.3137,6.3137,6.3137,6.3137,6.3137,6.3137,6.3137,6.3137,6.3137,6.3137,6.3137,6.3137,6.3137,6.3047,6.3019,6.3019,6.3137,6.257,6.2181,6.1762,6.1104,6.0266,5.9398,5.9458,5.9279,5.9129,5.9039,5.883,5.8441,5.7782,5.7423,5.7304,5.7124,5.6795,5.6526,5.6346,5.6166,5.5748,5.5718,5.5718,5.5748,5.5568,5.5538,5.5508,5.5329,5.5209,5.5179,5.4999,5.485,5.4581,5.4401,5.4162,5.3862,5.3623,5.3773,5.3503,5.3414,5.3174,5.2516,5.2456,5.2187,5.1828,5.1648,5.1558,5.1498,5.1349,5.1289,5.1229,5.1289,5.1212,5.1109,5.102,5.1079,5.069,5.0212,4.9823,4.9553,4.9314,4.909,4.8596,4.8027,4.7848,4.7788,4.7698,4.7608,4.7369,4.7339,4.7339,4.7369,4.7369,4.7279,4.7189,4.7189,4.704,4.692,4.68,4.6651,4.6292,4.5364,4.4556,4.4466,4.4317,4.3917,4.3738,4.3499,4.3319,6.6071,6.6011,6.5293,6.4635,6.4066,6.3348,6.3137,6.3137,6.3137,6.3137,6.3137,6.3137,6.3137,6.3137,6.3137,6.3137,6.3137,6.3137,6.3137,6.3137,6.3137,6.3137,6.3137,6.3137,6.3137,6.3137,6.2869,6.26,6.2271,6.2061,6.1104,6.0206,5.9967,5.9608,5.9308,5.9159,5.9099,5.877,5.8321,5.8082,5.7902,5.7603,5.7184,5.7094,5.7034,5.7004,5.6944,5.6795,5.6705,5.6675,5.6316,5.6107,5.6017,5.5718,5.5538,5.5538,5.5508,5.5388,5.5209,5.5029,5.5059,5.5029,5.488,5.4581,5.4192,5.4132,5.3803,5.3264,5.3144,5.3025,5.2785,5.2546,5.2187,5.2067,5.1887,5.1618,5.1558,5.1409,5.1379,5.1259,5.1229,5.1229,5.1229,5.069,5.0481,5.0212,4.9703,4.9434,4.9314,4.8865,4.8596,4.8446,4.8297,4.8027,4.7519,4.7519,4.7788,4.7698,4.7608,4.7459,4.7279,4.7309,4.7309,4.7249,4.707,4.713,4.707,4.6202,4.5544,4.5304,4.5035,4.4586,4.4197,4.3888,4.3648,6.5772,6.5353,6.4695,6.4246,6.3947,6.3318,6.3137,6.3137,6.3137,6.3137,6.3137,6.3137,6.3137,6.3137,6.3137,6.3137,6.3137,6.3137,6.3137,6.3137,6.3137,6.3137,6.3137,6.3137,6.3137,6.3137,6.3079,6.3019,6.275,6.263,6.2181,6.1403,6.0595,6.0057,5.9697,5.9338,5.9159,5.9069,5.889,5.874,5.868,5.853,5.8141,5.7752,5.7723,5.7453,5.7154,5.7094,5.7094,5.7064,5.6885,5.6795,5.6705,5.6406,5.6286,5.6256,5.6226,5.6077,5.5718,5.5448,5.5209,5.5209,5.5149,5.5059,5.476,5.479,5.4461,5.4072,5.3803,5.3743,5.3174,5.2965,5.2785,5.2725,5.2516,5.2157,5.1977,5.1858,5.1708,5.1678,5.1409,5.1229,5.1229,5.1169,5.102,5.084,5.0301,4.9853,4.9793,4.9643,4.9344,4.9075,4.8925,4.8775,4.8327,4.8297,4.8327,4.8117,4.7908,4.7728,4.7578,4.7309,4.7309,4.7309,4.7309,4.7279,4.71,4.683,4.6441,4.6082,4.5633,4.5155,4.4736,4.4377,4.4137,6.5323,6.4665,6.4006,6.3737,6.3647,6.3258,6.3137,6.3137,6.3137,6.3137,6.3137,6.3137,6.3137,6.3137,6.3137,6.3137,6.3137,6.3137,6.3137,6.3137,6.3137,6.3137,6.3137,6.3137,6.3137,6.3137,6.3137,6.3107,6.3019,6.3137,6.275,6.2121,6.1313,6.0775,6.0266,5.9757,5.9308,5.9159,5.9099,5.9099,5.9069,5.9039,5.8919,5.8441,5.8411,5.8261,5.7962,5.7902,5.7842,5.7752,5.7573,5.7423,5.7334,5.7244,5.7124,5.7124,5.7064,5.6885,5.6406,5.5688,5.5239,5.5209,5.5179,5.5179,5.5209,5.5209,5.485,5.461,5.4491,5.4281,5.3713,5.3683,5.3533,5.3443,5.3054,5.2725,5.2606,5.2486,5.2276,5.2127,5.1828,5.1588,5.1468,5.1468,5.1229,5.1109,5.084,5.0541,5.0511,5.0301,5.0002,4.9763,4.9553,4.9404,4.9299,4.9045,4.8835,4.879,4.8506,4.8177,4.7967,4.7668,4.7369,4.7309,4.7309,4.7309,4.7189,4.701,4.686,4.6711,4.6202,4.5693,4.5484,4.5125,4.4796,6.4665,6.3977,6.3378,6.3196,6.3169,6.3166,6.3137,6.3137,6.3137,6.3137,6.3137,6.3137,6.3137,6.3137,6.3137,6.3137,6.3137,6.3137,6.3137,6.3137,6.3137,6.3137,6.3137,6.3137,6.3137,6.3137,6.3137,6.3137,6.3137,6.3137,6.2989,6.2839,6.2181,6.1553,6.1074,6.0386,5.9727,5.9219,5.9189,5.9099,5.9099,5.9099,5.9009,5.8949,5.8919,5.877,5.871,5.865,5.865,5.862,5.8291,5.8112,5.8082,5.7603,5.7393,5.7334,5.7304,5.7184,5.7004,5.5897,5.5508,5.5448,5.5568,5.5388,5.5269,5.5209,5.5179,5.494,5.4999,5.5059,5.485,5.4581,5.4311,5.4072,5.3713,5.3414,5.3294,5.3144,5.2965,5.2636,5.2366,5.2127,5.1947,5.1738,5.1439,5.1289,5.1229,5.1169,5.105,5.087,5.0541,5.0421,5.0212,5.0092,4.9912,4.9629,4.9419,4.9329,4.9179,4.8865,4.8476,4.8147,4.7848,4.7489,4.7309,4.7309,4.7309,4.7279,4.713,4.695,4.6681,4.6292,4.6112,4.5873,4.5484,6.4216,6.3947,6.3318,6.3137,6.3137,6.3137,6.3137,6.3137,6.3137,6.3137,6.3137,6.3137,6.3137,6.3137,6.3137,6.3137,6.3137,6.3137,6.3137,6.3137,6.3137,6.3137,6.3137,6.3137,6.3137,6.3137,6.3137,6.3137,6.3137,6.3137,6.3137,6.3017,6.275,6.2151,6.1224,6.0475,5.9907,5.9697,5.9398,5.9099,5.9129,5.9129,5.9099,5.9099,5.9099,5.9099,5.9099,5.9099,5.9099,5.9099,5.874,5.871,5.871,5.8321,5.8351,5.8381,5.8381,5.8201,5.7752,5.6974,5.6526,5.6346,5.6047,5.5867,5.5837,5.5388,5.5269,5.5239,5.5299,5.5299,5.5059,5.4999,5.485,5.485,5.4581,5.4281,5.4102,5.3922,5.3713,5.3204,5.2845,5.2785,5.2636,5.2306,5.1977,5.1738,5.1708,5.1349,5.1169,5.1169,5.096,5.096,5.087,5.078,5.0601,5.0272,5.0032,4.9942,4.9793,4.9583,4.9194,4.8745,4.8356,4.8057,4.7668,4.7309,4.7309,4.7309,4.7309,4.716,4.692,4.683,4.6741,4.6471,4.604,6.3857,6.3647,6.3258,6.3137,6.3137,6.3137,6.3137,6.3137,6.3137,6.3137,6.3137,6.3137,6.3137,6.3137,6.3137,6.3137,6.3137,6.3137,6.3137,6.3137,6.3137,6.3137,6.3137,6.3137,6.3137,6.3137,6.3137,6.3137,6.3137,6.3137,6.3137,6.3137,6.3137,6.263,6.1852,6.1313,6.0715,6.0416,5.9937,5.9518,5.9428,5.9308,5.9099,5.9099,5.9099,5.9099,5.9099,5.9099,5.9099,5.9099,5.9099,5.9099,5.9099,5.9099,5.9099,5.9099,5.9069,5.883,5.8411,5.8141,5.7812,5.7782,5.7004,5.6555,5.6466,5.6166,5.6017,5.5897,5.5658,5.5568,5.5538,5.5508,5.5269,5.5269,5.5119,5.482,5.47,5.4491,5.4431,5.3922,5.3563,5.3473,5.3264,5.2935,5.2576,5.2366,5.2217,5.1798,5.1379,5.1319,5.1289,5.1199,5.1199,5.105,5.102,5.099,5.078,5.0554,5.0375,5.0242,4.9883,4.9434,4.9045,4.8596,4.8147,4.7728,4.7399,4.7309,4.7309,4.7309,4.7219,4.7219,4.7309,4.701,4.6548,6.3617,6.3166,6.3137,6.3137,6.3137,6.3137,6.3137,6.3137,6.3137,6.3137,6.3137,6.3137,6.3137,6.3137,6.3137,6.3137,6.3137,6.3137,6.3137,6.3137,6.3137,6.3137,6.3137,6.3137,6.3137,6.3137,6.3137,6.3137,6.3137,6.3137,6.3137,6.3137,6.3137,6.2899,6.26,6.2241,6.1642,6.1104,6.0505,6.0176,6.0057,5.9668,5.9458,5.9398,5.9308,5.9219,5.9159,5.9099,5.9099,5.9099,5.9099,5.9099,5.9099,5.9099,5.9099,5.9099,5.9099,5.9039,5.8979,5.883,5.886,5.859,5.7872,5.7363,5.7064,5.6915,5.6705,5.6585,5.6406,5.6338,5.6248,5.5837,5.5478,5.5418,5.5359,5.5209,5.5119,5.5059,5.5059,5.476,5.4401,5.4162,5.3743,5.3414,5.3204,5.3084,5.2845,5.2396,5.1977,5.1528,5.1439,5.1229,5.1229,5.1229,5.1229,5.1229,5.1169,5.0823,5.0883,5.078,5.0405,5.0046,4.9673,4.9194,4.8626,4.8177,4.7788,4.7489,4.7309,4.7309,4.7309,4.7309,4.7309,4.7309,4.704,6.3228,6.3079,6.3137,6.3137,6.3137,6.3137,6.3137,6.3137,6.3137,6.3137,6.3137,6.3137,6.3137,6.3137,6.3137,6.3137,6.3137,6.3137,6.3137,6.3137,6.3137,6.3137,6.3137,6.3137,6.3137,6.3137,6.3137,6.3137,6.3137,6.3137,6.3137,6.3137,6.3137,6.3137,6.3077,6.2869,6.2361,6.1822,6.1164,6.0894,6.0775,6.0505,6.0176,5.9907,5.9817,5.9638,5.9279,5.9189,5.9159,5.9099,5.9099,5.9099,5.9099,5.9099,5.9099,5.9099,5.9099,5.9099,5.9099,5.9099,5.9099,5.9099,5.862,5.8321,5.7902,5.7513,5.7274,5.7244,5.7094,5.6915,5.6795,5.6496,5.6137,5.5927,5.5867,5.5777,5.5658,5.5418,5.5388,5.5119,5.479,5.47,5.4281,5.4042,5.3892,5.3773,5.3533,5.3084,5.2636,5.2187,5.1858,5.1648,5.1379,5.1439,5.1289,5.1259,5.1259,5.1199,5.1199,5.1169,5.09,5.0541,5.0196,4.9763,4.9164,4.8626,4.8147,4.7848,4.7519,4.7339,4.7309,4.7309,4.7309,4.7309,4.7309,6.3137,6.3137,6.3137,6.3137,6.3137,6.3137,6.3137,6.3137,6.3137,6.3137,6.3137,6.3137,6.3137,6.3137,6.3137,6.3137,6.3137,6.3137,6.3137,6.3137,6.3137,6.3137,6.3137,6.3137,6.3137,6.3137,6.3137,6.3137,6.3137,6.3137,6.3137,6.3137,6.3137,6.3137,6.3107,6.3019,6.2869,6.2391,6.1942,6.1613,6.1433,6.1283,6.0835,6.0595,6.0505,6.0116,5.9578,5.9488,5.9398,5.9189,5.9099,5.9099,5.9099,5.9099,5.9099,5.9099,5.9099,5.9099,5.9099,5.9099,5.9099,5.9099,5.9099,5.889,5.862,5.8261,5.8112,5.8022,5.7752,5.7513,5.7393,5.7244,5.6915,5.6585,5.6466,5.6376,5.6077,5.5777,5.5538,5.5269,5.5149,5.5149,5.497,5.473,5.4581,5.4521,5.4371,5.4012,5.3473,5.2935,5.2636,5.2396,5.1977,5.1708,5.1558,5.1439,5.1319,5.1289,5.1229,5.1199,5.1139,5.099,5.0584,5.0152,4.9643,4.9105,4.8566,4.8087,4.7758,4.7549,4.7369,4.7309,4.7309,4.7309,4.7309,6.3137,6.3137,6.3137,6.3137,6.3137,6.3137,6.3137,6.3137,6.3137,6.3137,6.3137,6.3137,6.3137,6.3137,6.3137,6.3137,6.3137,6.3137,6.3137,6.3137,6.3137,6.3137,6.3137,6.3137,6.3137,6.3137,6.3137,6.3137,6.3137,6.3137,6.3137,6.3137,6.3137,6.3137,6.3137,6.3137,6.2989,6.2839,6.248,6.2151,6.2032,6.1672,6.1253,6.1194,6.1104,6.0894,6.0356,6.0057,5.9877,5.9428,5.9219,5.9249,5.9129,5.9099,5.9099,5.9099,5.9099,5.9099,5.9099,5.9099,5.9099,5.9099,5.9099,5.9069,5.889,5.88,5.865,5.859,5.8351,5.8201,5.8112,5.7932,5.7633,5.7363,5.7154,5.6944,5.6645,5.6316,5.6047,5.5777,5.5538,5.5478,5.5179,5.491,5.488,5.5029,5.497,5.467,5.4371,5.3743,5.3324,5.3084,5.2636,5.2247,5.2127,5.1947,5.1528,5.1409,5.1349,5.1229,5.1169,5.1109,5.0943,5.0541,5.0092,4.9523,4.9015,4.8506,4.8027,4.7698,4.7519,4.7369,4.7309,4.7339,4.7309,6.3137,6.3137,6.3137,6.3137,6.3137,6.3137,6.3137,6.3137,6.3137,6.3137,6.3137,6.3137,6.3137,6.3137,6.3137,6.3137,6.3137,6.3137,6.3137,6.3137,6.3137,6.3137,6.3137,6.3137,6.3137,6.3137,6.3137,6.3137,6.3137,6.3137,6.3137,6.3137,6.3137,6.3137,6.3137,6.3137,6.3107,6.3049,6.2899,6.272,6.266,6.263,6.245,6.2061,6.1792,6.1493,6.1074,6.0835,6.0446,5.9997,5.9877,5.9608,5.9159,5.9129,5.9129,5.9099,5.9129,5.9099,5.9099,5.9099,5.9099,5.9099,5.9099,5.9099,5.9099,5.9099,5.9099,5.9039,5.8979,5.886,5.877,5.856,5.8381,5.8112,5.7842,5.7543,5.7214,5.6885,5.6585,5.6286,5.6017,5.5748,5.5418,5.5239,5.5209,5.5179,5.5179,5.5059,5.4999,5.4581,5.3982,5.3653,5.3204,5.2875,5.2785,5.2486,5.2097,5.1768,5.1648,5.1468,5.1259,5.1169,5.1079,5.0853,5.0495,5.0032,4.9464,4.8805,4.8356,4.8087,4.7728,4.7578,4.7429,4.7399,4.7339,6.3137,6.3137,6.3137,6.3137,6.3137,6.3137,6.3137,6.3137,6.3137,6.3137,6.3137,6.3137,6.3137,6.3137,6.3137,6.3137,6.3137,6.3137,6.3137,6.3137,6.3137,6.3137,6.3137,6.3137,6.3137,6.3137,6.3137,6.3137,6.3137,6.3137,6.3137,6.3137,6.3137,6.3137,6.3137,6.3137,6.3137,6.3137,6.3137,6.3137,6.3137,6.3077,6.2929,6.257,6.2421,6.2121,6.1792,6.1523,6.1134,6.0745,6.0565,6.0446,6.0057,5.9787,5.9608,5.9458,5.9338,5.9099,5.9159,5.9189,5.9219,5.9219,5.9159,5.9159,5.9099,5.9099,5.9099,5.9069,5.9069,5.8979,5.8979,5.883,5.88,5.862,5.8501,5.8291,5.7932,5.7573,5.7184,5.6735,5.6585,5.6526,5.6196,5.5867,5.5777,5.5628,5.5568,5.5269,5.5269,5.5299,5.473,5.4251,5.3832,5.3623,5.3563,5.3174,5.2695,5.2366,5.2067,5.1678,5.1409,5.1289,5.1169,5.105,5.0823,5.0524,4.9927,4.9374,4.9015,4.8775,4.8297,4.7818,4.7668,4.7489,4.7399,6.3137,6.3137,6.3137,6.3137,6.3137,6.3137,6.3137,6.3137,6.3137,6.3137,6.3137,6.3137,6.3137,6.3137,6.3137,6.3137,6.3137,6.3137,6.3137,6.3137,6.3137,6.3137,6.3137,6.3137,6.3137,6.3137,6.3137,6.3137,6.3137,6.3137,6.3137,6.3137,6.3137,6.3137,6.3137,6.3137,6.3137,6.3137,6.3137,6.3137,6.3137,6.3137,6.3077,6.3107,6.3077,6.278,6.2391,6.2121,6.1852,6.1433,6.1104,6.0924,6.0805,6.0446,6.0326,6.0146,5.9877,5.9668,5.9578,5.9638,5.9578,5.9488,5.9338,5.9308,5.9338,5.9279,5.9279,5.9159,5.9159,5.9129,5.9129,5.9099,5.9069,5.9069,5.8949,5.889,5.853,5.8201,5.7782,5.7304,5.7214,5.7214,5.6855,5.6526,5.6346,5.6166,5.5927,5.5598,5.5388,5.5478,5.5269,5.488,5.4521,5.4371,5.4311,5.3832,5.3324,5.3114,5.2755,5.2097,5.1588,5.1409,5.1259,5.1199,5.102,5.0794,5.0554,5.0046,4.9793,4.9464,4.8895,4.8356,4.7997,4.7818,4.7519,6.3137,6.3137,6.3137,6.3137,6.3137,6.3137,6.3137,6.3137,6.3137,6.3137,6.3137,6.3137,6.3137,6.3137,6.3137,6.3137,6.3137,6.3137,6.3137,6.3137,6.3137,6.3137,6.3137,6.3137,6.3137,6.3137,6.3137,6.3137,6.3137,6.3137,6.3137,6.3137,6.3137,6.3137,6.3137,6.3137,6.3137,6.3137,6.3137,6.3137,6.3137,6.3137,6.3137,6.3137,6.3137,6.2989,6.2899,6.2899,6.251,6.1972,6.1523,6.1343,6.1224,6.1104,6.0954,6.0835,6.0595,6.0475,6.0416,6.0416,6.0386,6.0416,6.0356,6.0236,6.0146,5.9907,5.9757,5.9398,5.9338,5.9249,5.9219,5.9129,5.9099,5.9099,5.9039,5.9039,5.886,5.874,5.8501,5.8141,5.7932,5.7693,5.7304,5.7064,5.6974,5.6825,5.6735,5.6406,5.6017,5.5897,5.5807,5.5508,5.5209,5.5059,5.497,5.4431,5.3982,5.3773,5.3443,5.2785,5.2127,5.1498,5.1349,5.1439,5.1319,5.1109,5.0794,5.0554,5.0345,5.0002,4.9494,4.903,4.8596,4.8147,4.7848]}]]